GFSSW_850_spd_000.txt.gz
Wind_Speed
22 22 20 20 19 18 16 14 12 12 10 11 11 11 9 10 12 14 16 10 8 7 6 8 6 6 8 6 10 5 3 2 3 4 7 5 14 17 23 22 11 6 33 33 29
22 22 20 19 17 16 13 12 11 11 10 12 11 9 8 10 10 16 9 9 7 7 10 11 9 8 5 5 7 7 3 5 7 6 6 5 17 13 9 19 17 23 29 34 32
22 21 19 17 15 14 12 11 11 11 11 12 10 6 6 6 10 13 11 8 6 8 12 12 9 8 10 3 6 3 4 5 6 20 17 10 11 9 20 3 25 34 37 35 33
20 19 17 15 14 12 11 12 12 11 11 11 7 4 4 5 4 1 6 6 7 11 14 13 11 6 5 8 12 2 6 6 8 8 15 12 13 7 9 9 24 29 35 35 30
18 17 14 12 12 11 12 12 11 11 12 9 4 4 5 6 10 6 3 2 7 12 14 14 11 10 6 5 6 7 5 10 13 12 9 14 8 7 8 19 27 31 33 29 26
15 14 12 10 11 10 11 12 11 11 10 6 4 5 6 5 3 6 5 4 7 8 8 12 12 9 12 11 7 9 16 10 9 7 5 7 1 7 10 30 34 34 31 26 24
11 11 9 9 10 11 12 12 12 11 8 4 4 6 9 13 5 2 6 9 6 6 7 8 1 7 2 7 22 23 6 4 3 5 3 6 2 3 17 29 35 33 31 30 26
9 8 8 9 11 12 12 13 12 9 4 3 4 5 8 4 6 4 4 3 0 4 4 5 1 2 7 10 5 5 6 3 4 6 2 5 6 6 18 24 32 35 35 32 29
6 6 9 11 12 14 14 13 8 4 3 2 3 5 9 6 6 3 2 5 3 3 3 4 3 5 6 4 5 7 3 3 3 11 3 3 3 7 23 22 25 22 11 15 22
3 6 11 14 15 15 13 9 5 3 4 5 2 2 9 5 6 9 6 3 3 2 6 6 7 4 5 5 3 5 4 5 7 6 4 5 4 5 2 13 20 19 20 25 21
5 9 13 16 16 15 12 8 3 2 9 7 3 6 5 9 6 9 6 3 1 0 1 7 6 3 3 4 4 3 3 7 3 5 5 8 8 6 18 31 26 31 38 36 34
8 11 15 18 15 13 11 2 5 4 6 14 10 11 8 4 4 10 6 1 0 2 3 6 2 3 4 5 6 3 7 5 5 7 7 10 10 7 14 18 29 33 34 32 31
11 13 16 14 11 10 9 6 5 4 3 1 2 4 2 2 4 5 1 2 3 2 3 6 5 2 5 6 7 5 7 3 3 2 9 17 9 9 8 20 24 28 30 28 27
14 14 13 11 6 6 6 4 3 4 4 4 2 2 1 4 3 2 0 1 5 8 6 5 7 5 5 4 1 2 3 4 3 3 6 1 4 4 5 11 18 24 29 28 26
13 14 13 11 3 2 3 4 3 3 4 4 1 6 2 1 6 1 3 2 0 3 6 4 4 6 5 0 1 3 2 2 2 3 3 2 7 5 5 7 7 15 25 22 18
12 12 10 6 1 3 4 3 2 6 2 3 5 4 2 0 2 5 2 4 4 6 6 4 3 3 1 3 1 1 1 6 4 3 3 4 5 6 4 7 5 13 23 18 12
11 12 9 5 3 2 4 3 5 5 2 4 4 4 4 2 2 4 5 6 4 5 3 5 4 5 5 4 6 8 5 3 4 4 4 3 7 2 4 5 13 17 19 16 13
12 13 9 5 3 4 5 5 2 3 4 3 5 4 4 3 5 3 3 4 6 4 3 3 4 4 6 2 1 3 5 5 4 2 2 5 3 2 5 23 23 18 16 16 16
14 12 8 6 3 4 1 3 6 5 4 6 5 5 2 2 6 6 4 2 2 1 5 4 1 2 0 2 1 3 4 4 6 4 3 1 4 3 5 6 15 9 16 16 15
16 12 10 8 4 3 4 5 3 2 3 5 6 5 4 5 4 4 2 3 3 7 2 2 4 2 3 5 6 6 2 4 4 2 1 3 3 4 5 4 6 8 12 15 19
17 9 11 12 6 1 3 5 2 6 8 4 2 4 6 7 5 3 3 3 5 5 7 2 4 4 4 3 1 5 3 5 4 3 4 2 5 5 7 7 10 16 25 23 19
17 3 16 13 3 0 2 4 2 3 5 5 4 4 4 4 5 3 3 3 9 3 2 2 5 3 1 3 1 2 3 4 4 2 2 4 4 3 5 18 25 22 22 22 20
16 5 14 16 3 2 5 4 3 2 2 2 2 4 3 4 6 3 4 4 9 4 2 2 2 3 6 4 6 4 2 5 6 3 3 5 5 2 6 14 16 24 23 19 14
9 2 4 8 4 5 3 1 2 6 3 5 4 6 5 5 6 4 3 3 5 4 3 2 3 5 6 4 3 1 2 4 5 4 4 6 6 5 6 10 17 21 18 13 8
5 4 10 3 4 4 3 3 3 2 2 5 4 3 5 4 3 4 3 2 4 2 3 3 4 2 2 4 1 1 2 1 4 4 5 7 6 6 6 8 16 18 12 7 6
3 4 10 10 16 5 5 6 9 3 3 1 2 4 7 5 6 7 7 3 4 1 3 5 2 1 1 5 6 3 5 5 4 4 4 9 6 6 13 19 16 12 9 6 5
7 6 11 1 6 4 4 6 8 9 2 3 15 7 10 2 15 18 12 11 8 5 3 4 4 3 3 5 6 5 5 3 2 4 3 6 6 9 6 12 12 10 6 3 3

GFSSW_850_spd_003.txt.gz
Wind_Speed
22 22 23 22 20 20 18 17 15 14 13 12 12 11 10 12 12 17 21 10 10 6 7 9 9 8 9 6 6 1 4 1 3 8 7 9 5 14 8 21 4 1 21 32 31
22 23 22 21 19 18 17 16 14 14 13 12 10 8 9 10 14 20 4 13 11 8 13 12 9 7 5 5 5 4 4 8 5 9 7 8 20 15 8 9 6 20 25 35 34
22 23 21 19 18 17 15 14 14 14 13 11 7 7 6 10 12 7 10 11 12 10 10 9 9 9 6 4 5 4 4 3 3 20 17 15 10 5 19 3 20 29 36 36 33
22 21 19 18 16 15 14 14 15 14 11 8 5 5 7 7 3 3 8 9 10 11 10 12 8 6 4 4 7 3 10 2 6 13 12 12 10 9 8 11 24 25 36 38 34
20 19 18 16 14 14 13 13 14 12 9 6 5 6 7 6 8 4 4 4 7 9 13 15 15 13 5 6 4 4 3 3 12 12 13 11 7 7 5 17 27 28 36 35 33
18 17 15 13 13 12 12 12 11 9 7 6 5 7 6 5 1 7 5 4 6 11 12 16 12 14 5 9 9 8 3 8 10 13 10 7 3 1 3 28 31 34 36 34 34
15 14 13 12 12 10 10 10 8 7 7 5 5 7 9 13 5 8 3 4 4 4 4 6 10 14 7 4 11 15 5 4 2 4 3 7 2 4 15 30 33 35 35 33 31
13 12 10 10 10 8 9 7 7 7 5 5 5 6 8 4 7 1 1 3 1 2 0 3 3 5 2 18 6 5 5 3 5 3 2 4 7 3 18 30 30 32 25 24 27
11 10 8 8 9 8 8 8 7 5 4 4 4 4 8 6 4 2 1 2 3 3 0 0 3 6 7 5 5 6 3 2 3 7 2 3 3 8 14 22 13 13 14 13 15
10 8 7 9 9 10 11 9 6 4 5 4 1 3 8 2 5 7 3 2 3 5 6 6 5 4 4 5 4 3 3 3 6 5 5 1 5 8 13 17 17 17 12 13 13
7 7 8 10 12 14 11 7 2 2 10 7 3 5 7 5 6 10 5 4 4 6 4 5 6 2 4 1 4 2 3 6 4 3 9 5 10 10 12 25 23 24 29 27 23
6 8 11 15 17 13 11 2 2 2 4 14 15 14 10 5 5 9 2 2 5 2 2 7 2 0 6 5 2 5 4 2 8 10 12 13 13 8 13 10 17 25 31 32 29
10 14 15 16 15 12 9 5 5 4 1 2 3 4 3 4 4 4 2 1 3 1 2 5 2 3 5 6 5 4 1 3 8 10 8 14 9 7 8 14 20 22 25 26 24
13 16 15 13 10 6 2 1 3 5 4 5 2 3 2 6 3 4 3 2 4 5 7 6 5 5 5 5 2 3 2 4 10 6 5 4 3 1 3 4 6 17 22 23 22
15 17 15 12 6 5 2 3 3 1 4 4 3 2 3 2 4 3 5 2 4 4 5 3 2 5 5 1 2 3 2 2 4 4 5 4 5 3 5 3 4 10 20 23 16
17 17 15 5 6 4 2 2 1 6 2 1 3 2 3 3 1 4 5 8 6 6 7 3 1 3 1 0 0 3 4 6 4 3 3 2 5 5 8 7 5 9 17 20 18
16 16 13 7 5 3 4 2 5 4 1 4 4 3 2 1 5 4 4 5 4 5 3 5 4 5 2 2 2 5 5 3 3 3 4 2 2 6 13 10 10 18 21 18 15
16 16 12 8 5 3 3 5 1 3 5 2 4 3 4 4 3 4 3 3 5 4 3 3 4 4 5 2 1 3 4 5 5 3 2 4 0 3 5 20 26 23 20 16 14
19 16 13 8 5 1 1 3 6 5 3 6 4 3 2 2 5 5 3 2 2 2 5 4 1 3 1 2 2 1 4 3 6 3 3 3 3 5 5 7 16 19 16 15 14
20 17 13 9 5 1 4 5 4 4 1 4 5 4 5 4 4 4 1 2 1 4 2 5 4 2 4 3 5 5 4 4 4 3 1 2 3 4 8 10 5 6 19 20 21
21 11 14 11 8 2 3 5 4 5 1 2 5 4 4 6 4 2 1 2 2 4 5 3 3 4 2 3 1 4 2 6 5 3 4 2 5 5 10 8 7 14 25 27 23
21 2 15 15 4 1 3 4 5 2 5 4 4 3 4 4 4 3 4 1 4 1 2 1 5 3 1 5 3 1 3 4 4 3 1 4 5 4 7 16 23 20 26 23 20
16 4 15 18 4 2 5 4 1 1 3 2 3 2 2 5 6 2 3 0 3 3 3 2 2 3 6 6 5 2 2 5 6 3 4 5 5 5 13 13 12 26 26 20 16
13 2 4 9 5 7 3 4 1 3 2 3 3 5 5 5 6 4 2 2 2 4 5 3 3 5 6 5 3 3 2 3 4 3 3 5 4 3 3 8 16 20 19 15 9
9 5 9 3 3 4 6 2 3 2 1 3 4 3 5 4 3 3 2 1 4 3 4 4 3 1 3 4 1 1 3 5 6 4 6 6 7 7 9 11 20 19 14 10 6
8 5 6 6 20 6 3 6 7 2 3 1 6 1 2 6 6 8 6 2 2 6 4 5 3 1 1 6 6 3 5 6 5 3 5 4 3 3 12 17 19 17 14 10 6
7 4 6 2 6 6 5 6 8 6 6 2 11 5 5 2 7 11 8 11 7 5 3 4 5 3 3 4 5 6 7 6 4 2 6 6 7 12 7 16 20 17 13 9 7

GFSSW_850_spd_009.txt.gz
Wind_Speed
20 21 20 21 22 23 22 20 19 18 16 15 13 11 13 14 15 18 20 10 5 9 9 11 11 8 5 5 4 2 1 3 6 7 2 6 11 6 4 14 6 3 10 20 26
20 21 20 21 21 22 21 19 17 16 14 13 11 10 12 13 16 19 10 11 10 14 10 10 12 8 5 4 4 3 2 6 1 20 7 4 9 7 5 8 4 8 14 29 25
20 20 21 21 22 21 19 18 15 14 11 10 9 9 10 11 16 4 3 14 15 13 10 9 6 7 4 4 5 4 2 5 8 13 20 21 7 6 13 4 4 16 29 26 25
20 21 21 21 21 19 16 15 13 11 8 7 7 7 8 9 0 5 5 12 14 12 12 12 10 5 3 3 5 2 6 2 2 7 10 9 12 6 7 1 3 19 29 28 26
19 19 20 19 20 16 14 12 10 7 6 6 6 6 8 7 7 8 5 10 13 15 14 16 15 8 5 5 6 4 4 5 5 8 15 14 8 6 2 6 13 22 27 26 24
18 17 19 18 17 13 11 9 6 4 5 5 4 6 8 4 1 1 8 7 13 16 17 17 8 12 3 3 5 4 6 6 5 13 16 9 5 6 3 14 19 23 25 23 22
16 16 17 17 15 10 7 5 5 4 5 4 4 8 11 11 3 10 7 2 10 11 15 17 15 7 3 3 4 8 6 6 6 5 4 13 5 5 5 14 20 19 20 20 19
14 15 15 15 12 7 5 5 5 5 5 4 5 9 8 3 6 7 3 1 4 10 10 10 13 12 4 3 4 3 4 4 1 3 4 2 3 7 4 9 12 16 19 19 16
13 14 14 13 9 6 5 6 6 6 5 3 5 5 7 2 5 2 1 3 2 3 8 3 11 6 4 4 3 7 4 3 4 11 3 7 1 10 5 10 10 11 12 14 14
12 13 12 11 8 7 7 8 7 5 5 3 5 2 3 1 4 1 2 2 3 12 11 9 5 3 3 3 5 4 5 2 5 5 11 11 5 8 8 8 9 10 10 12 12
11 11 11 9 9 9 12 10 3 3 10 7 2 2 2 6 5 2 3 5 3 4 3 1 3 4 3 2 3 5 4 6 3 1 7 6 5 7 7 8 7 8 10 10 9
10 10 10 12 11 13 14 5 3 1 3 14 16 16 12 6 3 5 1 2 3 3 2 5 4 1 5 4 5 4 6 4 5 2 5 6 9 6 7 4 3 9 11 13 15
10 10 11 13 14 15 13 5 2 4 1 4 9 7 2 9 5 5 3 3 4 3 3 5 2 2 4 3 5 3 6 4 5 6 6 6 4 3 5 7 8 10 15 18 22
11 12 14 15 13 11 9 3 3 2 3 4 3 1 4 5 2 4 5 2 4 4 4 5 2 3 4 3 2 4 3 9 13 2 3 2 3 2 3 4 6 9 11 16 21
14 15 17 19 8 12 4 4 4 4 3 4 3 2 4 4 7 3 2 3 6 5 3 1 2 2 5 1 1 3 8 10 3 4 4 1 1 3 6 8 9 11 10 16 22
17 19 21 22 10 7 7 5 7 6 3 2 3 2 3 4 3 1 3 7 6 5 5 3 3 2 3 2 4 10 6 6 3 2 1 2 3 5 9 15 14 13 12 17 21
20 23 24 18 10 9 6 8 4 4 2 2 3 2 3 2 4 4 4 4 2 4 4 4 2 2 2 5 3 4 4 2 1 1 3 1 3 6 13 11 19 21 20 22 22
23 24 24 18 12 7 8 4 3 3 5 1 3 3 4 2 3 4 3 3 5 4 3 3 1 3 4 2 4 2 4 4 5 3 2 1 5 3 3 15 22 24 21 22 22
25 24 24 17 13 10 6 4 6 6 3 6 3 5 1 2 4 4 3 2 1 1 4 3 1 2 4 1 0 3 2 2 6 2 1 2 3 5 1 8 14 19 21 22 23
26 22 23 17 16 14 4 5 3 5 2 2 4 2 4 3 3 3 1 1 2 1 1 5 3 1 1 2 7 1 6 3 2 3 3 2 5 6 5 12 12 16 21 22 22
25 12 19 20 17 10 4 5 5 7 6 5 5 4 3 4 3 2 5 1 1 1 3 3 3 2 1 1 4 3 2 6 4 1 2 2 4 4 8 14 16 22 21 23 23
20 4 24 21 4 2 4 5 2 4 3 4 4 4 5 3 4 4 6 1 2 2 4 1 4 3 1 1 1 1 3 4 3 4 1 0 5 0 6 9 13 14 19 22 24
15 6 21 21 4 1 2 2 2 2 1 2 3 3 2 4 4 2 3 2 2 3 5 5 1 3 2 2 1 2 3 4 5 2 5 3 3 1 3 5 13 18 20 23 26
17 3 5 8 6 9 5 3 2 3 2 3 5 3 4 3 4 5 3 2 2 3 4 3 2 4 7 3 1 4 4 4 3 3 4 6 4 4 5 6 10 15 20 23 28
11 3 8 3 1 5 4 6 5 2 2 2 3 2 5 4 2 3 2 2 3 3 3 2 4 2 1 1 1 2 5 8 7 4 6 4 8 6 9 12 15 14 20 25 27
10 7 6 4 18 7 2 6 7 3 1 2 6 3 2 5 5 8 6 4 4 2 2 2 4 2 4 1 3 3 5 7 6 3 9 5 12 9 3 9 15 20 25 26 27
11 13 16 1 4 6 6 7 8 6 2 4 7 5 3 2 4 9 8 11 6 5 3 2 5 3 3 3 3 5 9 11 6 5 7 9 8 6 6 13 21 23 27 28 27

GFSSW_850_spd_012.txt.gz
Wind_Speed
19 19 19 20 21 22 22 21 20 19 18 16 13 12 12 13 14 18 20 9 5 13 7 14 12 11 7 9 6 4 6 7 9 13 13 17 6 7 6 11 8 4 4 13 23
18 19 19 20 20 21 21 20 18 18 16 14 11 10 11 13 15 20 6 10 10 15 12 14 15 12 10 10 7 8 6 3 9 16 12 0 4 16 9 15 6 6 12 22 21
18 19 19 20 20 19 19 18 17 15 13 11 9 9 10 11 12 2 5 13 16 15 12 11 13 10 9 9 9 7 5 8 13 11 15 16 18 10 13 11 6 16 25 21 21
17 18 18 18 18 18 18 16 14 13 10 8 7 7 8 8 1 4 1 13 17 17 15 14 12 11 9 10 11 8 3 3 15 14 13 13 8 8 5 9 5 19 26 23 19
17 17 16 17 17 16 16 13 11 10 8 7 6 5 6 5 7 7 5 14 17 18 16 16 15 10 11 10 9 11 2 3 6 13 15 11 6 9 10 9 16 22 21 20 18
16 15 15 15 16 15 14 11 9 8 7 6 5 4 4 6 3 2 5 12 13 16 14 13 7 9 7 4 11 2 4 1 2 8 9 10 7 8 10 7 16 21 18 17 15
14 14 14 14 14 13 11 10 8 6 6 5 5 5 9 10 3 6 6 3 15 16 13 14 7 7 2 6 4 10 9 10 8 11 6 16 9 7 3 7 15 17 15 13 12
14 14 14 13 12 11 9 9 7 5 5 5 5 6 7 4 7 8 5 3 9 15 11 7 13 7 3 4 6 7 7 8 5 10 5 6 12 8 2 10 14 15 13 12 10
14 13 13 13 10 9 8 7 6 5 5 4 6 3 6 4 5 1 4 1 5 11 10 3 7 7 6 8 7 7 8 11 9 4 8 7 11 7 4 11 12 12 13 12 10
14 13 12 11 9 7 7 6 5 5 6 4 6 3 5 2 2 1 2 2 2 12 9 3 4 6 6 9 9 9 8 13 13 4 7 7 7 6 6 11 12 12 12 11 10
14 12 11 9 9 7 8 7 2 4 11 7 1 5 3 6 3 3 2 1 8 5 2 7 5 7 11 6 3 5 7 12 8 4 5 5 7 5 6 10 12 12 12 12 11
14 13 10 9 9 11 14 9 5 2 4 13 15 12 12 8 2 5 3 7 6 6 6 6 5 3 6 5 5 6 10 8 6 3 4 9 7 6 5 6 8 11 12 12 10
15 13 11 10 11 15 19 14 3 3 4 4 9 7 4 6 4 3 3 1 1 8 9 8 7 3 6 6 6 3 6 10 5 7 2 10 7 8 4 6 7 8 9 10 11
16 15 13 10 11 16 17 6 9 5 4 6 5 4 4 4 5 2 5 5 3 4 2 5 3 4 7 5 2 6 3 9 12 13 8 8 8 10 8 7 9 12 13 15 17
18 17 14 16 8 16 7 7 5 5 6 7 6 4 6 7 5 3 5 2 2 4 5 3 6 7 6 3 2 3 7 10 8 7 5 11 8 9 9 11 14 15 16 17 17
20 19 16 21 16 15 8 3 8 4 4 7 7 7 8 4 2 4 3 5 6 3 4 5 2 2 3 5 2 11 12 8 4 3 6 3 8 8 10 17 16 19 18 19 19
22 22 23 25 12 14 8 10 4 6 3 7 12 7 8 5 4 3 7 7 5 8 8 6 4 5 5 10 8 7 10 5 6 5 7 1 6 12 4 5 19 22 22 22 21
24 24 24 28 15 9 12 5 6 3 7 2 6 8 10 5 3 3 8 8 2 5 8 9 6 5 2 3 5 9 7 4 5 6 6 3 7 3 1 7 16 24 25 24 22
25 24 28 30 21 11 7 6 7 5 6 8 8 13 6 5 3 5 3 5 2 1 3 5 3 4 2 2 2 5 7 3 2 0 4 6 6 10 4 8 16 25 25 25 24
28 25 28 27 25 17 6 7 5 3 3 7 13 10 13 10 8 7 8 3 4 1 2 4 4 2 5 2 7 3 8 3 3 3 5 3 7 6 7 11 16 23 26 26 24
21 12 20 25 18 12 9 10 5 6 6 8 8 6 10 9 7 8 7 4 3 4 1 5 2 5 3 6 6 4 4 1 1 2 3 3 1 3 1 9 16 24 27 27 25
18 8 22 25 12 11 11 6 5 5 4 6 4 5 11 10 8 8 9 1 4 4 5 3 2 4 6 3 2 3 4 7 4 4 0 2 4 3 1 3 12 20 25 24 23
21 13 21 29 9 7 5 6 5 5 5 7 7 3 2 7 5 5 6 2 4 5 5 6 4 4 5 5 4 7 7 4 5 1 6 3 2 3 3 5 10 17 20 23 23
20 9 10 15 8 15 12 12 9 3 3 3 4 3 6 4 1 6 7 3 3 3 3 4 3 5 8 0 1 6 11 11 9 4 4 9 9 8 7 7 9 15 20 24 25
15 10 17 10 11 14 16 12 14 5 4 5 3 5 7 5 4 5 5 5 4 5 3 3 5 4 1 1 3 4 9 14 15 13 8 7 11 8 7 9 11 11 16 21 24
12 8 12 23 18 12 12 11 16 7 5 7 6 8 6 6 6 9 9 7 4 6 5 1 3 2 4 2 2 7 10 12 16 15 16 17 18 13 10 7 10 14 18 22 24
12 15 23 6 11 14 10 13 14 11 1 1 7 7 5 4 5 9 8 9 6 5 5 3 5 4 2 1 2 6 15 17 12 13 14 13 13 5 7 10 13 15 19 22 24

GFSSW_850_spd_015.txt.gz
Wind_Speed
17 18 18 18 21 21 23 24 25 22 20 18 16 14 15 14 16 19 18 9 7 12 7 10 16 14 11 14 13 12 10 15 10 13 12 18 14 11 5 2 13 3 1 14 17
18 18 18 18 19 21 22 23 23 21 19 16 14 13 12 14 17 21 9 10 13 16 10 17 18 16 16 14 13 12 13 13 10 9 16 11 6 9 4 1 11 7 10 17 18
18 18 17 18 19 20 20 22 22 18 17 14 12 12 10 12 13 2 5 7 13 15 12 13 12 15 17 12 15 17 14 1 13 9 15 13 8 14 5 7 12 13 21 20 18
17 16 16 17 18 19 19 20 18 16 15 12 10 10 8 8 4 8 6 6 15 17 11 11 13 15 13 11 17 12 9 7 7 13 13 14 14 22 17 20 36 20 23 20 19
17 16 16 17 17 18 18 18 16 14 12 10 8 8 7 6 11 6 0 9 16 17 12 12 13 14 10 13 14 10 7 2 2 5 10 14 20 7 14 13 20 25 21 20 18
17 15 16 16 16 17 17 16 14 12 10 7 7 6 6 11 1 1 3 11 11 13 12 12 7 9 9 12 13 11 7 6 7 7 5 10 9 13 9 16 22 22 21 19 18
17 14 15 15 16 16 15 14 12 11 8 5 5 6 9 15 0 3 2 8 12 13 11 11 7 7 4 7 5 6 8 11 11 13 8 12 8 11 10 17 20 19 19 17 17
17 14 14 14 15 15 13 11 10 9 6 4 5 6 9 5 5 8 8 7 12 13 11 6 10 10 9 2 7 10 11 13 13 12 6 14 14 9 11 18 19 20 18 17 15
17 15 14 14 14 14 11 7 8 7 5 4 4 4 7 6 5 4 10 4 7 11 9 6 7 11 8 11 9 8 7 9 10 13 11 15 17 12 13 14 17 17 18 16 16
17 15 14 13 13 12 7 4 5 5 6 6 6 6 9 7 3 3 6 8 7 11 8 6 10 8 10 10 8 7 12 14 13 10 12 10 15 11 15 16 17 19 18 17 16
17 16 15 13 13 9 5 2 3 4 11 13 2 8 3 3 4 5 7 6 9 12 7 7 6 8 7 9 9 13 9 12 14 6 10 9 11 13 14 16 17 17 17 17 15
17 16 14 13 12 10 11 8 6 4 8 18 18 14 12 4 6 7 6 7 7 10 12 8 16 10 6 5 5 5 6 12 7 9 9 9 10 10 13 16 16 17 16 17 15
19 17 14 14 12 15 15 16 3 6 7 12 15 12 7 9 12 12 11 13 8 13 12 10 3 5 6 8 8 5 9 11 12 12 14 11 13 12 10 11 11 15 17 16 16
21 18 16 13 10 10 14 12 9 9 5 11 10 9 8 8 10 5 7 4 4 5 5 3 9 5 3 5 3 10 3 10 3 9 14 16 13 21 17 16 14 16 14 15 16
22 19 18 13 6 11 4 5 6 4 5 17 14 8 8 12 9 11 7 5 12 6 7 11 10 12 11 3 5 12 7 6 7 12 5 15 9 15 13 15 15 16 17 17 18
24 21 19 21 22 14 5 5 5 5 7 8 10 11 11 13 8 14 12 8 4 6 11 13 1 3 5 2 3 4 5 6 7 10 7 16 12 14 15 15 16 18 19 20 21
25 23 24 23 9 11 11 8 6 9 7 12 16 14 15 11 10 11 16 14 11 11 11 9 8 4 6 6 5 9 9 8 8 8 10 3 6 12 7 7 14 20 23 22 22
26 25 26 25 12 9 11 8 12 14 13 4 15 14 13 10 11 11 16 17 17 13 10 12 9 12 9 10 4 9 13 9 6 6 10 7 7 3 10 3 6 22 22 23 24
26 24 28 32 24 13 14 10 14 9 11 10 12 13 14 10 6 12 14 16 15 13 13 8 6 6 2 3 7 7 8 7 5 3 7 12 16 11 6 5 9 20 23 25 25
24 25 30 31 29 12 10 15 20 3 6 12 16 16 15 15 11 14 12 5 6 5 6 1 3 3 5 5 5 8 3 4 5 4 9 5 5 5 6 6 10 17 23 25 25
21 12 20 28 26 14 12 16 17 10 9 12 17 13 14 13 14 15 10 8 6 8 6 6 7 7 4 10 11 7 10 7 4 2 4 4 2 7 3 2 9 15 22 24 25
26 11 21 32 17 19 15 22 12 11 10 9 7 9 12 12 13 11 13 6 8 8 10 6 5 5 13 5 5 10 8 10 5 6 2 3 7 3 4 3 8 11 18 21 24
31 18 21 32 13 13 19 22 14 11 12 12 11 9 9 11 10 12 11 6 6 8 5 6 7 8 7 6 7 9 11 9 4 1 8 3 3 6 6 4 6 11 17 22 25
29 10 13 19 31 18 24 19 17 9 9 13 11 10 11 8 6 8 8 4 5 5 0 1 11 10 10 6 2 12 13 12 13 7 9 10 13 7 10 7 7 10 15 21 24
32 14 21 16 21 21 20 19 22 12 11 14 11 15 12 8 9 8 9 6 6 6 6 4 7 12 14 6 6 8 10 13 17 16 13 12 13 8 7 7 8 9 12 17 21
23 22 28 28 33 20 20 22 23 18 15 14 10 15 12 9 11 10 11 9 7 10 8 5 4 2 5 8 8 11 12 14 14 17 17 17 16 15 12 6 9 8 11 15 19
24 19 31 26 22 18 17 20 22 15 3 4 11 9 10 6 8 11 9 4 3 7 10 5 4 4 4 3 4 6 16 16 16 16 14 16 15 9 3 5 10 10 10 14 17

GFSSW_850_spd_018.txt.gz
Wind_Speed
18 18 18 18 19 20 22 24 25 24 24 22 19 18 17 16 17 19 22 9 6 11 8 5 13 13 11 16 18 18 12 14 17 12 5 10 1 10 15 9 2 5 3 15 16
18 18 18 19 19 20 22 23 24 24 22 21 17 15 14 17 20 21 9 8 11 8 11 9 13 13 16 15 20 14 11 17 15 13 8 3 17 7 3 20 11 12 34 16 19
18 17 17 18 18 19 21 22 24 22 20 18 14 12 11 15 14 2 9 8 8 11 11 9 11 13 15 19 18 18 15 15 5 12 20 27 7 19 7 3 19 7 22 19 18
18 17 17 17 18 19 21 21 23 21 18 15 12 10 10 9 3 9 10 4 7 12 12 14 14 13 16 16 15 15 20 16 11 11 10 11 23 9 2 9 6 7 15 18 17
18 16 17 17 17 18 19 21 21 18 15 13 10 9 8 6 11 7 5 1 9 15 10 11 12 12 15 14 11 14 15 2 13 13 16 26 17 8 7 11 6 13 14 17 14
18 17 16 17 17 17 19 20 19 15 12 10 8 8 7 10 2 5 4 3 7 13 8 10 9 12 15 12 11 10 15 5 7 25 9 22 7 17 17 15 15 16 17 16 16
18 17 16 17 17 17 18 18 16 13 10 7 7 8 11 14 2 2 2 5 8 10 7 8 9 7 8 4 6 4 5 3 2 6 10 10 20 6 37 28 26 23 19 17 17
18 17 16 16 16 17 17 16 14 9 6 5 6 7 10 4 8 8 7 7 10 11 12 6 7 11 13 13 3 7 11 4 4 8 10 14 11 10 22 22 22 22 18 15 15
19 17 16 16 16 16 16 13 10 7 4 3 3 5 10 4 9 8 11 9 8 12 11 7 6 12 13 8 9 8 6 9 13 13 4 7 15 14 17 12 24 23 20 21 16
19 18 16 15 15 15 13 10 8 6 4 5 6 6 13 9 7 4 6 7 6 8 7 8 6 7 9 8 6 5 5 11 13 11 15 10 14 13 14 27 15 20 17 15 16
19 18 16 15 14 13 9 6 7 3 11 11 4 11 9 4 6 7 8 8 5 11 9 11 6 6 7 10 2 8 14 19 12 11 9 10 15 15 18 14 16 21 27 24 18
19 18 16 15 13 12 11 7 6 6 11 18 21 17 16 7 8 12 12 11 11 6 2 4 6 8 15 10 15 13 9 8 9 6 7 10 11 15 15 18 20 19 27 23 24
20 18 17 14 13 15 16 20 3 16 7 13 22 20 16 14 17 15 12 11 3 6 7 4 13 21 15 17 15 11 5 8 9 7 9 6 11 16 15 19 19 20 19 20 24
21 19 17 12 10 10 15 8 8 5 5 10 17 16 17 11 18 18 18 11 9 6 4 3 24 15 11 11 12 8 12 5 7 11 7 5 8 10 7 14 15 18 21 20 23
22 20 18 13 7 8 6 3 4 6 4 13 19 18 17 18 17 12 8 9 6 10 7 6 10 11 8 5 9 4 15 10 16 9 5 9 9 10 11 11 15 18 19 19 19
25 22 19 20 20 15 3 5 7 5 6 8 15 11 15 16 20 16 17 12 10 6 12 6 15 19 13 12 10 11 10 14 10 10 2 15 10 11 10 19 11 18 16 16 18
26 24 24 19 9 8 9 5 6 7 8 10 14 15 16 15 15 13 17 16 9 9 10 5 16 6 11 9 5 8 9 5 8 5 8 8 9 8 20 10 12 19 23 20 19
28 24 26 25 15 4 9 6 12 13 20 5 14 16 18 15 16 15 13 17 18 17 8 6 13 12 8 11 7 19 10 3 7 4 9 3 5 2 21 21 42 37 25 24 22
29 25 29 30 22 9 11 11 11 13 20 10 14 13 17 16 10 14 18 17 19 18 6 5 4 17 7 5 4 6 7 7 2 14 6 3 13 10 9 9 1 25 24 24 24
31 19 32 30 27 12 7 18 18 21 10 13 15 16 16 15 10 12 14 16 16 8 28 10 7 22 8 5 5 6 8 3 2 2 4 8 10 5 5 4 2 10 19 22 23
24 11 19 29 28 14 12 18 21 29 9 8 16 16 17 13 14 13 10 11 5 7 5 7 16 6 6 8 9 6 7 7 6 3 1 3 3 6 7 6 4 6 20 22 25
28 8 22 34 17 18 14 22 29 25 12 9 12 16 15 14 15 13 14 8 12 9 5 8 4 4 9 2 4 8 10 12 3 5 2 1 6 3 5 4 2 6 12 23 26
29 19 32 36 13 12 19 25 28 24 15 15 11 14 11 12 10 12 8 5 5 3 1 3 3 4 8 8 7 8 11 9 4 3 5 3 4 4 4 1 2 5 8 14 22
26 10 15 29 27 20 22 21 25 30 16 16 15 13 8 10 8 9 7 3 3 2 4 4 5 8 6 10 5 12 12 11 11 3 3 8 13 8 10 9 9 9 7 11 17
21 14 15 13 19 20 20 20 24 18 19 20 16 18 11 9 11 8 8 7 4 2 2 2 7 11 13 15 3 12 9 10 13 10 10 10 14 12 8 5 1 2 11 9 13
18 17 26 17 29 21 20 26 26 21 17 13 12 12 14 10 11 10 11 8 7 7 7 4 1 4 3 10 14 12 15 13 15 13 13 15 14 12 9 11 11 7 6 5 11
33 24 23 22 21 19 20 23 26 19 21 19 18 14 16 7 11 12 16 10 4 9 9 6 3 2 2 5 7 6 9 16 15 15 11 11 10 9 6 2 4 6 8 4 10

GFSSW_850_spd_021.txt.gz
Wind_Speed
16 17 17 18 18 19 21 23 23 24 25 25 22 19 18 17 15 17 16 9 7 6 10 5 4 10 8 18 19 19 1 8 6 4 3 2 2 3 8 11 6 6 7 17 15
17 17 17 17 18 19 20 22 23 24 25 23 20 17 16 17 18 9 8 7 8 6 7 7 4 5 8 12 12 5 2 6 3 5 4 7 18 4 1 16 10 14 15 13 22
17 17 16 16 17 18 20 22 23 23 23 21 17 14 14 15 10 3 14 9 2 5 7 8 8 11 15 20 24 13 8 5 4 4 7 1 2 5 3 7 11 16 9 19 23
18 17 15 15 16 18 20 21 23 23 21 19 14 12 12 11 2 7 12 8 4 7 9 9 12 15 8 7 24 4 20 10 15 17 8 7 8 6 6 9 29 28 17 18 21
19 18 15 14 15 17 19 20 22 21 19 15 11 10 10 7 7 7 8 4 6 10 11 9 10 16 8 7 17 7 4 16 15 23 4 4 3 6 18 16 24 19 20 17 22
19 19 16 14 15 16 18 19 21 19 16 12 10 9 8 7 3 6 6 1 5 10 7 9 11 13 17 14 7 5 9 24 18 24 16 9 6 4 6 9 19 23 23 23 22
19 19 17 15 15 16 17 18 18 16 12 10 9 9 11 15 5 8 9 2 6 8 6 6 12 14 19 9 23 8 5 2 14 26 9 15 4 6 8 22 20 18 22 24 22
19 19 17 15 15 16 16 17 16 12 10 8 6 8 9 2 9 9 10 3 1 5 12 12 13 10 9 15 13 4 3 1 3 20 13 7 5 12 20 23 21 25 20 20 24
20 19 18 16 16 16 14 15 13 11 9 7 3 6 11 4 10 5 13 9 12 10 7 10 11 3 10 4 5 2 3 3 3 14 6 6 5 17 22 17 10 19 19 24 24
20 19 19 16 15 15 13 13 11 10 9 9 8 8 11 9 6 4 12 10 11 6 9 7 4 1 4 1 3 3 1 7 9 7 8 2 5 16 29 28 20 15 12 20 24
20 19 18 16 15 14 12 10 7 2 7 12 5 10 5 7 9 7 10 9 9 8 3 11 2 4 5 4 7 7 6 6 7 9 7 8 9 16 24 29 32 27 14 24 26
20 20 17 16 15 15 13 8 12 8 11 18 23 28 22 13 4 13 16 10 7 4 0 2 3 1 5 12 9 7 11 11 6 6 4 5 7 10 25 21 35 28 25 23 21
21 20 17 15 14 15 15 17 8 12 4 14 19 22 20 10 10 18 19 17 5 6 4 3 5 7 7 13 12 1 2 5 5 3 1 5 2 4 7 16 28 36 25 32 31
24 20 18 11 11 9 7 4 8 5 3 6 13 16 15 21 13 20 19 12 2 1 3 3 8 2 8 14 9 5 2 3 2 2 2 5 2 4 4 4 8 28 34 35 37
27 21 20 12 7 8 4 3 5 3 3 6 13 7 15 18 2 13 22 19 6 4 3 7 5 5 7 8 4 5 5 1 3 1 4 4 2 5 3 4 3 6 24 32 44
30 24 21 19 22 8 1 7 6 1 6 3 12 10 11 18 18 20 10 7 18 8 4 7 13 3 4 6 2 6 3 3 4 3 1 4 5 4 7 20 5 7 10 13 40
32 26 25 21 18 10 9 4 2 4 5 6 15 10 12 8 10 8 8 6 5 4 2 6 8 2 5 6 6 1 4 3 4 5 3 15 0 9 16 12 10 15 23 13 29
34 26 27 26 19 9 11 2 8 10 11 2 10 11 10 8 9 10 7 8 10 6 4 5 5 4 5 5 5 3 6 4 5 1 5 7 5 5 15 25 26 29 25 17 28
32 28 30 29 25 11 8 9 8 6 12 4 9 8 9 11 8 9 8 8 10 9 7 4 1 6 9 8 2 4 2 6 6 3 2 5 6 5 9 5 11 17 22 24 27
31 33 37 30 27 17 6 12 6 16 10 7 8 8 8 12 10 11 9 9 9 12 11 5 3 2 9 20 15 3 3 4 3 5 4 4 3 3 5 7 10 11 18 29 27
29 18 25 32 27 16 13 10 13 29 18 6 11 8 9 7 16 6 8 9 9 6 12 5 5 5 5 8 9 1 2 3 3 5 4 1 4 3 5 5 9 17 31 35 34
24 9 20 36 11 10 15 11 13 22 23 14 4 7 8 6 5 9 9 1 11 20 13 12 6 5 13 11 8 4 6 5 5 4 2 4 5 3 7 5 9 12 30 37 38
14 13 29 41 12 12 7 14 17 21 18 8 2 3 2 5 3 8 3 4 8 3 5 3 0 3 8 5 5 4 5 4 4 3 5 5 5 1 6 5 4 7 8 33 37
15 9 16 29 32 19 18 17 21 23 21 25 7 8 5 5 15 7 3 1 4 5 6 5 2 6 6 7 3 3 4 5 5 4 3 5 5 11 7 8 10 9 6 16 34
16 13 16 13 18 15 19 14 19 15 21 17 7 9 7 5 2 7 5 4 3 5 3 5 4 1 3 5 5 2 4 6 5 6 7 8 7 11 1 4 7 18 13 7 8
12 16 25 6 24 16 20 21 22 19 15 17 8 11 8 5 6 7 8 4 5 1 3 1 1 2 2 6 7 4 7 7 7 5 2 3 6 5 12 14 13 12 8 7 4
25 24 24 14 18 16 22 23 20 17 16 22 11 5 6 4 10 10 13 17 8 7 5 5 5 3 3 4 6 6 7 6 6 5 3 5 6 5 8 12 14 13 15 6 3

GFSSW_850_spd_024.txt.gz
Wind_Speed
15 15 17 17 18 18 19 20 20 21 22 24 22 20 19 19 16 15 9 7 7 4 8 6 3 6 6 5 6 8 1 2 4 2 3 4 6 8 5 13 9 5 9 26 25
16 16 17 17 16 16 18 19 20 21 22 22 20 18 18 18 16 2 10 8 7 4 2 4 4 6 4 4 2 4 3 5 3 3 1 4 3 3 3 10 11 24 30 30 29
16 17 17 16 15 16 17 18 19 21 21 20 18 16 16 15 8 4 12 9 3 4 6 7 5 1 4 4 4 4 5 4 2 6 9 5 1 2 11 1 10 27 27 32 31
15 17 18 16 15 15 16 18 19 20 19 18 15 14 15 11 2 5 8 7 2 7 9 6 5 4 4 3 5 3 11 11 9 12 9 6 5 2 9 5 21 26 29 33 32
16 16 17 16 15 15 16 17 18 19 17 15 13 13 13 8 5 6 7 4 3 10 10 7 3 2 3 4 4 6 4 16 15 14 8 11 3 6 9 24 29 24 26 27 22
17 16 17 16 14 15 16 17 17 18 15 13 12 12 11 5 2 4 11 1 5 9 6 6 5 13 9 6 4 18 14 11 11 14 7 6 8 5 13 22 20 25 23 27 27
18 17 17 16 14 15 15 16 17 16 13 11 11 12 14 12 3 4 6 2 3 8 6 5 12 9 8 6 13 3 9 5 5 12 4 8 3 7 23 17 18 21 24 29 26
21 17 17 16 15 15 15 15 17 15 12 10 9 12 10 4 9 11 6 3 4 3 6 7 11 9 3 11 11 2 5 5 9 5 6 7 2 3 23 25 21 21 24 30 32
22 17 16 16 16 15 15 15 17 13 12 9 8 8 10 10 12 9 14 9 5 4 5 10 10 4 4 3 5 5 2 4 3 13 2 1 4 5 20 26 23 24 26 26 32
22 19 17 15 15 15 15 15 16 13 13 9 10 8 10 6 9 6 12 5 8 5 10 6 3 2 3 4 1 4 2 3 2 7 7 4 2 5 22 22 16 20 22 27 36
23 20 17 15 15 15 14 11 6 3 6 9 5 11 3 6 7 10 10 12 10 5 3 2 4 3 6 6 5 4 9 6 5 10 5 8 7 10 19 19 21 19 16 30 39
23 21 17 15 14 14 12 8 4 5 11 19 22 28 26 20 9 7 12 12 6 5 1 4 4 6 4 2 4 2 10 8 11 8 5 8 6 9 12 20 29 26 22 27 34
24 20 17 15 13 13 11 10 11 15 6 15 18 22 21 11 10 10 17 15 6 5 6 5 6 5 1 8 5 6 6 4 3 4 7 6 4 4 7 8 17 24 33 33 38
26 23 18 13 11 9 2 8 2 8 2 7 7 11 14 14 6 17 11 9 3 9 4 4 2 2 2 3 4 5 9 3 4 4 1 2 2 7 10 12 11 25 32 33 41
28 25 22 15 9 9 4 7 7 4 3 5 7 6 15 12 2 7 15 16 6 5 6 8 2 3 4 6 3 7 2 3 2 4 2 5 3 6 5 11 14 23 32 42 42
30 26 24 22 20 10 8 3 8 4 7 4 9 8 7 11 8 2 10 12 8 5 0 7 2 5 5 3 4 5 4 7 4 3 3 5 4 5 5 11 16 20 34 40 40
31 28 30 22 21 15 12 5 3 4 5 5 6 7 8 6 5 5 3 4 6 3 3 3 1 3 3 4 7 4 5 3 4 4 5 3 3 8 8 10 8 14 20 36 38
33 30 29 26 19 15 12 2 9 7 8 4 7 10 8 8 7 6 5 6 3 5 1 4 2 3 2 3 1 6 7 5 3 3 3 3 6 6 5 16 21 18 15 23 33
30 33 30 30 23 17 11 11 7 6 5 4 3 8 7 7 7 8 8 8 9 9 6 4 4 5 3 3 5 7 2 4 7 3 2 4 6 7 5 4 6 8 13 20 30
30 33 34 31 26 19 7 17 7 11 5 1 7 7 9 8 7 7 7 6 6 10 10 7 1 2 6 3 6 7 3 2 3 4 3 4 5 4 2 1 3 5 15 23 30
30 18 22 36 26 14 13 11 15 29 11 4 4 3 9 8 10 7 10 7 9 4 10 5 4 4 4 3 6 1 2 1 4 4 4 1 5 5 6 6 8 13 22 27 36
31 9 25 43 12 13 16 12 15 23 16 7 5 9 9 10 8 8 8 8 13 17 11 8 6 4 10 15 4 4 7 6 5 4 0 4 5 4 8 7 11 17 21 28 37
22 14 33 43 12 12 8 20 21 12 6 6 6 7 4 7 6 6 6 2 11 6 7 7 1 2 6 5 3 7 6 4 5 4 6 5 5 4 5 7 12 15 24 32 40
18 9 15 29 34 22 19 15 17 23 21 14 8 6 4 2 1 6 3 0 4 7 16 13 4 7 7 7 3 2 3 4 5 3 4 6 5 6 9 9 12 12 17 31 39
20 10 19 14 20 18 21 15 21 14 17 14 10 15 9 5 2 6 4 1 3 11 3 6 5 4 5 3 2 1 2 2 5 5 6 8 8 10 6 8 18 15 7 9 26
20 8 25 6 25 19 21 23 26 20 10 17 12 11 8 7 7 8 8 5 5 1 4 2 4 1 3 2 2 2 5 5 5 3 5 5 6 4 7 11 13 6 9 13 11
37 24 24 18 18 17 23 24 27 20 18 35 13 15 5 9 11 18 21 22 13 8 3 4 6 4 4 4 4 5 7 6 5 3 4 5 4 5 6 9 10 12 10 9 12

GFSSW_850_spd_027.txt.gz
Wind_Speed
13 14 15 17 18 16 16 17 17 19 20 23 23 21 20 19 16 13 7 9 7 3 6 4 2 7 7 6 6 4 3 0 4 3 5 1 4 6 5 8 6 4 12 24 21
13 13 15 16 17 15 15 16 16 18 20 22 22 20 18 18 15 1 9 10 8 1 3 6 6 8 4 5 5 4 4 5 5 3 3 4 4 7 5 9 8 19 23 24 19
14 13 14 15 16 14 14 16 16 17 19 21 20 18 17 16 8 3 9 9 5 4 7 9 8 4 1 2 5 4 4 6 8 12 5 5 7 3 12 2 10 24 26 23 23
16 14 15 15 15 14 14 15 16 17 19 20 18 16 15 11 0 5 9 6 3 8 8 7 3 2 1 3 3 2 11 9 7 8 3 1 6 6 2 1 20 25 23 24 19
20 17 16 15 15 14 14 15 16 17 19 18 17 15 13 7 3 5 7 3 3 8 9 6 3 1 3 4 2 5 5 11 17 7 3 5 4 6 13 22 29 30 26 20 23
23 22 17 16 16 15 15 15 16 17 18 17 16 13 10 6 1 2 7 2 1 6 7 3 2 9 10 6 4 3 4 2 9 5 7 6 3 4 12 27 31 34 27 19 27
24 22 19 17 16 15 15 15 17 17 17 16 15 14 13 14 5 5 3 4 2 5 2 2 8 8 9 6 8 4 4 3 3 2 4 19 3 6 27 24 30 32 30 26 24
24 22 20 17 17 16 16 15 17 17 16 14 13 13 9 3 12 9 3 3 4 5 5 3 9 11 5 9 5 2 4 3 1 7 1 3 3 4 27 24 23 28 27 26 26
22 23 21 17 16 17 17 16 17 16 15 13 12 8 9 8 12 7 11 7 6 5 7 6 7 3 4 3 5 5 2 1 4 9 2 2 3 7 25 23 24 24 27 26 26
16 22 20 18 16 16 16 16 18 15 13 13 13 8 9 3 4 8 9 13 11 7 7 1 2 2 3 4 2 2 3 3 2 2 4 4 4 6 24 23 22 22 25 27 29
19 18 20 18 16 16 14 11 9 5 5 9 2 7 12 4 5 9 10 12 12 4 1 3 5 3 3 4 1 3 2 6 4 6 7 10 7 10 19 19 13 20 27 30 33
21 20 17 18 16 14 13 7 4 3 9 16 20 27 26 25 8 5 8 11 8 5 1 4 2 5 4 2 4 8 5 9 8 3 10 7 5 1 6 16 23 28 28 35 35
22 22 17 17 14 15 12 5 9 10 6 13 17 20 22 14 9 11 14 13 4 5 5 5 4 4 3 3 3 4 4 6 5 2 5 6 4 3 3 5 9 22 27 32 36
26 24 17 16 15 16 4 3 7 8 3 6 6 9 14 9 5 17 15 14 2 10 6 5 2 1 3 2 4 5 3 7 4 3 2 3 3 4 6 10 6 20 27 31 40
28 26 21 20 10 8 7 4 12 5 3 4 5 3 18 15 4 12 20 11 8 6 5 7 6 3 4 4 4 8 5 1 1 3 5 5 4 7 5 7 14 22 30 33 35
27 29 22 24 25 11 8 3 4 5 7 4 9 7 6 11 4 4 14 12 8 4 2 4 2 3 5 3 5 4 2 7 4 3 2 2 4 5 5 17 19 29 27 39 36
25 29 29 28 27 17 13 5 1 4 4 5 6 7 6 6 5 4 5 6 6 4 3 2 2 3 1 3 3 7 5 3 4 4 4 2 1 8 8 11 10 15 30 40 41
24 30 32 30 27 15 12 4 10 7 7 5 3 5 9 6 7 6 6 5 3 2 3 5 5 5 2 4 3 2 4 4 3 2 3 3 4 6 4 12 16 20 27 29 37
24 31 35 33 29 16 13 11 7 6 5 4 2 5 4 4 6 6 8 8 9 8 7 4 4 1 3 2 2 2 1 3 6 3 3 3 6 10 6 2 7 9 13 19 27
27 30 34 36 32 23 7 19 8 6 3 4 9 5 8 8 7 7 8 5 6 10 7 7 2 2 3 1 2 2 6 1 2 3 3 4 4 5 7 3 5 5 13 15 19
25 15 24 35 31 15 13 15 17 22 3 3 3 4 8 8 10 7 8 5 7 5 7 6 5 4 1 4 8 1 2 2 4 5 4 1 6 6 6 5 6 4 12 17 22
28 8 25 40 13 13 15 7 8 22 12 4 4 5 5 8 8 9 10 10 13 15 9 8 6 4 10 4 4 2 2 5 4 4 1 3 6 5 8 6 8 14 8 12 23
22 16 31 43 12 14 9 18 9 9 10 7 5 6 1 6 5 7 8 5 15 9 9 8 2 2 7 5 3 3 5 4 4 3 6 5 6 3 6 7 12 15 16 14 18
14 8 17 35 41 18 20 14 22 23 14 2 3 3 2 4 3 7 6 2 7 4 15 16 4 7 7 8 4 2 3 4 5 3 3 6 6 7 8 8 11 17 19 16 19
16 11 17 15 24 20 20 14 22 14 21 13 5 7 2 3 1 4 3 2 4 11 2 4 5 4 3 3 4 6 5 6 6 5 6 8 8 9 5 7 14 14 13 13 18
14 8 23 3 26 26 18 23 25 24 9 11 15 7 12 9 8 8 6 4 6 2 4 2 3 4 4 1 2 4 7 6 5 4 7 5 6 4 2 0 6 8 7 8 4
36 18 15 19 20 18 30 24 24 17 21 14 21 13 6 13 20 19 12 14 13 10 5 5 7 4 5 1 1 6 8 8 7 6 6 6 8 3 2 6 10 16 14 13 11

GFSSW_850_spd_030.txt.gz
Wind_Speed
14 14 15 16 16 16 15 14 15 17 18 20 22 21 20 19 15 7 5 8 6 3 3 3 4 7 8 4 2 3 4 2 4 2 4 1 2 3 4 9 7 2 9 21 20
17 16 16 17 16 16 15 14 15 17 18 19 21 20 18 18 11 1 6 9 5 1 2 4 6 10 4 1 2 3 3 6 5 2 2 2 1 5 4 5 7 15 18 24 17
18 17 17 18 17 16 15 15 16 17 18 19 21 19 17 15 6 2 8 9 2 3 8 7 7 3 2 3 5 4 4 5 8 7 3 1 2 2 13 2 5 18 22 20 18
22 20 18 18 18 18 16 15 16 17 18 19 20 17 16 10 1 3 8 5 2 7 10 8 4 2 2 2 6 3 12 10 3 7 5 3 5 5 4 0 13 19 27 22 19
21 22 21 19 18 18 17 16 16 17 18 19 19 16 14 7 3 3 5 3 2 8 8 6 1 1 1 3 3 4 4 4 7 8 5 8 7 7 6 17 20 21 20 19 19
23 20 22 22 20 19 18 17 17 18 18 19 17 16 12 5 4 2 3 2 4 9 8 4 2 6 5 4 3 4 5 3 5 8 5 11 6 4 5 16 21 20 18 17 16
25 23 22 21 20 19 18 17 17 18 18 18 17 15 16 15 7 7 2 1 5 6 4 2 5 6 6 4 5 4 3 3 3 5 3 15 2 4 19 22 23 22 18 20 18
25 23 21 20 20 19 18 17 17 18 18 18 16 14 10 5 13 10 6 2 6 6 6 4 7 9 3 6 5 2 3 2 4 1 4 4 1 6 23 22 22 20 22 22 23
21 22 19 17 20 18 17 18 18 19 19 17 14 7 10 6 11 10 9 5 4 3 6 5 7 3 3 3 4 6 1 3 2 8 4 3 3 12 24 20 18 23 22 24 22
21 20 20 13 18 18 17 18 17 17 16 12 13 7 10 3 5 7 8 12 6 3 5 2 0 2 3 5 1 1 3 3 2 3 3 1 3 8 25 21 24 25 25 26 25
24 20 20 14 14 17 17 13 10 8 6 8 2 6 9 3 7 9 8 12 9 0 1 3 4 4 7 5 3 2 1 3 4 5 6 9 5 9 19 18 18 25 27 28 29
25 23 19 14 14 15 14 11 7 6 11 15 20 28 26 24 7 8 11 9 6 5 2 5 3 7 4 4 5 3 2 6 4 4 6 2 4 4 11 14 26 29 30 30 30
23 23 19 13 14 15 13 12 11 9 6 12 19 19 24 17 9 11 17 11 4 5 4 4 4 2 4 4 1 4 3 5 5 3 4 3 4 3 4 8 17 25 30 30 30
23 22 18 12 14 16 14 8 13 6 3 6 6 8 16 11 5 16 17 11 2 8 7 4 5 4 1 2 3 3 3 4 4 3 3 1 3 4 5 9 6 20 26 32 34
23 22 20 17 9 5 5 4 7 6 2 2 4 4 16 20 9 15 14 11 8 6 6 6 3 4 3 4 4 8 4 1 1 4 3 3 4 5 2 8 15 20 31 34 35
23 22 22 21 25 12 10 3 2 4 8 3 8 7 6 9 4 9 13 9 5 5 2 5 3 3 5 4 5 1 2 5 4 3 2 2 3 5 5 13 19 24 29 42 38
23 21 28 22 23 20 12 3 3 5 3 4 5 6 6 6 5 5 6 6 6 4 2 1 3 3 1 1 3 3 5 3 4 4 4 1 1 8 8 6 7 12 25 38 40
27 23 30 28 26 17 11 3 11 5 7 4 1 4 9 5 7 5 7 6 1 5 3 6 5 6 3 5 7 2 6 5 2 1 3 2 4 6 4 10 15 17 21 20 33
27 26 32 35 27 23 12 9 8 6 4 3 1 4 4 5 6 5 8 8 8 7 7 5 5 2 1 1 1 3 2 5 6 3 2 4 7 9 3 5 8 9 8 12 20
30 30 37 36 31 27 7 18 10 6 2 2 6 5 9 7 6 11 9 6 7 10 6 7 2 2 1 1 1 2 7 3 3 2 3 4 4 5 8 6 5 6 9 4 10
29 17 20 38 32 17 13 15 19 16 2 2 2 3 7 7 9 6 10 3 8 6 6 5 4 4 2 6 8 2 1 5 5 4 4 1 5 7 6 5 4 8 9 7 9
30 8 19 43 18 20 17 9 23 24 10 5 3 3 4 6 6 8 10 10 17 13 9 7 6 4 9 3 2 4 7 6 4 4 1 3 6 5 8 7 7 7 7 7 6
21 12 26 50 15 16 16 20 8 15 15 7 6 6 2 2 3 6 7 7 16 8 9 8 1 1 7 4 2 4 5 4 5 3 6 5 6 3 6 8 12 10 8 9 8
18 6 16 36 45 20 22 18 24 15 6 11 3 2 1 3 4 4 7 4 15 12 10 14 4 8 9 8 5 4 6 5 5 4 4 6 7 8 9 7 12 14 13 12 13
24 8 16 15 23 21 21 14 22 18 18 15 4 6 5 4 3 4 2 3 3 7 5 7 8 5 5 4 5 5 5 9 7 5 6 7 7 9 8 6 10 13 14 10 12
12 9 19 6 29 24 18 24 25 26 10 15 5 10 7 4 6 3 2 4 6 4 5 1 5 5 4 1 1 4 6 6 5 4 5 6 7 8 5 4 5 2 1 5 3
31 20 11 20 20 19 29 21 21 17 25 13 21 10 4 17 27 18 14 10 4 6 8 8 7 4 5 2 4 6 7 8 5 5 7 7 10 5 1 2 3 8 13 16 16

GFSSW_850_spd_033.txt.gz
Wind_Speed
16 16 16 17 17 18 17 16 16 16 18 19 20 21 20 17 13 3 3 6 4 0 5 6 7 8 7 4 3 1 1 2 2 2 3 3 1 3 4 6 3 3 5 12 17
18 17 16 17 17 18 17 17 17 17 18 18 20 20 19 16 9 2 3 8 3 1 5 6 7 9 4 4 4 2 1 3 4 1 1 1 1 5 4 4 4 10 13 20 18
21 19 18 17 17 18 18 18 17 18 19 18 19 19 17 14 1 1 5 5 0 3 8 7 8 6 3 3 6 4 5 4 5 7 3 1 3 3 7 3 9 19 26 25 21
22 21 20 20 18 18 19 19 17 18 18 18 19 18 16 8 2 1 5 2 5 8 11 11 7 2 2 4 6 3 8 7 3 3 3 3 5 3 1 4 1 18 22 22 20
24 22 21 20 20 19 19 19 18 18 19 18 19 18 14 7 5 3 2 3 7 11 10 8 4 2 2 3 2 5 6 5 5 5 3 6 3 3 6 8 12 16 19 17 17
26 24 22 20 20 19 18 18 19 19 19 18 18 16 12 5 5 4 2 5 8 12 10 6 1 3 3 4 3 3 3 2 3 7 4 6 3 3 6 11 12 16 17 16 16
22 25 24 21 20 19 18 17 17 19 20 19 18 17 15 15 8 8 4 6 9 10 7 2 1 3 4 3 4 2 2 3 4 4 3 7 3 3 11 14 12 15 13 17 15
20 21 23 22 20 17 18 16 18 19 20 20 18 17 10 7 13 12 8 5 9 11 7 3 2 7 2 6 4 1 3 2 2 3 1 1 0 2 10 14 13 16 15 18 17
20 20 20 20 19 17 18 15 18 21 21 19 15 9 9 6 12 13 11 5 8 7 5 4 3 3 1 2 2 6 1 0 2 11 6 3 2 9 12 13 13 11 19 18 18
21 19 19 18 18 16 16 14 19 20 19 14 13 6 13 6 9 10 12 12 5 6 4 3 2 1 2 1 2 2 1 2 2 5 3 6 3 12 17 16 18 16 15 18 21
24 20 20 17 14 13 13 11 11 6 7 10 4 5 4 4 8 10 12 13 11 5 3 1 2 6 7 5 5 3 2 2 3 1 4 7 7 14 20 16 15 16 17 19 23
26 24 19 16 14 12 11 9 7 8 12 18 22 30 26 14 4 10 13 11 7 4 4 1 5 5 4 3 5 2 2 2 2 3 5 4 5 7 18 23 21 18 19 23 22
20 22 20 14 14 14 12 12 11 8 6 13 21 21 26 19 12 14 19 11 5 6 6 4 3 5 4 4 5 5 2 2 4 1 2 1 6 5 9 16 17 19 21 23 24
23 18 17 10 13 13 13 8 8 6 3 7 5 9 16 12 7 15 22 14 3 10 7 4 2 4 4 5 4 2 4 1 1 2 1 4 2 2 5 13 14 22 23 30 30
25 19 17 17 9 6 5 1 1 7 4 2 4 2 11 17 13 17 23 10 8 7 6 4 4 4 4 5 4 4 2 2 1 2 2 2 1 1 3 11 19 24 27 32 34
28 23 16 24 22 13 10 6 3 2 7 3 7 6 5 8 4 11 11 9 7 5 1 4 2 4 5 3 3 3 2 4 3 2 2 2 2 3 4 6 8 27 28 35 37
29 24 23 25 25 20 13 3 3 6 3 3 4 5 6 3 3 3 9 8 7 5 4 0 3 2 3 3 2 3 2 2 1 1 2 3 2 7 6 9 9 12 23 35 42
29 26 24 31 20 18 15 3 10 6 10 2 1 3 9 5 4 2 10 10 2 5 4 6 3 6 4 4 5 4 5 4 3 3 2 2 4 3 4 7 13 16 19 17 27
27 29 29 30 29 20 17 9 8 7 5 3 1 3 4 4 6 3 6 13 10 7 6 5 4 1 1 3 3 4 3 2 6 1 2 1 4 8 2 3 3 0 5 11 15
32 31 34 29 33 27 9 18 10 8 4 3 8 5 9 6 6 11 7 5 7 8 6 7 2 1 2 3 4 2 7 2 1 2 2 2 3 4 4 3 5 6 5 5 5
35 17 19 30 31 23 14 13 17 11 7 3 3 3 4 6 8 6 9 2 7 8 4 5 3 1 1 4 7 3 3 3 3 2 3 2 4 6 6 3 4 6 6 4 4
25 7 17 27 21 14 20 12 8 17 11 3 2 2 4 5 6 7 13 10 19 16 10 6 4 4 7 0 2 3 5 5 3 4 0 0 5 4 8 6 7 11 6 3 3
15 14 23 39 14 15 19 24 9 9 13 7 7 5 1 0 3 6 6 6 19 9 10 7 2 2 2 2 2 3 4 3 5 3 7 4 5 1 5 6 7 13 10 6 3
17 9 16 37 45 24 19 18 26 16 11 12 3 3 1 2 2 2 5 3 15 8 13 19 4 6 10 8 4 4 6 7 5 3 4 6 9 8 9 7 12 12 12 11 9
20 8 11 14 21 22 20 17 24 14 19 18 7 8 4 5 2 4 2 2 2 7 6 5 7 6 5 5 5 6 6 11 9 6 7 8 9 9 7 6 8 11 11 8 5
15 9 16 15 39 26 17 21 25 26 15 17 14 16 14 4 8 5 5 2 3 1 7 2 4 5 4 3 5 4 7 10 9 3 8 7 8 10 6 7 4 3 2 4 5
27 29 26 21 20 18 26 19 18 17 21 15 11 5 13 22 16 8 10 7 5 4 3 4 7 4 4 1 3 5 7 11 5 5 6 8 12 4 5 5 5 8 12 15 17

GFSSW_850_spd_036.txt.gz
Wind_Speed
17 15 16 15 15 15 15 16 17 16 17 17 19 21 21 19 14 2 1 2 1 1 6 8 8 6 4 4 3 4 5 1 2 6 9 3 3 1 1 3 2 1 1 8 15
19 16 17 16 16 16 15 16 17 18 18 18 18 20 20 19 12 4 3 3 2 3 7 8 9 10 5 5 4 7 4 2 3 6 8 4 4 3 4 5 3 6 9 15 15
21 21 21 18 17 18 16 16 17 18 18 19 19 19 19 16 6 4 3 3 1 4 8 7 10 8 5 3 5 1 4 5 5 6 8 5 3 2 2 5 1 10 16 16 13
24 24 23 21 21 20 19 18 17 18 18 18 19 19 17 10 3 4 3 3 5 8 10 10 8 7 3 4 2 7 6 8 8 5 4 3 3 2 4 5 1 16 18 17 15
23 25 25 23 22 20 19 17 17 18 19 19 18 19 16 7 8 7 3 5 10 13 10 7 6 4 3 2 4 8 8 9 7 4 1 1 2 3 5 10 14 15 15 16 14
18 19 22 24 23 22 20 17 15 17 19 19 19 18 14 10 7 7 5 8 12 14 9 6 2 2 2 4 4 4 7 3 3 2 2 2 2 3 8 11 12 11 10 10 13
18 18 16 19 23 22 21 19 16 16 18 19 20 20 17 17 8 10 8 9 14 13 8 6 2 3 2 3 2 4 5 4 5 1 1 4 6 7 14 12 13 13 12 9 9
20 19 17 16 18 20 21 19 16 17 19 19 18 17 11 13 12 15 12 9 14 14 9 5 4 5 3 3 5 5 8 4 13 6 3 8 8 10 14 14 13 12 13 11 9
22 22 19 17 15 17 18 18 16 17 20 19 14 8 9 10 15 17 15 6 12 13 11 6 4 5 4 6 7 6 2 2 10 9 2 10 4 13 14 14 14 13 14 13 11
23 22 20 19 15 16 16 14 14 18 18 13 11 6 12 5 7 14 19 12 7 10 6 8 7 8 7 8 7 4 2 6 6 11 10 8 5 12 16 15 15 13 16 15 16
22 22 20 18 16 14 14 9 8 4 7 10 5 6 3 3 10 11 18 16 10 12 11 9 9 11 10 8 2 3 3 4 2 4 7 10 10 10 16 16 16 16 16 17 17
20 21 20 15 15 13 12 5 5 7 12 18 18 23 23 6 4 11 15 15 14 15 9 6 11 7 4 8 7 6 5 5 2 1 6 4 7 7 15 18 17 17 19 19 18
22 18 16 14 13 15 12 10 11 7 8 11 17 15 16 22 13 17 19 15 16 16 14 11 4 5 10 11 10 8 8 3 6 2 5 5 6 8 11 14 15 17 16 18 20
22 22 14 9 11 12 11 10 7 4 5 6 8 9 16 13 11 20 23 16 9 17 12 10 5 8 10 10 10 9 5 3 4 6 3 3 3 7 9 13 16 20 21 22 22
22 22 18 15 8 8 6 6 8 6 6 4 5 6 10 23 15 21 25 16 16 10 8 9 11 11 10 10 11 5 4 1 3 4 4 5 7 8 5 10 16 23 25 25 26
31 23 22 17 19 14 11 13 8 5 9 4 7 9 9 17 10 22 21 13 13 11 12 5 2 6 6 5 9 7 5 2 3 3 6 4 5 3 8 6 5 14 25 27 28
35 27 25 20 18 12 15 7 6 11 3 7 6 8 13 12 13 17 22 22 16 16 15 12 12 4 5 9 7 9 8 6 7 6 7 3 6 10 3 4 7 9 11 25 30
28 34 26 26 21 17 15 6 13 12 19 2 4 9 11 15 14 17 23 22 23 20 12 13 13 13 10 11 8 13 11 5 4 5 3 3 5 1 2 6 10 12 14 12 18
25 37 29 30 28 17 15 14 17 18 14 18 8 6 10 12 8 15 21 25 24 20 15 14 14 3 5 6 11 7 9 2 1 2 4 5 6 11 3 3 3 4 4 10 14
27 31 33 27 32 27 9 23 19 16 13 13 22 12 10 15 13 15 17 21 24 22 19 8 11 5 6 6 3 5 10 6 4 6 7 5 6 4 4 2 0 2 2 2 4
27 15 21 30 33 16 8 26 31 21 18 14 13 13 10 11 19 17 14 5 23 21 19 12 9 6 6 11 13 6 7 3 2 3 5 5 5 3 6 3 5 2 4 5 3
30 10 16 37 17 8 13 31 38 28 23 12 8 11 12 11 12 19 20 15 21 25 22 18 11 10 12 3 5 9 10 13 7 7 3 3 7 6 8 5 8 6 5 5 5
22 19 22 44 12 16 25 32 31 18 21 18 13 11 7 9 8 15 16 9 18 19 18 14 11 11 13 6 4 8 10 12 5 2 10 6 5 5 2 6 7 9 7 7 6
19 8 13 36 36 26 33 30 26 30 21 26 16 10 10 10 4 5 10 5 15 19 16 22 16 19 14 13 9 9 13 14 15 9 11 12 12 11 11 10 10 6 6 7 7
21 10 15 14 23 31 32 28 30 30 29 16 18 19 11 6 6 5 4 5 4 6 8 11 19 18 18 17 16 18 17 15 18 18 15 13 15 12 10 11 8 4 4 4 4
21 12 28 16 37 30 28 31 35 26 23 29 22 17 12 15 5 3 3 2 1 5 9 8 13 16 17 16 15 17 18 18 19 17 14 18 15 12 15 8 9 6 3 4 6
34 32 25 17 26 20 24 33 28 30 36 23 22 18 18 18 8 7 9 9 12 3 9 7 8 7 15 7 6 9 16 17 17 15 16 16 16 14 9 12 11 7 5 9 12

GFSSW_850_spd_039.txt.gz
Wind_Speed
19 17 16 17 16 15 15 15 16 17 18 18 18 20 20 22 17 9 3 8 7 5 5 6 8 8 7 10 8 7 10 4 1 4 7 4 4 4 1 3 2 7 8 8 14
22 22 22 21 20 20 18 16 17 19 19 19 19 19 20 21 17 10 11 8 6 4 6 8 9 9 14 9 6 11 10 4 6 7 9 6 8 8 4 4 6 6 7 9 12
24 24 21 21 22 23 23 19 19 19 21 21 20 19 18 19 12 3 11 6 5 6 6 9 8 10 15 6 9 4 10 6 5 7 11 12 4 0 4 5 18 8 9 10 9
22 24 25 23 23 22 23 22 20 20 20 21 20 20 18 11 5 3 6 5 6 7 7 8 11 12 13 7 2 8 5 7 10 8 10 6 6 2 5 5 6 8 11 11 9
19 20 21 23 24 24 22 22 20 19 20 21 20 18 17 9 16 12 8 6 8 8 9 10 11 13 11 3 5 8 8 9 7 5 5 3 3 2 8 8 9 11 10 9 11
19 19 20 19 20 22 23 23 20 19 20 20 19 18 11 16 7 11 8 8 10 11 10 9 9 6 11 7 9 5 7 4 2 3 4 7 5 10 11 11 11 8 8 7 12
20 20 20 19 18 19 22 23 21 21 21 19 18 18 14 23 6 8 9 9 11 13 10 9 7 10 5 10 6 9 11 10 2 4 6 6 12 11 14 12 12 13 13 12 6
21 22 21 19 18 18 19 18 19 21 22 19 18 13 12 10 9 13 12 10 12 13 10 7 8 11 13 7 12 13 13 15 2 8 7 18 12 16 15 11 10 16 17 14 11
20 22 22 21 18 18 17 15 17 19 21 20 15 6 11 14 13 16 16 11 12 13 10 8 8 15 11 13 15 11 6 14 3 12 7 10 14 17 16 11 12 12 11 12 12
20 21 21 22 18 17 16 14 14 17 18 14 10 7 17 9 9 14 19 14 15 13 11 11 13 13 14 13 13 10 8 3 9 15 9 10 8 13 16 15 13 14 15 15 14
20 19 20 21 18 16 14 11 9 6 9 12 7 15 3 7 8 15 21 17 15 17 15 18 13 15 19 15 17 9 6 4 6 7 9 6 12 6 15 14 16 17 16 18 18
19 18 19 21 16 15 11 6 8 6 15 21 27 27 22 5 9 18 23 20 20 18 19 16 14 18 14 8 9 12 11 11 2 4 7 10 12 11 16 16 17 17 16 18 18
20 19 19 16 16 17 13 12 8 6 9 21 27 31 25 25 19 24 28 28 20 20 18 15 12 5 7 13 14 15 15 8 7 4 10 11 14 9 14 17 16 17 19 19 21
26 19 19 14 12 9 14 11 10 5 7 14 9 12 28 26 23 23 30 29 16 21 19 14 17 7 12 16 15 16 14 5 7 9 5 10 3 15 14 14 16 20 20 22 22
20 26 19 16 7 6 1 7 8 2 7 1 13 3 9 24 9 32 29 32 23 20 14 16 13 11 15 15 12 9 5 7 9 10 5 12 8 11 8 13 14 19 24 24 23
23 26 23 18 16 16 6 5 10 7 15 6 8 9 11 26 27 18 33 34 26 20 17 18 16 15 16 14 7 11 7 12 10 11 8 12 9 9 9 10 15 21 23 26 27
23 22 29 20 18 15 14 8 7 15 4 15 9 12 15 15 24 18 27 27 22 22 22 20 14 15 9 8 11 10 13 11 10 8 9 5 4 10 2 5 2 5 15 27 28
24 23 24 28 19 17 17 7 17 20 28 4 7 11 14 16 22 21 24 26 28 24 14 17 19 20 15 17 13 17 17 10 5 7 5 4 6 6 3 7 5 9 11 13 28
25 24 25 32 24 19 9 13 26 27 21 28 7 11 15 16 14 22 26 27 29 25 21 17 20 22 18 15 16 14 17 16 9 7 7 6 7 8 6 5 4 2 5 10 17
29 26 29 29 28 24 6 17 26 27 26 14 27 11 15 16 18 24 25 25 28 29 20 10 13 13 13 10 13 13 10 11 8 7 11 13 11 2 7 5 4 4 2 3 4
32 16 18 31 27 19 12 25 26 34 30 25 22 25 19 13 19 19 22 18 28 27 25 18 12 11 11 14 17 12 13 9 7 11 6 10 5 4 3 4 3 4 3 0 2
32 8 19 37 18 8 13 32 47 32 36 19 21 21 25 23 16 21 22 22 17 25 25 22 11 10 16 18 21 12 21 18 9 13 7 8 12 13 9 8 4 11 5 3 2
20 13 20 39 11 16 22 36 39 33 25 29 25 19 18 16 15 14 20 19 18 22 23 19 16 12 17 12 10 12 15 14 14 12 10 10 7 1 3 6 10 9 9 7 6
19 7 13 35 36 25 31 38 40 48 33 25 25 22 22 19 17 12 16 15 11 14 29 22 17 20 14 18 15 18 17 17 16 11 12 15 18 14 13 13 10 10 10 8 8
27 12 18 13 23 31 27 21 32 35 34 37 19 28 26 20 19 18 12 9 5 12 6 14 20 21 24 20 18 21 22 21 22 20 17 17 18 16 16 10 10 6 1 6 9
15 20 28 19 32 29 28 29 31 31 32 27 25 24 22 16 14 1 9 5 7 11 14 16 14 20 21 22 22 22 19 17 20 20 18 21 20 16 11 11 9 11 7 9 7
29 35 32 22 25 22 26 33 37 31 39 38 30 23 20 23 8 10 10 2 2 7 9 14 12 15 16 20 20 20 17 19 20 20 17 18 18 15 15 14 12 16 11 11 10

GFSSW_850_spd_042.txt.gz
Wind_Speed
22 21 22 21 20 20 20 20 19 20 20 20 21 22 23 24 21 15 6 8 8 10 7 2 7 9 10 14 14 15 12 11 14 3 6 10 2 13 15 7 18 11 13 10 9
24 24 23 23 23 23 22 21 23 23 23 22 21 21 22 24 24 20 12 12 10 10 6 6 8 9 13 17 10 11 12 14 8 10 10 15 10 15 11 3 16 13 8 8 9
23 24 24 25 24 24 24 22 22 23 24 24 23 21 20 21 21 3 7 11 10 8 9 8 10 10 17 20 11 17 13 10 12 8 11 16 11 27 9 10 15 13 4 9 6
19 20 20 22 23 25 25 25 23 22 23 23 23 22 19 14 5 2 6 8 9 8 8 9 10 12 18 14 11 6 16 9 11 15 11 14 3 15 18 13 15 9 7 8 8
21 20 20 20 19 20 23 24 24 23 23 23 22 20 19 8 16 12 10 12 9 9 9 10 10 12 18 14 7 11 14 12 12 8 11 12 10 14 16 17 17 11 11 9 10
21 21 20 20 19 19 20 21 22 23 23 22 21 20 14 14 7 12 13 12 9 11 9 12 12 13 13 18 12 9 11 15 10 12 9 3 17 31 12 10 15 12 10 9 13
21 21 21 20 19 19 19 19 20 20 20 21 19 19 17 29 10 6 8 11 10 12 12 10 11 11 15 15 18 14 15 15 16 10 1 13 9 6 22 4 15 14 12 12 11
21 20 22 22 20 19 18 18 18 18 19 17 17 16 14 10 11 16 15 14 14 14 14 8 8 12 16 18 21 15 18 16 10 15 9 13 4 11 17 25 19 18 18 13 12
20 21 20 23 22 20 18 17 15 17 16 15 14 8 14 12 20 18 18 18 15 14 14 11 8 13 16 15 13 16 15 15 7 2 8 6 3 17 17 14 21 20 14 14 16
20 20 21 22 22 19 19 17 14 21 14 6 8 10 15 12 11 15 20 19 17 15 14 14 11 11 13 12 13 7 12 11 7 6 10 16 12 11 28 14 14 16 15 15 16
25 23 20 19 21 18 17 14 9 5 8 11 4 13 22 7 5 12 20 20 15 20 16 19 11 15 18 18 19 15 9 21 7 6 11 19 22 22 28 22 18 17 22 19 19
19 22 20 18 17 19 13 6 7 8 13 23 28 32 31 21 10 15 22 22 21 19 19 15 18 18 18 19 17 14 13 18 5 11 5 9 11 20 18 22 22 21 23 24 23
18 17 18 17 17 20 14 15 11 13 10 27 30 33 35 27 30 19 27 30 19 20 19 19 17 19 17 18 11 14 16 16 13 6 9 10 12 4 15 19 22 25 24 27 30
21 15 18 14 15 6 12 11 11 10 7 14 20 21 31 29 27 33 28 30 19 22 21 19 22 17 10 13 14 15 14 13 10 13 9 5 11 7 18 15 15 19 22 22 27
19 19 16 16 7 4 3 6 3 3 7 8 8 11 10 35 8 28 30 32 24 22 13 19 21 17 13 15 16 13 1 10 13 13 14 14 7 5 10 13 18 17 23 25 26
22 19 14 20 19 15 6 5 8 5 12 7 10 9 12 21 35 13 36 31 33 23 21 21 22 16 15 15 16 9 10 14 11 11 11 15 11 6 2 6 9 20 27 25 27
24 20 22 15 16 9 13 12 6 13 7 13 9 10 13 14 21 23 22 25 22 20 21 20 23 20 16 17 17 9 11 8 9 9 9 17 11 6 11 17 16 14 21 30 31
24 23 24 19 19 8 11 5 16 17 29 5 8 16 15 15 17 22 22 22 24 24 15 17 15 21 14 17 13 12 15 8 4 3 9 14 5 7 17 10 5 1 5 16 32
23 26 25 21 26 18 7 14 18 24 21 29 15 10 14 14 15 17 22 21 23 25 20 16 23 18 20 15 18 14 15 15 7 3 5 10 7 7 10 6 4 5 2 8 12
25 27 30 23 25 21 7 12 28 23 30 23 26 19 14 16 15 15 21 17 22 23 23 18 11 18 18 19 19 16 12 11 7 5 6 8 10 3 4 5 8 4 7 3 2
27 13 18 27 24 19 12 18 29 43 33 29 27 24 24 18 18 18 17 21 23 23 24 19 12 12 16 16 16 10 12 8 13 11 6 4 5 7 5 11 3 5 7 6 5
28 7 20 36 17 12 18 35 28 27 42 29 26 27 23 21 19 13 20 18 25 23 27 22 9 13 17 12 15 18 16 17 10 9 5 1 6 8 8 15 4 1 6 5 2
18 13 22 46 13 16 20 35 37 25 28 32 27 27 20 19 17 19 17 20 20 14 23 19 16 8 17 18 17 15 19 14 15 11 12 7 8 1 4 3 4 9 11 15 13
17 7 14 37 36 26 25 35 30 38 29 35 28 23 20 18 17 12 16 10 14 15 13 11 13 18 14 13 10 16 18 17 13 8 4 10 12 15 14 2 12 16 19 17 13
22 9 20 14 23 29 26 16 32 26 36 35 28 30 25 21 17 17 15 22 8 11 4 5 16 20 20 19 19 18 19 19 20 22 15 15 16 15 16 12 7 30 7 6 6
15 10 30 15 33 26 25 30 31 23 25 31 29 29 23 23 15 7 20 16 12 12 13 5 11 14 21 21 20 23 19 22 19 20 20 18 19 16 16 7 3 24 9 11 10
32 38 26 23 22 19 26 33 35 24 25 33 32 26 27 22 25 12 5 8 9 18 14 12 8 14 16 17 14 21 19 17 17 19 13 16 12 10 14 8 22 27 15 16 12

GFSSW_850_spd_045.txt.gz
Wind_Speed
23 24 23 23 22 22 21 21 22 22 22 22 24 23 24 26 23 22 21 9 7 7 9 4 2 3 7 15 19 19 3 8 14 6 1 9 5 6 18 8 19 8 1 9 12
22 23 23 23 23 23 23 22 23 23 24 23 23 24 24 27 27 23 6 10 10 10 9 5 5 7 12 20 19 4 3 11 10 5 6 17 14 8 6 24 2 4 7 9 10
20 20 20 20 20 21 22 23 24 23 24 24 23 24 22 23 25 3 0 4 9 10 8 9 10 14 18 22 28 15 6 10 10 9 12 8 10 5 8 2 14 11 11 8 6
21 20 19 19 18 18 19 20 22 22 23 23 23 23 21 16 5 4 8 5 7 10 10 11 7 14 5 8 25 5 7 13 11 8 8 9 9 14 14 15 10 10 7 5 5
21 21 20 19 19 18 18 18 18 20 20 21 21 21 20 9 23 17 14 10 10 11 13 12 13 16 9 7 16 4 6 13 16 15 0 15 21 11 18 5 5 6 6 13 11
21 23 21 21 20 19 19 17 17 19 19 18 17 18 15 12 4 9 15 16 14 13 13 13 15 17 12 14 8 13 10 10 19 21 3 8 8 5 8 11 3 4 6 10 7
21 22 23 22 22 21 20 19 17 18 17 16 14 16 21 32 10 8 7 14 11 13 11 9 12 15 11 8 15 23 8 7 15 4 3 11 5 4 11 12 6 6 9 9 6
24 21 22 24 24 22 22 20 18 17 18 15 13 13 16 15 10 24 19 16 15 13 15 16 12 7 7 13 14 8 7 4 12 9 4 5 1 3 6 9 17 13 14 12 11
19 22 20 22 25 25 23 21 17 18 19 16 14 9 16 6 16 22 19 21 17 15 16 16 9 8 13 4 6 5 10 11 11 8 6 3 5 5 8 15 21 20 17 16 17
19 19 23 20 22 25 25 22 16 21 19 12 7 8 12 8 10 9 17 20 21 16 13 17 6 4 4 2 6 9 6 3 1 4 4 4 7 5 9 15 25 27 20 20 21
18 17 19 21 20 23 21 18 5 4 6 11 8 12 24 17 11 8 7 21 22 19 9 14 4 10 11 13 16 14 13 8 6 8 7 12 7 12 14 8 23 25 23 25 21
20 18 18 17 16 20 16 12 6 12 13 19 26 33 33 30 22 19 14 16 19 11 8 8 15 13 16 17 15 13 10 7 7 2 4 6 15 10 8 10 22 28 27 24 24
19 19 16 15 15 18 14 15 13 12 7 24 34 29 40 30 34 33 19 29 7 11 10 13 11 18 19 18 14 13 5 6 3 5 7 6 0 9 11 16 24 30 31 29 30
19 16 14 12 12 7 6 9 13 5 5 8 11 13 25 29 13 35 28 27 11 17 14 12 19 19 20 16 9 6 8 5 4 2 4 2 4 11 19 19 19 27 31 34 34
20 16 13 10 7 11 1 4 6 6 5 9 5 8 12 24 10 23 34 26 18 18 9 16 7 14 16 11 6 9 6 4 2 6 4 8 2 9 17 15 20 22 32 36 41
21 18 13 17 19 16 12 3 6 2 11 6 8 6 6 25 19 5 28 33 21 14 15 15 22 15 15 10 8 7 3 2 3 1 4 7 1 5 12 8 16 23 34 40 42
20 21 18 15 21 8 11 6 2 7 6 6 5 9 6 6 17 18 9 11 12 15 17 16 19 18 11 6 5 6 3 1 3 3 6 8 3 7 9 10 21 19 31 41 45
19 19 21 20 16 13 6 1 9 7 17 4 3 10 9 8 11 13 16 15 16 11 6 13 13 16 10 12 9 8 7 5 4 2 4 7 4 6 12 13 17 22 38 39 44
18 19 23 22 16 14 10 10 9 9 13 16 17 13 9 9 7 13 15 15 12 18 14 9 18 8 16 6 7 5 4 8 7 2 3 3 8 9 13 6 7 9 14 32 37
22 23 28 22 16 16 6 20 15 11 18 17 13 7 5 3 7 7 8 10 17 19 20 5 6 16 18 11 9 10 4 3 2 4 2 5 6 6 1 6 2 6 9 6 13
24 12 15 26 21 15 12 15 18 23 25 8 12 12 16 14 7 11 9 10 9 17 20 17 13 9 2 4 6 4 7 4 7 5 5 2 4 6 7 3 3 7 16 12 8
23 5 14 34 14 12 21 13 16 10 26 17 8 9 12 15 11 14 4 9 12 9 19 15 4 12 18 5 8 12 11 8 5 5 3 5 6 3 8 6 7 14 14 15 13
13 9 24 45 11 17 19 26 25 20 15 9 14 12 12 16 8 6 5 11 23 6 12 9 14 9 8 8 5 9 7 6 5 5 8 6 5 6 4 8 17 14 2 12 17
14 6 12 38 31 21 20 22 23 14 22 30 18 16 23 20 15 6 4 6 22 13 31 21 10 14 17 5 6 8 9 13 11 4 5 6 4 2 8 6 8 4 3 5 17
21 7 16 14 24 19 18 7 23 18 20 15 15 24 20 11 16 8 5 6 9 18 13 6 11 11 15 13 13 11 16 15 14 15 11 6 7 8 10 11 8 6 2 3 7
16 11 22 9 22 23 21 26 26 16 16 18 22 21 16 18 20 13 6 3 1 9 7 9 6 7 5 9 16 18 15 18 15 5 11 12 13 14 21 17 18 21 16 15 18
30 36 21 17 13 16 28 34 27 15 23 29 21 19 19 27 20 15 3 14 8 4 7 6 7 2 13 5 6 15 19 13 6 11 11 10 11 9 6 10 17 24 30 27 26

GFSSW_850_spd_048.txt.gz
Wind_Speed
19 20 20 20 20 22 22 22 21 22 22 22 22 22 23 26 25 25 25 16 6 9 5 5 5 4 6 6 5 7 1 5 6 5 5 2 4 5 11 8 1 5 4 2 3
20 19 18 17 17 18 19 19 22 21 22 22 22 22 21 25 26 24 9 5 8 7 5 5 6 3 5 4 2 4 3 7 7 2 4 6 6 8 4 5 4 7 6 1 4
21 21 20 17 17 17 17 16 17 19 20 20 21 22 19 21 23 4 1 2 6 6 7 7 8 8 8 8 4 4 6 9 19 9 19 10 4 6 11 3 5 6 4 7 5
22 24 23 20 19 18 17 16 17 17 18 18 18 21 18 15 6 3 3 5 7 10 9 10 10 4 3 2 4 2 19 19 17 7 7 8 13 5 0 3 7 8 7 9 9
23 25 25 23 22 21 18 16 17 17 18 18 16 17 18 8 26 15 16 12 10 13 11 12 11 8 4 4 6 6 6 16 6 8 10 14 8 6 6 10 10 11 10 10 8
25 25 25 25 24 24 23 18 17 18 17 17 16 17 14 9 14 6 12 11 12 15 14 14 10 7 11 6 0 8 15 12 12 2 14 10 4 2 9 16 12 10 9 9 8
20 22 24 25 27 24 24 22 19 18 17 16 15 16 18 30 16 8 14 16 9 10 16 14 15 12 9 6 7 11 6 9 8 4 6 19 2 5 21 19 16 10 8 8 8
18 20 21 24 25 26 25 24 21 18 18 16 14 15 16 13 16 22 24 20 14 11 15 13 10 15 6 4 8 5 3 4 7 1 6 6 6 4 25 25 20 13 12 9 8
19 21 21 22 25 26 26 25 21 19 19 17 14 11 17 10 10 10 20 29 16 14 15 13 15 11 4 3 4 2 5 5 9 4 6 4 5 6 28 23 23 18 15 12 10
20 19 21 20 23 25 26 23 19 18 17 14 8 7 18 14 5 13 10 22 17 11 15 15 7 3 2 4 6 6 4 2 6 5 4 5 7 4 21 23 25 22 19 18 15
19 20 20 21 22 19 23 13 5 2 5 9 8 16 25 15 16 12 9 17 18 13 7 5 3 10 11 10 6 6 6 10 11 8 4 9 6 9 13 16 20 24 25 23 19
20 18 19 20 20 15 16 12 4 8 14 21 22 35 38 31 16 16 8 14 11 9 5 4 13 12 8 9 8 9 11 16 8 5 6 6 13 3 9 8 26 28 27 27 23
20 19 17 17 19 12 11 8 10 17 6 15 32 29 37 26 27 31 15 18 5 7 8 12 6 14 11 12 9 13 11 12 8 4 2 6 5 6 6 6 16 25 32 30 32
18 18 16 13 14 9 8 6 12 6 4 8 8 16 25 21 11 41 29 13 7 13 9 8 17 13 9 11 11 13 13 9 4 3 3 4 4 5 6 7 7 20 27 35 37
18 17 15 13 11 13 5 13 10 6 5 6 6 3 12 24 10 17 35 23 12 12 8 8 8 15 15 19 11 14 10 8 7 4 3 4 2 5 4 6 13 18 31 37 39
18 17 15 17 20 17 18 15 1 2 9 6 5 7 9 16 4 4 22 21 15 6 11 10 12 5 7 10 12 11 3 1 3 1 1 3 5 5 6 11 16 21 32 39 40
18 18 17 19 21 8 11 8 2 6 3 5 4 5 8 9 7 3 6 11 9 7 12 13 20 15 9 8 8 5 5 2 3 3 6 4 2 7 7 14 19 20 31 37 44
19 18 19 24 16 10 9 4 12 4 12 3 4 6 2 5 6 4 5 5 8 3 5 9 6 14 8 16 8 7 8 6 6 3 4 4 5 6 5 2 9 27 39 40 39
17 19 21 23 18 11 5 10 6 6 5 8 15 3 3 3 5 7 8 9 8 13 7 7 7 8 6 7 8 6 4 7 7 3 2 4 7 8 6 4 2 17 24 29 37
21 21 26 20 18 14 5 19 7 5 7 8 2 3 3 5 5 2 7 5 7 12 12 4 4 6 14 5 8 11 7 4 2 5 3 3 4 5 6 2 4 4 20 32 40
23 12 16 24 21 14 10 14 14 24 16 5 2 4 3 4 4 4 4 8 7 11 14 9 6 10 4 6 15 3 4 3 6 5 5 1 5 6 7 6 6 6 11 21 34
21 5 14 29 13 8 17 11 6 7 18 12 7 3 2 5 4 3 4 5 9 4 7 11 8 13 22 10 4 6 9 8 5 4 3 4 7 3 8 7 10 6 7 14 19
10 9 27 39 12 17 11 16 20 3 4 3 5 6 7 3 4 5 4 9 7 5 2 5 6 3 7 7 10 6 5 5 4 4 8 6 5 3 6 8 9 12 5 13 15
12 5 11 33 20 16 18 19 19 14 19 21 12 9 3 4 7 8 7 7 10 5 7 1 4 10 17 5 5 5 5 7 9 5 5 6 8 6 8 8 8 10 11 12 21
17 7 11 9 19 13 16 9 21 18 16 11 9 22 7 6 2 11 6 7 2 6 6 7 5 10 10 15 14 11 14 12 10 6 9 7 9 12 10 9 16 26 20 16 16
13 8 13 4 17 21 22 24 25 16 11 14 17 7 15 17 8 11 12 9 6 2 4 4 4 10 9 11 15 17 11 16 16 7 6 11 8 9 18 21 8 24 28 24 22
35 19 16 14 11 14 30 17 18 17 14 30 15 15 16 9 15 15 18 18 8 4 3 5 3 6 6 4 4 9 22 13 5 5 6 7 9 9 8 9 14 25 28 26 24

GFSSW_850_spd_051.txt.gz
Wind_Speed
18 18 18 18 19 20 20 20 20 21 21 22 23 24 22 24 23 24 21 17 10 12 8 4 5 8 9 5 7 6 3 2 5 2 5 7 3 7 3 3 5 4 7 7 2
20 20 20 20 20 19 18 19 19 19 19 20 20 21 22 23 24 24 13 7 8 11 7 5 6 7 3 4 6 4 4 7 7 5 6 5 9 9 3 3 6 5 6 3 2
25 24 24 23 22 22 20 19 19 20 20 18 18 20 19 20 20 3 4 3 7 8 6 5 9 4 3 5 6 5 5 4 19 14 14 7 4 5 5 6 6 7 9 4 1
27 29 26 25 27 23 23 21 20 20 21 19 20 20 18 14 5 4 6 3 5 8 7 7 9 5 4 4 6 2 11 7 11 8 12 6 6 5 10 5 4 3 5 4 6
27 27 29 27 28 29 25 23 21 21 20 19 19 21 18 8 20 11 11 10 9 10 11 9 12 6 4 4 3 5 5 8 16 6 13 11 8 5 7 6 4 6 8 8 7
18 21 24 27 29 30 29 26 22 22 20 18 19 20 14 8 10 10 16 23 17 14 14 13 6 7 5 5 3 3 8 16 11 12 12 10 4 1 8 10 9 7 6 8 10
17 18 19 21 25 29 30 29 26 23 20 17 19 19 19 29 16 11 11 14 16 13 14 14 14 7 1 4 4 5 5 7 7 9 6 7 1 8 13 15 12 11 9 8 8
20 18 19 21 21 23 26 30 28 22 22 15 17 15 16 16 21 17 20 19 20 15 13 11 7 8 5 5 5 5 1 2 3 6 5 10 11 6 17 19 15 12 10 9 7
19 21 21 22 24 23 26 26 26 21 22 16 14 11 17 14 15 4 7 24 23 15 16 9 6 8 6 4 4 4 5 4 8 3 3 4 8 5 22 20 18 17 13 10 6
20 21 22 21 23 26 28 26 18 13 11 8 8 7 20 14 8 8 12 7 18 13 14 9 8 4 2 4 6 5 4 2 3 5 1 4 13 1 21 20 19 20 16 11 7
20 20 21 22 21 23 26 24 6 2 5 11 10 13 14 10 15 7 4 5 16 16 6 8 4 9 9 7 5 2 3 5 6 9 4 13 9 8 14 13 15 21 19 15 11
21 20 20 21 21 21 18 9 6 11 15 23 28 37 40 31 17 21 5 9 10 6 6 3 14 8 8 5 5 5 5 11 9 9 7 8 11 5 9 15 23 25 24 21 16
20 19 19 19 20 19 12 4 5 23 7 14 26 31 38 24 24 37 19 7 5 7 9 8 4 14 10 5 6 7 7 10 8 8 4 0 8 4 5 8 18 24 27 23 22
19 17 15 18 17 11 9 4 9 17 4 8 7 12 16 16 9 40 23 14 6 14 7 7 13 4 5 10 8 7 10 11 8 2 5 5 5 5 3 7 8 19 26 29 29
17 14 15 17 13 14 10 14 14 2 5 3 5 3 9 18 4 13 36 20 8 7 8 10 7 11 13 16 7 9 5 9 9 7 3 2 2 7 4 6 11 15 28 34 34
18 16 14 19 21 16 19 16 8 2 9 6 4 5 7 11 5 4 13 18 17 3 3 12 4 6 9 7 10 10 4 3 0 4 2 6 5 5 5 7 5 12 26 36 37
18 18 18 21 20 13 12 9 4 6 6 5 4 3 5 6 5 2 8 12 8 7 8 5 9 3 2 2 2 5 2 3 3 0 5 5 2 8 8 11 12 12 27 36 39
19 18 20 24 19 16 11 1 11 2 8 7 6 11 4 5 5 5 7 6 5 4 4 10 5 11 6 12 7 6 9 5 6 4 4 1 5 6 7 12 13 16 27 33 36
17 21 25 27 19 12 3 7 4 4 4 8 10 3 5 4 2 3 6 7 9 8 6 6 6 4 6 7 11 4 5 7 5 3 2 4 6 7 7 10 12 18 17 30 36
22 24 29 25 18 16 4 11 8 2 8 9 4 5 5 8 5 5 3 1 7 11 7 4 2 5 5 4 5 7 5 2 2 4 4 3 3 5 8 5 5 6 14 30 35
23 13 16 26 18 14 8 7 11 26 17 4 5 5 4 5 5 5 4 3 5 3 10 9 4 6 4 4 7 2 3 2 3 4 6 2 5 7 8 8 5 1 4 16 28
23 5 18 28 10 8 12 8 11 8 9 6 1 6 2 7 5 3 3 6 12 4 2 4 5 10 18 8 3 3 6 8 5 4 2 4 8 5 8 6 6 5 3 9 19
11 6 27 36 10 12 5 10 12 4 5 2 3 2 4 2 4 1 4 4 23 9 4 5 3 2 14 4 3 7 6 5 2 3 10 7 6 2 5 6 12 7 8 7 14
7 5 10 24 9 16 10 9 12 15 13 4 3 3 2 3 2 4 5 5 22 5 4 7 3 4 4 5 5 3 8 8 9 6 4 10 7 5 7 8 9 15 15 15 16
16 6 9 7 14 8 16 9 16 10 14 4 7 13 4 3 4 3 6 5 6 6 4 4 2 4 10 11 10 15 12 9 12 7 9 7 10 10 10 10 15 25 23 16 18
11 6 8 4 20 20 17 15 16 17 10 15 10 4 3 14 11 4 5 3 6 3 2 2 1 5 6 12 15 14 16 18 16 5 7 6 7 8 14 21 12 23 28 24 25
28 13 12 10 14 18 21 20 18 14 14 24 11 10 10 14 18 23 22 16 10 8 3 4 4 0 3 11 16 10 8 10 9 6 7 9 8 7 7 7 16 28 31 33 33

GFSSW_850_spd_054.txt.gz
Wind_Speed
23 26 28 25 22 22 22 21 22 22 21 20 20 22 24 25 25 23 23 16 13 11 15 10 9 11 12 8 6 5 4 2 4 4 5 5 4 6 3 8 7 6 6 5 2
19 22 25 29 27 25 23 24 22 23 21 21 21 22 23 24 25 25 18 14 10 13 16 10 10 11 7 6 7 4 4 8 7 5 8 7 12 6 4 5 8 9 9 5 3
22 23 24 28 29 29 27 25 23 24 23 22 21 22 22 23 21 3 4 11 14 16 11 7 8 10 6 6 7 7 6 5 7 17 22 7 5 6 3 5 12 6 7 7 5
24 25 26 25 29 28 29 29 27 25 23 22 22 23 21 18 4 1 7 11 13 14 11 8 10 6 4 5 7 3 10 7 9 6 5 5 5 3 11 5 5 6 4 6 5
21 22 25 25 26 27 27 29 33 28 26 21 21 23 22 11 18 10 8 11 9 11 11 10 11 7 4 4 6 5 4 7 11 18 10 7 6 5 12 13 7 6 4 4 6
22 20 21 24 25 25 26 27 29 36 29 24 19 22 16 9 8 12 20 24 19 14 14 12 6 11 5 5 5 5 6 13 9 6 8 5 1 2 9 15 9 8 6 7 7
22 22 22 23 25 24 23 26 27 31 31 25 19 19 18 31 17 22 12 15 16 17 16 13 11 6 2 2 7 4 4 6 6 3 4 7 4 10 16 13 12 11 9 8 7
21 21 23 25 25 24 25 23 22 26 31 27 20 14 14 24 23 26 16 20 15 18 13 11 6 7 5 4 2 1 3 3 4 5 2 10 10 6 15 18 17 14 12 9 7
20 21 22 24 25 27 28 25 25 24 31 22 16 10 16 15 16 5 9 19 18 16 11 5 10 5 5 3 3 5 3 4 7 4 4 3 8 3 4 15 16 16 13 10 9
21 23 23 23 23 26 30 29 13 7 7 6 7 5 20 17 6 4 7 10 12 17 9 10 7 4 3 4 7 5 4 4 6 2 2 4 13 10 9 16 18 18 16 15 13
21 22 22 22 23 25 29 26 7 5 8 11 8 11 8 8 8 5 1 0 11 14 7 7 4 12 9 7 5 5 4 4 5 4 3 8 10 17 7 15 17 21 19 18 16
20 20 20 20 22 22 22 5 4 11 15 27 29 37 38 17 14 21 13 8 8 7 6 3 17 6 8 7 6 4 3 5 8 7 6 8 10 6 5 9 20 21 23 22 18
19 19 18 18 19 21 13 4 5 21 7 15 23 24 32 25 26 39 15 10 5 6 11 10 3 13 10 7 7 5 6 4 8 6 4 3 8 5 4 8 9 23 24 23 22
19 17 16 15 16 8 8 1 13 19 5 8 6 7 13 14 9 37 22 16 5 13 7 7 6 5 4 9 8 9 11 8 6 1 4 3 5 6 4 7 6 16 26 28 26
18 16 15 13 15 16 15 17 14 4 5 1 3 2 10 17 6 6 34 21 9 7 7 8 7 10 5 6 7 8 8 8 5 5 1 3 2 7 2 6 9 10 28 30 28
17 16 14 17 18 17 17 16 10 2 7 7 0 3 4 8 4 6 14 10 16 4 2 8 3 7 11 6 11 4 3 3 2 3 3 7 6 5 5 8 7 6 23 30 30
17 17 16 18 15 13 11 13 2 6 4 5 5 2 8 4 5 4 7 9 8 7 6 2 5 2 3 5 3 4 4 1 2 1 5 4 5 8 8 10 10 10 18 24 31
18 17 18 20 20 14 8 1 10 2 6 7 5 15 4 4 5 7 6 6 7 5 5 8 3 11 6 8 6 6 7 5 6 4 4 1 5 6 8 14 20 19 14 19 24
19 19 21 23 18 11 4 5 2 1 4 8 11 4 5 6 4 1 6 7 8 6 6 6 5 2 5 8 12 4 5 6 6 1 2 4 6 9 8 8 10 14 12 19 23
20 20 27 21 18 14 4 7 5 2 5 5 4 6 6 8 7 6 2 5 3 9 3 6 1 4 2 5 3 7 6 4 1 5 5 3 3 5 5 10 8 8 12 22 23
18 10 17 16 19 13 6 6 5 24 13 4 3 4 4 5 5 6 7 6 12 5 3 2 3 4 3 4 7 3 3 1 4 5 4 2 5 8 9 6 6 8 10 14 21
17 6 14 20 11 4 7 5 5 14 11 6 3 4 3 6 6 6 6 4 21 7 4 2 3 6 14 7 2 4 7 8 5 5 3 3 6 5 9 7 5 9 15 7 7
9 11 14 34 9 7 4 6 7 3 4 2 2 4 4 2 1 3 5 6 22 10 2 3 2 2 6 3 3 2 5 6 3 2 6 5 5 2 7 5 11 12 14 10 8
8 4 9 25 9 14 9 9 8 12 12 3 3 2 2 4 2 4 6 5 18 8 9 6 2 4 3 0 2 6 7 5 7 5 3 5 4 5 6 7 6 12 18 16 13
13 6 8 6 9 10 14 10 12 9 8 5 3 6 1 4 6 4 5 5 7 6 5 3 3 2 2 7 4 5 9 8 6 7 9 5 8 9 12 11 15 24 22 22 23
9 6 9 2 16 13 14 14 16 14 10 5 6 3 4 6 7 4 4 3 4 5 6 3 1 3 3 3 5 3 6 8 8 6 7 7 8 9 16 18 15 26 25 27 27
27 21 8 13 7 14 12 12 18 11 8 20 7 8 8 14 15 21 23 19 10 4 5 4 4 2 2 4 7 4 1 3 7 8 5 8 8 9 8 7 11 27 30 29 28

GFSSW_850_spd_057.txt.gz
Wind_Speed
20 21 22 22 23 23 25 25 23 23 25 24 23 22 22 24 27 22 24 16 17 13 17 19 18 16 17 12 8 7 2 4 4 6 2 4 5 4 5 6 5 6 8 8 9
19 20 22 24 25 26 24 26 27 23 25 27 25 24 22 24 28 24 15 16 15 15 23 22 21 19 10 10 8 5 4 8 6 5 5 5 8 4 4 5 6 10 14 11 7
18 19 20 22 24 27 27 25 26 26 23 27 29 26 22 23 25 4 9 8 16 15 19 16 16 16 7 8 8 6 7 6 6 14 9 6 4 9 7 8 11 6 6 10 7
18 19 20 22 23 22 26 26 26 24 25 24 31 29 23 21 6 4 3 8 13 20 15 16 19 10 6 8 9 4 9 7 5 6 2 4 3 5 13 9 4 4 6 9 7
19 19 20 20 22 23 22 26 25 25 24 23 24 31 25 12 21 18 8 7 13 18 15 16 19 9 6 7 9 6 6 7 15 13 11 6 8 6 12 15 12 6 8 8 7
18 20 21 21 21 21 24 24 26 25 24 22 18 28 23 8 11 9 9 15 12 15 15 17 11 13 7 6 9 8 10 8 9 12 6 5 4 3 5 14 12 10 11 9 7
19 20 21 23 25 23 23 25 26 25 24 22 19 21 27 30 20 30 25 16 19 20 18 18 10 11 8 3 8 3 4 5 7 5 5 8 6 9 9 10 12 12 11 10 8
18 20 22 23 25 26 26 25 24 24 26 22 18 17 18 26 26 29 24 22 16 16 18 14 14 12 4 3 3 4 1 5 1 4 1 6 12 3 7 14 13 13 12 10 10
18 21 23 24 24 27 29 29 24 20 19 15 10 10 15 12 20 10 13 20 19 17 16 6 10 7 6 4 2 1 6 6 4 4 3 5 7 2 5 13 15 15 13 11 10
17 20 22 23 24 27 28 27 12 8 8 2 7 3 12 12 14 7 6 7 11 20 11 9 7 4 3 9 11 8 5 5 7 4 2 4 15 15 10 14 17 17 16 14 13
18 20 20 21 22 24 28 20 7 4 12 8 7 8 3 9 21 10 5 5 9 13 10 6 7 14 16 15 5 7 4 4 3 4 3 6 11 15 8 11 14 17 18 18 18
18 18 19 19 20 22 15 7 7 11 15 26 30 33 29 9 8 18 10 7 7 9 8 4 15 13 8 8 10 6 5 7 9 6 7 9 13 14 6 7 11 18 19 20 19
17 17 17 17 18 12 11 2 5 19 8 14 14 16 22 30 29 34 11 6 5 8 15 16 4 15 14 8 11 13 11 7 9 6 3 4 6 6 3 5 8 12 15 18 23
16 15 14 16 12 9 7 10 15 16 5 6 4 4 11 13 9 39 31 18 6 14 9 12 8 11 11 16 13 14 10 7 5 3 5 3 7 7 9 9 8 12 15 18 24
16 13 13 12 15 14 13 12 11 3 6 1 1 1 7 9 9 1 28 25 11 7 7 8 7 11 12 10 14 10 8 10 7 6 4 3 5 3 4 9 11 8 13 19 26
15 13 13 13 13 13 11 11 7 2 7 6 3 2 5 11 6 5 7 9 15 5 1 8 3 11 13 5 16 7 3 3 3 2 6 7 7 4 5 10 7 7 9 11 20
13 12 13 13 10 11 13 10 1 4 5 7 7 7 9 5 4 5 5 13 7 10 12 5 8 3 4 8 6 5 6 3 5 4 7 1 7 11 9 12 11 12 14 7 13
13 15 16 15 13 11 6 1 8 2 6 5 8 12 2 2 4 5 5 9 9 1 7 10 6 12 5 6 6 13 12 5 7 6 5 4 5 6 8 11 11 14 16 13 11
15 17 19 15 11 9 5 4 3 6 3 8 13 5 5 7 5 2 6 2 6 8 6 8 9 4 6 5 7 6 8 6 2 2 1 2 4 10 10 7 10 10 14 16 14
16 16 22 16 8 11 5 8 5 3 4 4 2 5 6 8 9 8 1 6 6 8 3 5 2 4 3 4 4 8 10 5 1 6 8 2 3 6 6 8 6 5 8 8 9
14 7 11 4 14 9 7 6 4 17 9 2 2 4 4 5 6 8 8 2 11 9 4 3 2 2 4 5 11 6 8 1 3 3 4 4 4 7 12 10 7 7 6 7 7
9 3 8 12 8 4 3 5 8 4 3 3 2 5 4 5 5 5 6 5 15 12 3 2 2 3 5 1 3 2 5 9 4 4 1 1 8 4 9 10 6 11 11 9 6
7 10 14 16 6 8 3 4 9 6 3 1 2 0 2 2 3 2 5 6 14 9 4 4 1 3 2 2 4 2 2 3 2 3 7 6 4 3 5 9 18 13 13 9 7
7 3 13 21 21 12 9 6 7 9 7 2 3 3 1 1 0 4 6 4 16 10 11 2 2 2 2 3 2 1 6 3 3 3 5 5 5 7 10 10 11 14 18 15 12
13 5 8 3 11 16 10 8 12 8 8 9 5 10 6 3 3 4 3 5 7 13 6 4 3 1 2 2 3 2 5 4 4 6 5 4 7 9 10 12 16 21 27 23 21
9 7 7 7 10 15 11 13 18 14 11 7 8 4 11 11 11 5 0 2 4 6 8 8 3 2 2 2 2 4 8 3 4 2 6 8 8 7 19 24 21 21 22 22 28
27 20 8 11 9 6 14 16 18 14 11 16 13 10 11 12 14 19 16 14 10 6 4 4 1 3 4 1 4 3 6 4 2 2 2 3 4 10 12 13 19 25 27 20 21

GFSSW_850_spd_060.txt.gz
Wind_Speed
16 17 18 20 21 22 23 22 23 23 21 22 22 21 20 24 27 26 23 18 14 12 18 19 20 14 15 14 12 9 8 10 12 11 8 5 8 4 5 10 8 8 10 8 10
16 18 19 19 20 22 23 24 23 23 22 22 23 23 22 24 27 28 18 18 18 18 20 23 21 17 17 16 11 14 12 12 6 9 6 7 8 11 7 11 12 11 12 11 10
16 17 18 19 20 21 22 22 24 23 23 24 23 22 22 22 19 2 12 15 15 19 16 18 17 19 18 14 19 16 17 9 8 11 9 10 10 6 9 13 11 11 10 10 8
16 17 18 19 19 20 21 23 23 24 24 23 24 22 20 17 7 4 12 11 6 18 14 17 18 22 17 15 20 14 20 13 12 9 9 10 10 9 13 16 5 5 6 10 9
16 17 18 19 20 20 22 23 23 24 23 22 23 21 20 9 15 20 15 12 5 17 15 19 20 22 17 15 14 19 16 13 16 13 13 12 14 14 17 13 9 6 7 9 9
17 17 18 20 21 23 24 24 25 24 24 23 22 21 14 16 12 14 14 8 6 14 12 16 13 19 11 13 17 8 22 17 15 15 13 12 17 5 10 6 10 9 9 9 9
15 17 20 22 23 24 25 26 25 24 25 25 22 20 14 25 19 22 27 29 22 15 16 15 15 11 9 10 18 13 12 14 16 16 16 11 16 14 16 7 11 13 12 11 9
16 16 20 23 24 25 26 27 26 23 23 21 19 11 13 20 17 27 24 30 21 16 18 15 14 14 11 6 5 14 14 16 15 12 9 12 18 6 4 9 11 13 13 13 11
17 16 19 22 23 25 26 26 22 19 15 14 9 9 12 13 14 16 18 16 14 18 15 10 11 18 15 13 12 12 15 18 12 11 6 13 11 3 5 9 11 13 15 14 13
17 16 19 21 22 24 26 23 11 9 9 6 2 6 16 7 4 2 9 8 5 10 12 15 13 12 15 15 17 15 16 14 14 9 12 13 16 11 9 11 12 12 15 16 15
17 16 19 19 21 22 22 13 7 3 8 10 15 17 16 7 6 7 7 5 7 17 17 22 14 20 23 22 19 13 12 14 10 6 6 13 16 14 6 9 11 13 16 18 17
17 17 17 18 18 15 12 6 7 9 16 23 30 32 31 18 9 9 9 7 11 15 19 11 20 18 16 19 20 18 15 14 9 6 8 13 16 14 12 8 9 12 16 19 18
15 15 16 16 15 5 8 4 9 15 9 15 10 12 12 22 12 9 12 13 12 17 18 21 5 15 15 16 19 20 20 15 14 3 10 9 15 18 14 8 8 10 13 16 21
12 13 13 13 6 8 4 8 11 12 5 3 3 3 3 5 9 30 12 13 9 13 16 15 24 6 20 22 19 19 19 16 12 11 9 3 13 15 9 16 12 13 14 17 21
11 12 11 10 11 6 9 9 9 1 6 5 3 1 6 8 9 3 25 30 23 19 8 15 11 20 17 18 18 17 7 13 15 13 12 14 9 14 6 13 13 12 15 17 20
10 11 11 8 7 7 6 9 3 4 4 2 2 4 3 10 7 1 3 21 21 19 17 20 4 13 21 14 12 8 7 7 8 10 12 15 12 8 11 10 4 5 9 11 17
11 12 11 9 5 6 9 6 4 5 4 4 5 11 11 6 4 8 9 18 12 16 18 17 17 8 10 19 13 15 12 7 8 8 10 4 10 14 11 12 11 10 13 6 13
13 13 13 12 8 6 4 4 8 2 5 6 6 14 4 7 1 7 6 12 19 17 8 15 9 15 12 13 11 18 19 7 8 10 9 9 8 7 4 5 7 7 8 7 12
14 13 15 12 8 8 4 7 3 4 3 7 12 6 2 5 6 3 4 3 7 15 10 12 17 11 12 11 15 13 19 16 9 1 5 7 7 11 10 10 11 10 10 14 13
12 10 16 12 9 13 5 7 6 5 2 3 4 4 5 8 7 5 5 7 5 8 12 5 6 10 17 17 16 10 10 8 10 13 12 9 8 7 4 10 3 4 5 5 8
10 5 6 6 15 12 7 8 11 14 5 3 3 5 5 6 8 7 7 5 12 11 13 7 5 6 11 15 18 14 12 9 7 13 11 10 6 5 9 5 3 3 9 6 2
8 4 8 14 9 5 6 8 9 10 17 10 5 7 9 9 7 5 2 5 17 18 7 10 3 8 10 4 8 17 16 19 10 10 7 8 9 9 6 10 6 12 14 10 2
8 9 8 15 6 10 7 15 12 11 12 9 10 4 3 5 5 5 3 5 11 12 11 2 8 6 11 11 3 9 6 8 13 12 13 8 4 4 8 11 14 14 15 12 5
6 4 12 15 14 7 17 14 14 17 16 13 7 7 8 11 11 8 7 3 13 9 13 7 3 10 8 3 3 7 8 4 9 8 10 13 12 10 12 13 15 18 17 18 15
12 6 10 5 11 16 12 5 19 15 17 14 9 15 13 10 10 11 13 13 6 8 6 2 2 1 2 2 1 3 5 4 8 8 7 6 10 9 7 8 13 19 20 17 16
10 7 7 12 11 15 15 16 17 17 12 12 15 10 13 17 17 12 8 6 5 4 6 7 2 4 2 3 3 5 6 8 7 9 9 11 12 1 10 12 11 16 19 21 21
24 17 7 15 16 11 14 17 19 20 14 21 14 11 13 13 15 15 16 15 13 8 4 4 3 4 8 2 3 7 13 10 7 7 7 8 2 7 10 10 14 19 16 16 20

GFSSW_850_spd_066.txt.gz
Wind_Speed
15 16 17 18 18 18 18 19 20 20 20 20 20 19 21 23 24 23 22 19 20 23 22 18 12 17 21 26 27 26 15 16 21 21 20 14 8 10 15 10 12 10 10 5 7
15 16 16 16 17 18 20 20 20 20 21 22 22 22 21 23 26 28 23 21 18 20 27 19 18 19 25 27 28 20 16 24 21 21 13 12 10 10 11 15 17 17 13 12 8
15 15 16 17 17 18 19 20 21 21 23 22 23 24 22 21 25 3 10 7 15 15 17 20 21 22 26 28 29 28 22 22 23 27 10 14 14 12 12 10 12 3 6 5 8
16 18 18 19 20 21 21 22 22 21 23 24 23 24 21 16 7 2 11 20 21 16 8 15 21 28 22 22 31 25 31 29 30 30 19 10 21 14 17 12 12 16 5 7 7
15 17 18 20 22 23 23 23 22 21 21 24 23 22 22 11 28 24 28 16 14 8 8 15 21 27 24 23 26 26 25 31 31 29 23 19 16 17 19 15 17 13 8 8 10
14 19 22 23 23 25 25 25 23 22 22 23 23 22 14 19 11 11 12 10 10 9 8 13 16 24 27 26 23 30 29 28 30 29 22 18 19 19 23 20 22 10 8 11 12
17 18 22 24 25 25 26 25 23 23 23 24 21 17 17 34 15 21 15 13 12 11 10 13 15 21 21 24 28 31 25 22 23 23 24 22 20 20 25 21 20 17 11 14 13
19 20 22 22 25 26 26 25 23 22 23 20 14 8 13 13 17 17 14 18 20 18 14 12 13 15 18 20 23 21 19 20 21 21 21 21 20 19 27 25 24 11 16 16 15
18 21 22 23 25 24 26 24 17 16 18 14 8 8 13 9 7 8 10 16 16 17 17 10 9 14 16 13 13 14 16 21 23 22 21 21 21 19 24 8 14 17 18 17 16
21 23 24 24 23 24 23 21 11 16 9 9 11 11 13 3 7 10 8 8 15 11 14 15 7 11 13 13 15 15 19 20 20 20 22 19 18 13 22 14 13 15 18 18 19
22 23 23 21 19 18 19 25 17 2 9 18 13 18 32 20 21 14 9 5 10 11 13 16 6 16 20 17 21 15 18 24 23 20 16 17 16 16 17 18 18 21 17 15 19
25 22 22 19 16 9 11 12 9 9 17 22 28 24 24 17 13 14 9 8 8 13 10 9 17 20 20 18 20 20 19 23 25 16 1 9 13 15 16 12 15 19 20 19 16
21 19 20 15 12 5 10 9 12 14 8 17 11 12 4 5 10 18 13 13 12 9 12 15 14 13 19 22 21 19 20 20 23 20 14 10 15 17 19 18 18 21 13 15 21
18 20 18 14 9 8 8 8 12 15 5 8 11 6 7 2 4 11 16 13 4 9 8 11 18 17 19 23 19 19 19 23 23 19 12 14 12 15 17 19 17 17 17 17 17
21 20 14 9 12 8 6 13 11 9 6 8 9 6 6 6 5 6 16 15 12 8 3 4 10 18 17 23 18 17 12 19 22 17 16 19 11 12 14 15 17 19 20 26 25
20 19 12 5 9 8 11 11 10 3 7 7 6 5 12 15 10 6 6 14 8 9 14 16 10 10 22 23 19 18 6 24 21 14 14 18 16 12 14 14 14 9 11 13 27
19 20 16 11 14 10 9 12 5 7 5 8 4 3 7 11 7 13 9 16 10 6 12 15 19 22 20 16 16 18 13 8 7 12 11 16 14 12 14 9 3 4 6 8 17
17 18 18 15 12 10 8 5 10 9 13 6 3 8 13 10 6 10 12 10 18 14 7 2 5 18 10 15 14 13 16 8 6 4 14 19 9 15 17 15 3 2 3 6 16
17 17 17 15 8 10 12 10 6 15 8 4 8 12 12 6 4 6 13 12 12 18 13 4 6 12 14 13 17 18 20 25 17 12 8 9 18 11 5 5 6 8 9 10 11
13 16 21 16 17 15 7 16 16 15 3 7 10 6 8 1 3 6 1 9 3 4 12 9 11 14 16 17 18 17 13 12 6 4 6 4 8 2 9 9 7 5 4 4 5
13 10 14 15 19 15 10 14 17 23 11 5 10 13 7 9 6 9 2 7 5 6 9 11 12 7 13 15 17 14 15 12 12 11 4 1 5 4 5 7 9 10 7 5 7
10 4 6 20 13 10 10 17 26 16 15 13 9 12 12 10 11 10 14 3 6 7 8 8 7 10 14 8 4 14 17 15 6 13 12 9 1 5 5 11 12 8 20 17 11
7 18 21 14 8 12 15 21 23 19 16 13 11 11 14 11 8 10 13 6 9 6 9 11 5 9 6 9 8 14 17 19 13 4 4 5 5 6 8 7 10 15 20 18 20
8 3 19 16 17 15 17 18 19 22 20 23 16 16 14 14 13 10 10 3 3 8 14 12 9 11 9 7 5 11 16 19 18 7 7 8 8 7 7 11 7 10 9 15 15
8 7 7 6 14 16 18 10 18 18 20 16 16 20 13 13 14 14 15 14 16 6 4 3 7 9 14 16 17 21 14 14 12 14 5 6 12 8 12 10 4 7 15 19 20
9 8 16 15 20 14 17 18 19 16 18 14 15 16 14 16 15 14 14 11 8 10 7 3 3 11 6 12 11 16 12 13 21 20 12 8 12 10 11 9 10 15 19 19 16
22 27 16 10 11 12 8 19 21 16 19 15 14 15 14 10 8 13 11 12 8 9 6 4 5 5 4 12 11 10 11 16 13 12 12 6 9 4 10 1 10 18 17 16 16

GFSSW_850_spd_069.txt.gz
Wind_Speed
16 16 16 17 17 18 19 21 20 20 21 22 21 22 21 24 28 25 29 21 15 15 16 19 16 13 12 20 24 22 9 12 16 16 22 19 3 7 7 8 8 5 12 16 18
16 15 16 16 17 17 18 19 20 20 21 22 23 24 22 25 30 29 12 13 17 12 16 17 21 14 17 14 15 13 8 16 15 20 20 18 10 13 8 11 11 17 8 19 17
16 16 15 16 16 17 17 18 19 20 21 23 23 24 22 24 26 6 6 6 9 18 15 16 17 18 24 26 25 16 18 14 20 34 28 21 16 9 5 5 6 4 25 18 13
14 15 16 19 20 20 19 20 21 20 21 23 24 24 21 20 6 5 1 13 19 13 16 10 14 17 5 14 27 12 23 25 27 39 31 18 23 9 7 6 11 7 15 20 14
14 15 19 21 23 23 22 22 22 21 21 24 24 24 23 7 26 17 10 12 14 10 9 9 14 17 10 9 20 18 19 29 33 35 35 34 15 12 12 14 7 9 16 17 14
18 19 21 23 24 23 23 22 22 21 21 22 23 22 17 10 6 4 12 4 11 12 17 13 14 20 19 16 16 21 21 23 29 29 29 19 12 12 21 17 20 16 18 16 14
19 17 20 22 25 25 24 24 23 22 20 18 18 17 17 34 14 14 13 13 8 12 11 12 14 13 14 8 21 24 17 16 18 21 18 25 11 8 24 21 24 28 24 17 14
20 21 22 24 25 23 23 23 22 18 14 12 15 10 13 11 9 13 5 13 13 14 15 16 16 16 11 11 10 7 8 12 10 12 17 14 16 13 29 28 30 31 24 20 22
19 22 25 26 23 22 23 22 18 13 13 11 11 7 13 7 11 4 7 12 11 15 17 13 13 10 9 3 4 5 5 9 12 12 14 10 16 16 29 30 22 31 26 26 26
22 25 29 27 21 19 18 19 14 9 7 6 3 6 14 6 4 11 6 8 7 8 4 11 6 4 2 1 4 6 5 8 11 17 13 20 20 17 26 20 12 21 20 25 33
24 25 26 24 17 14 17 21 21 5 7 10 11 15 18 16 22 21 14 7 6 11 5 8 4 6 6 8 12 16 15 13 11 12 13 20 23 14 17 14 13 23 25 21 37
23 22 23 23 13 7 13 16 13 10 17 27 33 38 40 32 16 13 12 8 9 6 5 4 7 7 9 12 16 18 18 17 16 16 12 19 17 10 7 8 17 26 29 29 34
21 23 22 18 8 3 10 12 15 20 6 24 14 16 15 14 16 14 12 9 5 6 5 7 6 10 13 10 17 18 15 16 15 19 21 18 15 4 6 9 19 18 37 35 34
19 22 24 15 6 5 4 9 15 18 4 7 6 9 12 6 5 11 14 7 4 3 1 3 5 11 13 17 13 13 17 13 15 12 11 17 10 7 9 16 15 18 21 38 32
18 20 21 10 10 9 12 14 12 11 5 9 8 14 12 9 6 6 16 10 4 6 4 4 5 10 14 17 9 9 16 9 9 10 12 19 5 6 9 8 16 15 24 32 34
15 17 20 5 6 7 13 12 11 1 8 6 9 10 11 13 6 9 10 8 6 6 7 6 7 3 11 10 9 14 13 10 8 3 5 12 7 6 8 11 7 7 26 35 33
17 17 17 14 16 6 9 11 2 5 11 7 6 7 10 6 12 7 6 6 5 3 5 7 16 8 8 8 11 10 3 2 2 4 3 8 12 13 11 13 12 4 17 24 35
18 18 19 17 12 1 10 3 8 10 11 2 2 2 6 10 3 12 11 6 9 5 3 4 4 11 12 14 8 12 10 3 6 3 2 8 6 9 15 19 17 10 10 13 28
18 18 21 7 2 6 6 7 5 6 9 9 6 1 5 13 5 7 12 7 10 12 5 3 5 7 10 8 10 5 7 16 6 6 1 5 7 22 15 16 7 8 10 17 30
18 21 25 13 9 12 5 14 11 13 17 14 5 5 6 4 4 2 2 1 3 5 5 4 8 7 11 16 14 7 3 4 4 3 4 5 11 2 10 7 5 6 7 11 23
14 9 20 4 18 15 8 8 13 27 25 9 7 9 11 9 6 4 5 5 6 5 4 3 3 7 5 8 11 7 5 5 3 7 2 2 4 3 10 15 13 14 23 25 29
11 3 6 11 11 5 10 6 11 25 31 18 9 6 10 12 5 6 5 6 5 2 2 4 4 5 11 9 3 4 11 12 2 1 4 2 5 6 6 11 13 12 20 32 36
6 12 21 13 6 10 7 13 21 21 20 13 9 5 7 9 5 4 5 11 12 3 4 1 3 4 7 3 5 7 17 10 11 6 4 1 4 8 11 10 15 15 27 30 34
5 3 7 18 18 6 10 16 17 25 20 23 15 15 12 8 6 5 6 3 6 5 9 4 3 5 5 9 4 6 9 14 14 3 3 6 1 5 8 10 11 15 21 27 30
7 5 7 3 3 6 13 10 6 13 17 18 12 13 15 10 6 6 8 5 5 15 4 3 2 3 10 14 15 12 10 13 15 15 4 6 7 5 6 9 9 20 24 26 27
7 4 8 12 10 9 15 16 17 15 4 10 11 11 10 11 7 3 5 5 5 6 3 3 3 3 7 7 11 11 13 9 11 11 16 14 7 1 10 7 14 16 23 24 26
17 22 12 8 7 2 5 8 15 12 13 19 7 8 7 7 5 3 4 5 2 2 1 2 4 4 3 6 9 5 7 11 9 11 8 7 5 9 8 6 12 20 22 25 26

GFSSW_850_spd_072.txt.gz
Wind_Speed
14 15 16 17 17 18 19 18 18 19 21 21 21 21 22 25 26 25 28 19 10 8 7 10 12 12 7 12 18 11 2 5 6 12 15 16 7 26 14 10 11 14 13 13 22
16 15 15 17 17 18 18 18 18 19 21 22 23 23 22 26 28 26 11 3 3 2 4 10 14 13 10 10 9 7 7 10 9 8 15 16 12 24 18 9 11 9 7 10 24
14 15 15 17 20 20 18 18 18 19 21 22 23 25 21 24 25 1 9 7 8 7 8 12 14 12 13 18 11 7 13 6 12 23 26 15 18 28 17 9 15 13 15 22 28
16 16 17 19 21 23 21 20 20 19 20 22 23 24 21 19 5 4 8 5 7 4 10 10 8 6 5 9 22 8 9 17 20 25 24 17 32 16 20 21 15 19 18 28 27
18 18 18 21 21 22 22 20 20 19 20 21 22 23 22 8 21 14 17 16 9 8 11 11 10 8 5 5 13 11 14 24 26 27 29 31 24 25 28 36 17 8 21 28 26
22 20 19 20 22 23 22 22 21 21 20 19 19 18 14 8 6 2 8 9 6 9 15 11 13 9 12 7 9 8 17 24 26 27 28 19 21 14 32 31 21 11 24 26 23
18 19 20 22 24 22 22 22 22 21 20 17 15 13 15 28 10 15 16 14 12 12 13 12 9 7 10 5 9 9 12 15 16 12 10 17 17 11 30 29 21 19 21 29 26
19 20 24 26 25 20 20 21 20 17 19 16 11 11 14 10 6 2 4 14 16 13 15 13 13 13 7 9 7 4 4 8 7 10 14 9 19 13 26 25 24 26 24 28 28
20 24 27 26 22 19 18 18 18 14 15 12 11 8 14 6 7 2 2 5 7 11 15 15 13 7 6 3 4 4 7 7 5 6 7 8 13 9 25 23 25 29 32 27 30
21 25 27 23 18 17 16 18 11 4 2 4 3 7 14 3 4 5 5 7 9 7 3 13 4 1 4 3 6 5 4 4 4 4 4 9 11 11 24 20 26 30 32 31 37
21 25 27 23 13 11 19 14 11 4 15 10 8 13 13 9 16 13 14 11 8 6 5 4 2 7 9 8 6 5 8 9 11 12 5 8 14 18 18 25 19 24 26 32 44
22 24 26 23 10 4 13 19 10 13 16 27 35 38 43 35 17 31 7 6 7 6 3 1 8 9 6 7 2 4 9 13 13 15 7 8 15 17 19 13 21 26 29 36 36
21 22 24 21 6 2 6 15 11 17 6 22 16 14 18 23 20 28 14 9 5 6 6 7 4 7 6 8 9 5 7 9 16 19 11 8 10 8 14 8 14 23 34 32 37
20 21 21 19 4 7 2 12 9 14 4 8 6 7 12 9 7 25 10 7 5 8 5 6 3 5 5 8 11 14 6 8 16 9 6 5 5 7 10 11 8 11 20 29 36
19 20 17 16 14 3 10 10 8 7 5 3 5 6 15 10 7 5 16 11 4 5 4 4 4 2 7 13 10 8 8 13 13 3 3 4 4 6 7 13 11 9 18 25 37
16 18 16 14 12 8 13 9 6 2 7 3 7 8 6 6 4 6 8 5 4 5 2 5 2 4 4 6 13 8 4 10 6 3 4 6 4 6 5 6 8 6 19 19 37
19 17 15 17 15 9 8 6 2 4 7 2 5 7 10 7 7 6 6 7 6 4 5 2 7 3 2 2 6 7 0 2 5 4 5 7 7 13 8 13 11 11 24 24 39
15 15 16 17 16 5 5 2 8 6 7 15 13 6 9 7 9 9 8 5 6 2 2 3 5 10 7 7 6 10 6 2 4 3 1 5 5 5 6 13 21 24 28 18 38
15 17 21 12 3 4 2 4 4 4 7 14 17 2 2 5 6 5 8 6 7 8 6 3 4 2 8 7 11 4 7 5 2 0 1 4 5 6 10 15 18 14 15 26 39
16 18 20 0 12 6 3 6 6 6 10 11 7 8 8 10 9 6 10 1 4 4 4 1 3 6 5 5 7 6 1 3 3 2 4 4 2 3 10 17 8 13 10 15 10
14 8 7 5 13 5 6 7 7 13 13 5 7 9 8 8 8 6 4 3 3 2 6 1 4 4 6 6 9 4 3 3 2 3 1 2 2 10 14 12 10 12 20 22 15
4 2 6 8 5 5 8 4 6 12 13 10 7 14 4 9 3 5 3 3 4 1 3 1 3 3 7 6 11 10 7 5 3 5 5 1 3 10 14 17 15 13 23 32 34
3 6 14 14 3 6 5 11 14 13 15 6 6 6 9 4 5 3 4 4 7 3 5 3 0 3 4 5 4 4 9 12 8 1 4 2 3 2 14 10 20 16 25 31 38
3 2 5 4 7 1 5 8 8 14 17 18 14 17 14 4 4 6 3 1 2 0 5 4 1 2 3 1 1 6 5 5 11 3 3 6 3 6 10 10 14 16 22 32 34
7 4 4 2 2 1 1 6 12 10 11 15 6 15 11 4 6 5 5 4 7 7 3 3 2 1 5 11 11 12 13 12 15 16 6 3 4 9 4 4 6 11 17 29 33
5 3 1 5 9 4 4 4 11 14 6 10 10 12 6 5 7 5 3 2 1 3 2 3 2 3 4 4 6 13 13 13 12 17 17 17 13 4 11 8 12 9 17 26 29
13 11 5 4 4 3 3 6 10 15 10 22 14 5 9 4 7 5 4 4 4 4 2 1 1 3 4 7 11 6 7 11 7 15 18 8 4 8 8 8 8 17 21 23 23

GFSSW_850_spd_075.txt.gz
Wind_Speed
16 17 17 18 19 19 20 20 20 20 21 22 22 24 24 26 28 24 27 16 12 15 15 10 10 8 7 9 12 7 1 5 8 10 8 3 4 4 11 11 22 9 11 10 23
17 17 17 19 20 21 21 22 21 21 22 23 22 24 24 26 27 25 9 6 9 8 6 5 8 9 6 4 8 6 5 10 6 11 7 2 5 20 10 18 22 23 14 11 23
17 18 19 20 21 22 22 22 22 21 22 23 23 25 24 25 22 6 9 10 7 4 5 6 9 7 6 12 8 6 12 4 7 18 15 6 12 11 8 13 22 20 26 17 26
19 20 20 21 21 21 22 22 22 21 22 23 23 25 26 19 5 9 10 4 1 5 6 5 5 5 4 7 15 8 9 18 9 17 12 7 21 10 13 26 35 34 31 27 31
20 22 20 21 23 23 23 21 21 21 21 21 22 22 23 10 17 11 17 16 8 7 8 5 7 4 4 4 13 10 8 18 20 20 21 23 16 17 21 38 40 35 29 31 29
20 19 20 22 25 24 23 23 22 20 20 19 19 19 12 8 4 4 6 19 13 11 11 8 6 7 10 8 7 10 13 19 20 23 20 12 16 12 29 38 33 29 24 31 31
19 20 23 26 27 23 22 23 23 20 22 21 20 17 16 31 11 12 14 12 13 12 12 9 7 5 5 6 16 14 12 9 7 6 7 14 15 10 30 34 33 29 26 34 34
20 22 25 27 26 24 23 22 22 21 21 19 15 13 15 13 12 8 6 12 18 14 15 10 10 11 7 10 9 5 5 7 3 8 9 11 25 12 21 26 27 31 27 32 37
20 21 25 26 23 22 23 22 19 18 17 13 9 11 15 8 9 2 3 2 2 8 13 13 11 10 6 3 4 3 11 9 6 8 6 9 13 8 15 18 18 24 20 28 37
21 23 27 26 20 19 20 21 10 8 7 2 7 6 14 3 6 7 1 2 3 3 3 6 4 2 1 3 9 5 6 4 5 3 3 6 9 9 18 16 20 23 25 22 35
21 23 26 26 16 14 19 16 8 3 18 12 11 18 16 5 9 10 3 3 3 4 4 2 3 8 8 7 6 6 5 5 5 8 6 8 13 13 9 14 14 24 28 31 29
19 22 25 25 15 7 10 9 11 15 18 26 36 37 45 26 15 21 15 3 6 5 3 1 8 8 6 7 7 8 9 9 6 7 10 8 12 14 14 9 20 23 29 32 27
20 21 25 24 12 3 3 11 12 14 7 21 18 17 18 22 22 21 19 6 4 7 7 7 6 1 6 8 10 9 7 4 7 9 16 4 13 15 13 9 18 26 31 28 29
16 19 22 21 4 10 0 10 9 14 4 8 5 7 8 7 9 23 14 10 5 9 6 6 4 5 6 7 6 10 6 9 5 6 9 2 7 9 8 8 5 14 15 22 27
16 16 19 15 17 12 14 12 7 6 5 1 2 4 11 8 4 4 16 13 5 5 6 5 5 4 6 11 5 5 4 4 6 8 7 8 6 7 5 9 10 8 8 15 29
14 17 18 13 14 10 13 10 4 3 7 6 3 3 3 4 1 5 6 6 3 3 1 5 0 5 6 3 8 1 3 4 6 7 7 10 8 4 5 9 5 5 7 12 24
15 16 15 15 14 15 9 7 3 5 8 9 8 8 9 3 3 3 6 6 6 3 5 2 5 3 3 2 1 8 2 2 4 6 6 6 9 11 8 8 12 13 19 23 16
15 15 19 17 12 11 2 2 4 3 6 9 9 17 7 5 6 6 5 5 5 2 2 5 4 8 6 7 6 11 5 3 4 3 3 5 5 5 10 13 7 20 27 30 24
14 16 20 8 4 3 3 2 4 2 6 12 14 7 3 8 5 5 6 5 7 10 6 5 4 2 6 4 5 3 8 0 3 3 1 4 5 5 11 13 14 18 21 16 18
13 18 6 7 8 6 3 5 3 7 10 6 5 8 8 13 9 6 8 2 5 8 3 4 2 3 2 5 2 4 1 2 3 3 2 4 5 3 11 14 15 16 18 26 10
11 10 6 1 10 6 3 4 4 9 14 7 7 7 8 14 9 4 3 3 1 1 5 2 3 4 5 4 7 4 3 3 2 2 2 3 0 5 9 12 13 15 22 24 3
3 2 5 6 2 2 2 3 2 5 15 9 7 10 2 13 8 6 5 3 7 2 3 1 3 3 8 5 10 5 5 4 2 3 3 0 3 5 8 13 17 16 19 23 26
1 5 2 4 2 2 4 7 10 13 10 4 6 9 2 5 7 10 9 9 3 3 7 3 2 3 2 4 4 2 4 7 4 2 4 2 1 3 10 14 22 16 19 23 26
1 2 1 4 1 3 2 4 4 7 7 9 9 12 14 6 11 8 8 7 6 3 7 3 3 1 2 1 3 5 7 6 8 3 2 5 0 2 5 9 13 17 18 23 28
6 3 1 2 2 3 2 2 4 4 9 5 4 8 12 5 4 7 3 3 4 3 4 3 2 1 6 8 6 10 14 12 12 9 5 3 7 7 9 8 8 12 15 22 26
4 4 2 3 5 2 3 2 8 5 3 8 9 8 8 5 9 10 3 1 3 3 3 1 2 1 4 7 8 13 13 14 13 13 8 10 19 2 7 15 12 8 14 18 20
8 6 1 3 0 3 3 4 9 11 11 10 12 13 12 13 11 12 11 2 0 1 2 2 3 2 3 5 9 7 2 9 10 10 8 8 9 6 7 5 18 17 17 12 11

GFSSW_850_spd_078.txt.gz
Wind_Speed
16 17 17 17 18 20 20 21 21 22 23 24 24 26 26 27 29 26 28 19 12 13 19 13 7 6 6 6 8 5 1 3 6 7 7 3 1 3 3 9 13 4 14 10 8
17 17 18 19 20 20 21 21 21 22 22 23 23 25 27 29 29 28 13 9 12 9 21 12 8 9 5 5 6 5 5 7 7 6 6 3 1 10 6 8 16 19 11 12 15
17 18 19 19 19 20 20 21 22 21 22 22 22 24 26 27 24 4 9 9 11 12 13 10 7 6 6 6 7 5 6 3 4 11 12 5 8 16 5 7 21 18 14 25 14
17 19 19 19 19 19 20 21 22 22 21 21 21 23 24 20 5 9 11 8 6 9 10 9 7 7 5 6 10 4 8 10 8 20 17 8 8 10 19 19 33 32 27 31 21
17 18 19 19 20 21 22 21 21 22 20 21 21 21 22 10 17 14 18 16 6 5 11 11 10 7 5 5 3 6 6 13 18 17 18 22 15 19 22 28 36 33 29 28 26
18 19 21 22 23 22 22 22 22 21 21 20 22 21 15 7 6 9 14 21 20 13 12 15 6 8 5 5 5 5 8 10 15 20 24 16 23 13 12 25 33 31 29 28 29
19 22 22 24 25 24 22 22 23 22 22 22 20 17 15 29 17 13 16 12 18 18 16 15 10 10 4 3 11 10 8 7 5 7 8 18 16 14 23 26 29 30 28 27 27
17 20 21 24 25 23 22 22 22 23 21 20 17 13 13 13 16 15 14 14 18 18 15 12 10 9 4 6 6 4 2 3 3 2 8 13 26 9 15 18 26 29 27 26 28
19 20 23 25 26 24 22 21 21 18 15 12 8 8 15 8 10 4 3 4 5 16 15 12 10 8 4 1 4 2 5 8 7 7 7 10 20 6 15 15 16 19 19 20 22
19 21 22 24 24 20 20 19 13 10 9 5 3 5 10 5 2 5 3 5 3 8 8 9 7 3 2 4 5 4 4 4 4 5 2 8 16 8 18 15 15 21 23 23 23
17 20 23 24 23 16 18 13 8 2 11 10 20 19 37 26 16 9 4 4 5 5 4 4 4 8 8 7 4 3 4 9 2 7 6 14 13 11 10 11 13 25 28 27 26
21 21 22 23 18 9 10 9 13 13 16 30 37 36 40 26 14 19 14 5 6 6 2 0 7 6 6 5 5 5 8 10 8 10 8 8 16 16 13 8 17 23 29 31 28
18 19 19 20 8 9 5 14 13 15 7 19 15 14 12 15 19 23 19 6 5 6 6 6 4 2 6 5 5 6 7 9 11 5 10 8 21 11 7 8 16 28 29 28 28
16 17 19 19 3 11 3 7 8 14 4 7 4 4 3 3 7 16 17 21 6 9 6 6 5 7 4 5 6 5 7 10 10 5 7 3 10 4 7 13 8 18 20 23 23
13 14 17 18 12 9 12 8 7 4 5 4 2 4 1 5 9 1 12 7 7 5 6 5 5 3 4 6 4 6 2 3 3 5 5 4 5 4 4 6 9 9 18 18 18
13 15 15 16 12 10 12 6 2 4 6 7 4 7 6 5 4 3 6 4 4 4 1 4 2 5 6 2 4 0 1 5 3 2 6 12 7 3 4 9 6 6 8 17 13
14 15 15 19 14 11 8 3 4 3 7 8 8 10 7 6 3 4 5 5 5 3 5 2 4 4 3 2 3 3 2 3 2 3 4 2 6 11 10 11 6 5 12 16 14
10 12 15 13 9 5 2 4 2 3 4 9 8 15 1 10 5 4 4 4 4 3 2 4 2 7 4 6 5 5 5 3 3 2 3 4 5 3 7 11 13 10 14 16 14
10 12 10 12 1 3 2 3 1 5 6 10 13 5 6 11 10 7 5 5 7 8 6 4 4 2 4 3 7 3 6 1 3 3 2 3 6 2 17 19 18 18 22 21 21
12 14 7 6 4 5 4 1 3 5 7 4 3 8 7 14 14 17 3 2 4 9 5 3 2 1 2 4 1 3 4 2 2 3 2 4 1 4 13 17 16 16 17 26 15
10 5 8 6 8 3 3 3 4 6 10 6 4 5 6 5 7 7 5 4 8 3 2 4 2 1 4 5 6 3 2 3 2 2 1 3 1 4 10 12 14 15 20 24 21
5 2 3 3 3 2 1 2 6 6 7 5 4 6 6 5 4 6 7 7 13 9 1 0 3 3 7 3 7 6 3 5 3 2 2 1 4 3 5 11 14 17 22 23 24
2 3 1 4 2 2 2 4 5 4 4 2 3 3 7 4 5 4 6 17 17 6 4 2 2 2 1 2 4 4 2 3 4 2 5 2 2 1 7 14 18 19 24 20 19
2 3 2 3 2 2 2 4 3 7 7 6 5 8 5 4 7 6 6 10 24 4 9 1 3 2 3 2 1 3 7 8 4 3 2 5 5 2 1 5 12 20 21 20 20
1 2 1 1 1 0 2 3 3 3 5 7 4 6 4 4 3 5 1 5 15 3 3 1 3 2 1 3 3 3 8 9 9 11 6 7 7 6 4 6 1 10 14 16 20
2 1 1 2 2 1 2 2 4 3 2 7 4 9 12 9 11 5 3 3 9 5 6 4 2 2 3 3 4 5 12 10 13 12 13 14 17 9 8 12 11 11 9 15 17
7 4 0 2 1 2 3 4 4 8 10 12 10 12 15 16 19 21 17 17 12 4 2 1 3 2 3 4 7 5 2 5 6 9 10 10 11 5 2 10 14 19 11 13 17

GFSSW_850_spd_081.txt.gz
Wind_Speed
16 17 18 18 19 19 19 19 19 19 20 22 20 22 23 24 26 24 23 18 13 13 18 16 8 11 13 12 9 9 5 10 8 8 6 5 4 7 7 7 4 5 6 14 15
16 17 19 20 20 19 18 19 20 20 20 21 22 22 24 25 28 28 13 13 14 15 18 22 14 13 8 8 8 6 6 9 7 7 10 10 8 12 4 10 16 16 14 11 18
15 17 18 18 19 20 20 21 20 20 19 19 21 22 24 23 22 1 1 1 8 9 15 17 13 13 6 6 8 6 9 5 6 9 9 8 15 14 13 13 22 21 17 20 22
15 16 17 17 18 19 20 20 20 19 19 20 20 21 23 19 5 5 7 5 7 10 12 13 11 9 5 6 8 6 9 11 6 16 18 18 27 24 21 17 28 28 30 27 30
15 17 18 18 19 20 20 20 20 19 19 20 20 22 22 11 13 12 15 13 7 9 12 12 11 7 5 5 3 6 6 10 17 18 22 22 22 21 17 19 33 31 31 28 29
14 17 18 19 20 21 21 21 21 20 20 19 19 20 14 4 5 7 14 17 16 9 10 13 6 10 4 5 6 3 8 9 9 17 18 20 25 15 20 19 27 29 29 30 28
14 17 19 20 21 20 21 21 21 21 21 19 16 16 16 21 16 17 14 13 18 19 16 13 14 7 5 2 7 5 7 10 12 13 9 14 12 15 25 25 23 27 26 28 29
16 19 21 22 22 22 22 20 20 20 18 14 13 11 11 14 13 10 12 15 16 17 17 14 14 10 7 6 2 4 4 7 2 1 7 6 9 9 13 16 19 21 23 28 27
17 19 21 23 24 22 20 19 19 13 11 12 8 5 10 5 5 1 1 4 4 16 16 10 11 7 4 4 5 2 6 6 5 6 10 8 9 6 15 12 16 19 20 19 21
16 19 21 22 19 19 18 18 10 9 7 5 1 2 6 3 1 1 3 3 1 6 12 10 6 3 1 7 8 5 5 4 4 6 13 19 21 12 17 13 15 18 19 18 20
16 17 18 20 16 13 16 9 5 3 8 11 20 15 27 19 24 12 9 5 2 6 6 5 7 13 16 11 13 9 11 13 10 8 14 17 22 20 18 17 18 20 21 21 24
15 17 18 17 10 9 11 8 10 12 13 28 24 25 28 22 12 12 13 8 10 10 4 1 11 11 7 11 9 10 12 13 10 8 9 14 23 20 18 21 25 26 23 24 28
16 16 18 17 4 8 4 10 11 13 5 13 7 7 5 1 7 11 17 9 5 10 10 10 4 2 11 6 8 9 10 9 10 13 12 17 20 18 16 22 25 23 23 24 26
13 14 18 17 5 10 2 8 11 10 3 5 3 3 3 1 5 5 12 14 6 10 5 7 8 8 6 7 8 7 6 9 7 6 4 6 10 11 16 17 16 21 22 23 26
8 13 15 17 11 6 10 5 6 3 5 9 3 4 13 4 8 3 5 12 10 5 6 6 5 6 12 13 8 5 2 4 6 8 7 9 7 5 6 12 15 16 22 23 23
10 13 13 13 10 10 8 3 2 1 5 7 5 12 12 4 4 6 3 8 7 5 3 5 1 4 4 3 6 3 2 6 5 4 4 11 12 7 6 5 9 10 12 11 15
9 10 13 15 13 9 5 1 2 3 8 8 8 11 11 10 6 2 5 6 4 4 8 4 6 2 3 3 1 3 1 2 1 3 4 1 9 12 15 12 11 10 16 18 16
8 9 9 12 9 6 2 3 3 4 5 7 8 12 4 12 7 13 1 4 4 3 2 6 3 8 5 10 4 6 5 3 3 2 2 1 6 1 8 11 15 15 17 18 19
8 9 8 8 7 3 2 3 1 2 6 10 11 5 5 7 6 12 7 3 5 9 5 4 2 2 4 2 4 3 5 1 2 3 4 4 4 10 13 17 19 21 23 26 27
8 6 9 7 6 4 4 3 1 2 5 4 3 6 6 10 8 10 5 7 10 3 5 3 1 1 3 3 3 3 4 3 3 3 4 3 3 4 14 18 19 19 21 24 25
7 4 7 7 5 6 3 1 3 4 5 3 2 5 5 5 3 3 5 7 15 13 9 3 2 1 5 6 8 4 2 3 1 3 2 3 1 4 9 11 13 15 20 21 21
5 3 4 2 4 3 1 1 5 4 4 4 3 5 5 6 5 4 6 1 19 21 7 2 3 4 6 2 6 5 6 5 2 2 3 1 4 3 6 10 12 13 17 19 18
4 3 2 2 2 1 1 3 4 3 3 3 4 4 4 4 4 8 5 1 15 11 4 7 1 3 4 3 5 2 1 1 4 3 4 3 2 2 2 6 4 11 13 17 19
3 2 3 3 3 2 2 3 3 6 5 4 5 7 7 5 7 6 6 4 9 19 15 7 1 5 3 5 3 3 4 3 3 2 3 7 14 13 3 3 5 8 11 13 16
3 1 1 1 2 1 1 2 3 4 3 5 3 3 7 5 9 6 9 5 4 15 4 2 1 3 1 2 2 2 6 7 7 8 7 10 14 16 12 6 9 10 13 15 15
4 2 2 1 1 1 1 2 6 4 2 5 6 9 10 8 12 20 19 14 4 3 2 2 1 2 3 3 2 6 10 8 8 7 14 15 19 15 18 5 12 13 18 13 12
6 4 1 1 2 1 3 2 2 8 7 9 10 14 15 14 14 19 20 17 16 8 3 2 4 1 3 2 7 3 4 5 3 7 7 8 15 11 4 5 12 15 19 19 11

GFSSW_850_spd_084.txt.gz
Wind_Speed
13 14 15 16 15 14 14 15 17 17 18 19 20 21 23 24 24 22 20 15 15 13 16 11 11 11 17 18 15 14 10 16 20 14 13 13 10 7 9 13 15 11 8 6 9
12 14 16 17 16 15 15 14 15 16 17 18 20 22 22 24 25 21 10 11 14 13 17 16 13 14 16 16 13 15 15 21 17 12 14 14 14 15 13 15 15 16 17 9 11
13 14 14 15 15 15 15 15 15 15 16 16 18 21 20 22 19 3 2 1 5 11 13 16 14 16 16 12 17 14 21 16 12 15 18 18 19 19 17 18 20 21 21 15 14
12 13 13 13 14 15 15 15 15 15 16 16 17 20 19 16 8 3 5 3 6 8 9 14 15 17 15 14 18 14 16 20 19 18 21 19 24 24 26 24 23 26 23 21 21
12 12 12 12 13 15 16 16 15 16 16 16 17 19 19 8 13 15 13 8 6 10 11 14 17 15 15 10 17 17 18 19 20 23 25 26 26 28 29 22 27 26 24 22 23
11 12 13 14 15 16 17 16 15 17 16 16 17 16 11 10 10 7 9 15 10 8 11 12 9 12 8 11 14 10 9 15 15 19 22 22 24 24 24 23 28 32 29 26 25
12 15 17 17 17 17 16 15 15 15 16 15 13 12 13 18 16 14 14 11 18 13 11 11 9 9 3 10 12 13 16 17 19 20 17 20 19 24 30 27 27 28 28 26 26
15 17 19 18 17 17 15 15 15 14 13 12 10 7 10 13 11 11 11 13 16 16 15 11 11 11 13 10 10 7 11 14 6 7 8 8 16 5 7 13 17 20 22 21 24
13 16 18 18 16 16 14 15 13 11 10 10 4 4 8 5 1 1 1 3 8 16 14 5 10 15 10 12 10 10 11 12 13 12 13 13 14 6 9 16 21 19 18 20 20
14 14 16 14 13 12 12 13 10 9 6 3 1 3 4 3 4 4 5 4 3 6 10 12 11 10 11 10 10 8 12 10 12 5 14 21 23 21 26 21 21 20 22 20 18
12 15 14 13 9 10 10 5 4 3 4 8 12 16 19 14 17 11 5 5 6 10 13 19 11 15 17 15 16 13 15 17 17 17 20 22 22 19 20 25 23 23 24 23 22
12 13 13 10 6 7 9 6 4 5 9 5 8 10 10 7 8 11 10 12 15 14 11 8 17 17 13 13 16 18 17 18 16 13 12 18 24 23 24 22 26 26 26 24 21
11 11 12 8 3 5 7 7 7 5 4 5 2 3 4 1 5 5 10 16 12 17 17 16 1 5 12 14 15 16 15 14 15 15 18 19 23 10 5 15 22 27 31 28 24
8 9 10 6 2 3 1 6 8 4 3 4 2 3 7 7 5 4 5 13 14 15 15 13 15 12 10 13 15 12 9 11 11 9 7 4 8 11 10 8 10 16 20 25 27
4 7 8 10 4 1 4 1 3 1 5 4 4 1 16 3 13 3 2 9 13 12 9 5 7 9 15 17 10 8 4 7 9 11 12 15 8 5 6 4 9 6 12 19 24
4 6 8 10 6 2 0 1 2 4 1 2 5 10 15 6 5 1 3 3 8 12 13 14 2 5 8 7 15 3 5 9 10 8 8 15 10 3 5 11 11 12 14 10 8
4 5 8 7 3 2 3 2 4 4 4 5 7 11 13 10 6 8 5 7 6 7 12 14 16 12 8 8 7 9 5 3 6 5 7 4 7 10 9 9 10 12 15 15 15
3 5 5 6 4 3 3 4 5 4 3 5 7 13 7 10 5 12 6 10 10 10 9 5 6 14 12 17 10 12 11 5 6 5 2 4 7 5 4 7 13 14 17 20 21
2 2 7 5 4 4 3 3 4 2 3 9 13 8 4 3 7 7 4 7 4 7 7 4 2 2 4 5 11 7 8 4 5 11 7 9 6 7 6 11 14 19 23 23 25
5 8 5 6 6 3 2 3 2 2 5 3 4 2 6 8 10 6 7 5 7 13 15 5 7 4 7 6 6 7 5 4 5 4 5 5 8 3 6 11 14 17 21 23 23
6 4 3 6 6 1 2 4 2 2 5 3 3 6 7 10 7 10 7 1 8 12 14 11 10 6 8 10 11 6 4 5 1 4 4 3 1 5 6 8 12 13 15 17 20
3 2 3 5 1 2 4 3 3 3 3 2 5 7 8 8 10 6 10 6 10 8 11 7 6 12 12 3 7 6 6 10 4 5 2 5 3 7 4 4 7 5 11 13 14
4 4 2 3 2 4 4 2 2 3 3 3 4 4 9 9 7 7 8 4 5 4 3 8 8 11 7 6 5 8 5 2 1 1 6 3 1 4 1 5 4 4 9 11 13
4 3 3 5 6 5 3 2 1 2 5 4 8 9 7 9 9 8 13 7 17 14 12 14 8 12 9 3 6 8 9 8 4 3 3 7 14 13 10 11 1 3 8 9 12
3 2 1 4 5 5 1 2 2 3 2 5 3 3 5 5 14 11 11 18 14 7 5 5 5 2 1 2 3 4 5 6 8 8 6 10 16 16 14 12 2 6 8 11 13
3 3 3 8 5 1 2 0 5 4 2 5 8 11 10 12 13 19 17 12 8 4 9 7 3 3 4 4 1 5 6 7 9 9 11 12 14 6 16 7 10 8 8 13 12
5 6 3 5 4 2 1 1 2 6 5 5 7 14 15 15 11 18 23 23 19 16 5 5 2 4 1 5 6 6 6 1 1 2 7 10 15 15 6 11 11 9 10 13 14

GFSSW_850_spd_087.txt.gz
Wind_Speed
14 15 15 16 15 15 15 16 16 16 16 17 17 18 18 19 21 19 19 17 15 16 15 9 11 19 20 23 25 20 16 21 25 23 22 10 14 21 17 20 19 16 19 7 1
15 15 16 16 15 15 14 14 15 15 16 16 18 19 18 20 23 23 18 18 18 16 17 16 16 17 24 24 28 20 16 26 22 21 15 8 17 16 15 18 20 21 18 18 10
15 15 15 15 15 15 15 15 15 16 16 16 17 19 18 19 19 2 3 2 4 8 12 16 17 18 23 21 27 26 24 21 24 17 15 18 19 22 21 21 23 20 21 21 22
14 14 14 13 13 13 14 14 15 16 15 16 17 18 17 13 7 5 6 5 2 6 9 14 19 21 20 21 24 23 26 25 21 24 18 18 24 25 27 25 24 24 24 25 24
13 13 13 12 12 14 15 15 16 16 16 15 17 19 16 10 18 15 15 8 4 6 11 15 18 21 21 18 25 22 22 25 27 23 22 26 25 27 31 30 29 29 30 30 27
12 12 13 14 15 16 17 16 16 16 16 16 17 16 11 17 8 10 6 8 9 9 11 14 15 17 20 18 20 20 20 19 23 25 22 21 24 28 30 30 30 31 32 29 29
12 15 16 16 16 17 17 16 16 16 17 16 14 12 13 23 9 8 10 10 11 14 13 14 15 12 9 14 17 19 22 20 21 25 24 25 25 25 31 31 33 32 30 29 31
14 15 16 17 18 18 15 14 14 15 14 12 10 6 10 8 10 13 12 14 14 14 15 14 13 17 20 17 17 15 19 18 18 18 13 18 20 17 11 16 19 24 27 29 31
11 14 16 17 17 14 12 12 12 13 12 10 1 8 10 6 3 3 3 7 9 14 13 12 16 20 18 15 16 16 17 19 16 11 11 15 17 14 18 14 16 18 22 23 24
11 12 13 12 11 9 9 9 8 10 5 4 7 7 6 3 6 6 6 6 6 7 11 15 12 14 15 15 15 15 18 17 17 12 6 16 20 19 25 26 29 31 28 26 26
9 9 8 9 7 5 5 8 3 6 9 13 9 17 18 11 16 16 10 7 10 12 13 17 13 16 19 18 21 18 22 21 20 16 17 22 22 21 21 27 26 30 30 29 26
10 7 7 6 3 6 8 1 3 4 7 6 5 7 9 7 6 2 11 11 16 17 15 14 17 19 16 16 17 19 22 23 21 19 15 19 22 20 22 23 30 29 28 28 25
10 6 5 3 1 6 6 3 3 4 6 3 5 2 1 4 4 3 4 13 18 17 18 18 10 4 16 15 16 18 19 21 20 18 19 22 24 24 17 19 19 21 27 28 27
5 2 3 3 4 2 1 5 5 2 4 9 7 4 3 4 5 3 4 9 9 18 16 18 16 14 11 15 15 18 17 17 15 15 11 12 14 19 17 9 8 8 13 16 24
2 1 2 2 1 1 3 4 4 2 4 5 7 0 8 5 8 6 3 4 11 10 10 14 12 12 19 20 17 17 13 10 14 15 16 18 11 16 12 8 4 9 12 14 16
3 2 2 5 1 3 4 1 1 5 2 5 3 3 8 3 3 3 5 3 4 9 14 17 18 9 12 11 13 13 10 13 15 13 13 19 15 12 4 8 6 7 7 13 13
2 1 3 1 3 5 2 2 5 6 3 4 1 5 10 5 13 4 8 9 8 7 13 17 22 22 15 15 11 14 12 7 8 7 10 5 6 12 9 6 7 9 12 9 12
2 2 3 1 3 1 0 6 6 5 2 2 7 14 13 6 7 7 14 11 16 13 14 15 13 18 18 21 12 17 16 8 9 8 9 0 8 5 12 12 7 8 8 11 10
4 1 1 3 1 2 6 6 6 5 4 7 12 11 7 1 4 12 12 11 7 11 6 7 10 4 5 14 19 19 15 17 17 20 13 9 13 15 12 8 5 7 14 15 15
3 4 1 1 1 1 5 4 1 4 6 5 6 2 8 9 10 9 5 7 3 9 13 10 16 15 10 9 16 18 4 8 8 6 10 14 17 9 8 5 6 13 13 16 17
6 4 2 3 3 5 4 2 1 1 5 4 5 7 8 9 7 9 7 5 5 8 9 16 13 14 11 12 13 12 11 9 6 9 5 7 2 12 8 7 10 13 14 16 16
3 1 2 2 2 3 2 2 0 1 2 3 5 8 9 9 10 10 11 8 6 10 11 6 7 15 20 9 8 10 13 15 8 12 6 4 2 5 8 5 6 7 11 13 14
2 3 1 2 2 3 3 3 2 3 2 3 4 4 7 10 7 7 7 7 10 10 6 7 5 8 18 9 13 13 14 11 10 6 9 5 1 7 5 8 7 6 8 11 13
2 1 3 1 2 2 2 2 3 2 6 5 7 9 7 7 9 6 12 7 12 15 4 2 6 14 16 9 10 20 16 13 12 5 6 7 13 3 12 11 13 7 8 11 13
2 1 2 2 3 3 3 4 2 3 4 5 4 2 3 6 10 13 10 15 14 6 4 3 9 20 25 11 10 6 13 13 13 11 7 10 13 14 11 14 11 8 8 11 13
2 2 3 7 4 4 3 2 3 2 2 7 6 9 9 11 14 16 16 14 8 4 10 7 7 18 18 7 3 4 7 6 6 8 10 11 10 20 25 17 16 13 10 11 13
1 3 4 6 6 4 2 2 1 4 5 7 7 10 14 15 18 19 22 25 18 16 11 6 5 11 6 0 3 5 10 4 0 4 10 8 12 13 13 14 19 14 14 14 13

GFSSW_850_spd_090.txt.gz
Wind_Speed
17 17 17 17 17 17 17 17 17 17 17 18 18 19 19 21 22 22 25 18 11 19 16 13 12 13 16 22 24 25 16 18 24 24 22 26 21 18 14 22 17 18 10 12 8
17 18 17 17 17 17 16 15 15 15 15 16 18 18 17 21 26 27 19 18 21 25 23 15 15 16 20 18 27 20 17 24 23 21 21 23 18 14 16 19 14 18 21 18 11
18 18 17 17 17 16 15 14 15 14 14 15 16 18 17 18 20 2 4 2 5 9 14 14 16 18 23 25 25 27 23 22 26 30 31 25 17 21 19 17 20 17 19 23 22
18 18 17 17 16 15 15 15 15 16 15 16 17 18 15 13 6 4 12 17 13 7 8 12 18 22 19 20 27 23 29 31 28 31 30 22 26 22 28 24 24 24 21 24 23
17 17 17 17 15 16 17 17 17 17 17 16 17 18 15 8 15 12 14 16 8 7 11 14 17 20 19 20 23 24 23 30 29 32 30 29 23 24 30 30 29 28 28 26 27
17 16 16 17 17 18 19 18 19 18 18 17 17 17 11 13 7 6 11 7 9 12 12 14 16 17 20 18 19 24 26 25 28 27 26 23 26 27 30 31 35 34 33 32 31
16 16 18 18 19 20 19 18 18 18 18 16 14 12 12 25 10 10 11 11 12 14 16 13 14 18 14 14 24 22 19 19 22 26 24 28 27 26 31 34 38 36 34 32 32
17 17 17 18 20 20 19 18 17 18 16 13 10 6 10 8 10 13 14 16 16 16 15 15 13 16 20 18 22 19 17 17 17 22 26 26 29 24 31 31 27 26 31 32 30
17 15 16 19 19 17 16 14 14 14 12 9 3 9 10 6 7 4 6 9 9 13 14 12 14 16 15 14 16 15 19 22 24 22 20 18 22 18 22 21 19 18 17 17 22
14 14 15 17 15 12 11 8 10 9 4 2 8 8 10 7 5 7 7 8 8 8 11 14 10 12 14 14 16 17 18 20 19 16 16 22 24 18 25 25 22 29 25 25 24
14 12 12 12 9 6 5 3 3 3 13 14 3 15 15 13 13 18 18 13 11 13 12 16 11 15 18 20 21 20 22 23 21 23 21 21 21 21 22 28 23 31 31 32 31
11 10 9 7 3 3 4 3 2 4 8 17 14 13 12 8 9 5 6 16 12 15 15 14 16 17 19 20 18 19 18 20 21 21 18 23 26 23 21 23 28 28 27 28 31
11 8 6 3 2 3 2 1 3 4 6 7 11 7 4 5 6 2 2 10 16 16 18 19 16 16 20 18 18 19 17 17 19 18 22 21 24 26 26 32 31 32 32 31 33
10 6 3 7 3 2 3 2 5 3 4 11 10 7 6 5 6 7 4 7 14 17 18 19 18 22 18 16 16 20 16 18 17 16 13 17 17 20 19 19 14 8 8 9 13
7 4 5 8 7 1 2 5 5 1 3 12 10 5 4 6 9 11 4 8 12 15 12 17 17 19 20 20 17 20 15 15 16 14 17 19 13 14 18 20 14 9 9 17 18
6 5 6 3 2 2 5 2 1 5 5 6 4 2 6 7 8 3 8 10 13 13 16 20 24 18 16 15 16 15 14 16 14 13 15 19 17 15 16 5 8 12 14 14 15
6 6 8 9 1 7 0 2 5 5 4 7 2 1 7 11 11 10 15 12 11 13 16 20 21 21 19 15 15 13 11 9 7 9 12 10 13 16 9 8 8 8 10 13 13
5 6 1 1 3 2 2 7 6 4 4 5 5 10 14 15 10 10 11 14 19 9 13 16 17 14 18 24 17 18 16 9 9 9 10 2 7 7 13 11 9 11 12 14 11
5 3 2 6 1 1 7 7 6 9 5 7 12 12 12 6 4 7 14 15 7 11 5 8 13 12 9 16 18 17 7 15 14 17 11 10 6 10 9 10 8 13 15 13 10
6 3 4 5 0 1 5 6 3 6 6 4 5 4 8 11 11 10 13 9 8 7 9 8 14 14 15 16 18 21 13 10 9 4 7 12 14 5 9 4 12 12 14 13 13
6 4 3 2 3 6 4 1 2 6 6 4 7 8 9 9 11 12 11 14 9 12 11 9 7 13 13 7 18 11 15 6 3 8 4 4 3 11 9 9 9 10 14 14 14
1 1 1 4 4 4 3 3 4 2 1 3 3 7 8 9 9 12 14 14 8 9 9 6 5 9 22 15 21 27 14 17 4 5 7 8 7 11 15 11 7 14 16 15 15
3 5 1 2 2 4 4 2 3 3 2 3 5 4 8 9 9 11 6 9 10 9 8 5 2 7 11 14 6 12 7 10 13 10 7 3 2 8 15 11 18 18 17 15 15
1 1 4 5 1 2 4 1 2 2 6 4 7 9 10 8 10 7 7 4 12 12 11 3 6 11 10 18 17 10 25 17 9 3 5 6 7 4 12 15 17 21 18 18 19
2 1 1 2 3 3 3 2 0 3 2 6 6 4 4 5 11 13 12 15 14 4 3 1 7 14 19 21 22 20 24 7 17 15 3 5 6 15 17 17 19 20 18 19 20
2 3 3 6 2 2 4 3 4 2 3 7 8 9 11 12 13 15 16 14 13 11 5 4 6 15 21 18 22 9 15 7 5 6 14 19 12 12 16 17 21 18 16 19 19
1 2 5 8 5 3 2 4 3 4 4 7 8 9 13 15 20 22 23 24 20 17 12 11 6 8 9 16 13 10 16 12 8 10 9 10 9 13 12 12 14 14 16 16 15

GFSSW_850_spd_093.txt.gz
Wind_Speed
20 20 19 18 19 18 18 18 18 18 18 19 20 20 19 21 23 22 27 17 15 9 9 10 13 9 8 14 24 25 8 13 14 16 18 27 15 27 28 12 11 9 3 3 14
20 20 19 19 19 19 18 17 17 17 17 17 18 19 19 21 26 28 9 6 7 11 15 15 16 11 11 9 11 7 9 16 10 15 16 20 14 22 21 13 8 4 12 6 11
22 21 21 19 19 19 18 16 15 15 16 17 18 19 17 20 22 4 4 6 7 5 11 15 14 16 20 20 17 9 13 10 16 25 27 21 22 23 15 8 13 7 12 17 14
23 22 21 20 19 18 18 16 16 16 17 18 18 20 18 16 5 3 12 14 10 8 10 7 11 16 4 10 30 14 21 26 26 34 32 19 27 19 20 16 24 25 25 20 19
24 23 21 20 19 17 18 17 19 19 20 19 19 19 17 9 23 21 15 13 9 6 8 8 13 17 12 7 19 15 15 25 28 31 33 32 22 19 21 29 31 32 31 30 28
24 23 22 20 18 18 19 19 20 21 21 19 18 17 13 8 5 7 11 12 6 6 7 7 12 18 21 15 12 20 19 17 17 19 19 11 9 16 20 24 31 33 37 36 37
24 23 21 19 18 18 20 21 21 20 19 17 14 12 14 29 9 12 12 14 10 12 17 17 17 19 18 8 15 17 13 11 8 13 12 22 18 17 28 31 35 37 39 40 39
22 21 20 19 18 18 20 20 20 19 16 13 9 7 12 7 7 11 17 14 15 15 15 15 17 16 11 14 16 6 7 8 4 9 16 16 25 20 33 34 33 40 39 45 44
21 18 18 18 18 19 18 17 14 14 11 9 8 8 11 5 9 3 3 10 10 12 14 12 12 13 11 5 5 5 9 11 15 13 15 11 22 12 18 24 18 20 24 21 25
19 17 17 20 17 14 14 11 9 11 3 4 6 6 11 3 5 5 5 6 5 6 9 10 6 3 3 3 8 6 8 9 9 7 5 9 10 14 24 29 16 20 29 34 35
18 17 18 18 12 8 7 3 4 4 13 12 12 10 11 14 17 17 15 13 11 11 5 13 4 8 11 13 16 14 16 17 11 8 12 16 14 15 14 23 20 24 28 32 38
17 15 15 12 6 4 4 2 3 4 9 21 24 21 21 15 7 11 6 13 12 9 8 7 10 13 15 16 15 16 17 12 9 8 8 15 20 13 13 13 25 28 31 38 36
15 13 11 6 5 4 2 2 5 5 4 9 17 19 11 13 7 2 5 12 7 7 9 12 11 13 16 14 15 15 10 9 12 7 9 12 20 16 17 24 32 38 40 45 33
14 12 8 6 6 2 3 6 7 1 2 4 8 7 7 7 6 11 7 2 3 10 13 11 10 16 18 14 14 14 7 11 12 8 8 3 15 11 14 21 20 24 16 9 10
10 10 8 12 8 4 4 7 5 2 2 11 8 9 4 8 12 12 9 5 7 9 6 7 9 10 14 14 13 15 8 13 5 9 8 8 10 14 14 17 17 7 10 17 16
10 9 10 9 7 3 5 1 3 1 4 5 7 5 4 10 13 8 9 11 7 5 9 12 21 10 11 11 6 5 7 6 5 5 12 16 11 17 11 12 2 5 15 21 21
11 12 14 10 5 8 4 5 2 2 5 4 3 2 3 5 9 11 2 5 4 6 7 15 18 17 16 15 7 2 2 3 3 4 12 6 7 13 11 1 5 4 15 17 21
11 11 13 9 7 5 7 2 2 5 9 5 5 7 5 5 6 2 6 7 11 7 5 7 11 4 9 14 7 7 7 5 7 6 8 5 6 4 4 10 32 17 20 19 23
10 10 8 5 3 10 3 3 2 6 5 6 6 4 5 6 7 7 6 6 4 8 4 5 6 16 17 13 3 6 10 6 9 13 7 8 10 6 6 10 19 16 25 24 24
14 8 9 2 5 7 2 2 5 9 7 7 3 5 5 10 6 9 4 4 4 12 9 5 8 6 12 14 6 3 5 1 2 4 5 6 10 3 12 4 10 14 18 20 23
12 5 6 4 9 2 2 1 7 10 8 6 7 6 7 6 7 6 5 8 9 8 6 6 3 7 9 3 7 7 5 4 4 4 3 3 1 5 8 10 11 13 22 21 23
3 2 4 8 3 4 2 4 2 5 4 1 0 4 2 5 5 5 7 3 8 7 5 2 3 4 15 19 20 8 10 4 4 5 2 4 3 5 3 15 8 16 20 17 21
3 5 5 5 2 0 3 6 4 2 2 4 4 4 4 4 3 4 6 7 4 3 2 3 3 5 14 8 0 3 4 8 14 2 6 5 1 8 9 19 19 21 20 19 20
2 2 2 1 2 4 4 4 5 5 1 1 4 6 5 3 5 4 8 3 13 2 6 3 3 5 9 12 13 18 19 14 10 5 3 4 5 8 12 14 16 20 20 19 20
3 2 2 0 0 6 3 1 4 2 2 5 3 3 3 2 5 7 8 8 10 2 4 3 5 6 13 18 17 18 19 23 18 13 6 5 2 9 9 11 12 14 18 19 23
4 3 4 8 6 4 2 4 4 7 4 5 5 9 7 5 6 9 10 7 4 5 3 4 3 6 13 16 19 17 20 4 6 4 4 10 8 8 10 15 17 18 16 18 19
5 4 3 6 4 3 0 6 8 5 1 3 5 5 6 8 14 18 21 18 12 9 4 3 1 3 7 10 15 9 10 9 4 11 9 4 8 10 9 11 15 13 14 15 16

GFSSW_850_spd_096.txt.gz
Wind_Speed
24 25 24 22 20 19 19 19 19 20 19 19 21 20 21 23 24 24 25 18 17 8 14 13 11 6 5 11 17 6 3 4 5 8 8 25 9 9 21 17 25 12 2 6 17
25 26 26 25 22 20 19 19 18 17 17 19 20 22 21 24 27 28 5 4 1 8 11 10 10 7 6 5 9 7 6 8 7 8 10 22 12 22 15 17 18 21 9 12 19
26 26 25 25 23 22 20 19 18 16 16 17 20 22 21 22 26 4 3 8 8 4 7 10 11 7 8 11 8 5 9 4 8 19 22 15 22 26 11 9 16 16 21 9 15
27 26 26 24 23 22 21 19 17 16 17 18 20 22 20 18 7 3 5 15 9 6 7 7 7 5 4 6 15 9 12 14 17 30 26 18 32 23 20 24 27 28 23 25 15
27 27 26 24 23 21 20 19 17 18 19 19 20 21 19 12 26 21 24 10 10 7 6 8 9 5 4 5 7 7 14 22 27 30 32 34 25 28 33 28 23 26 27 28 31
27 26 26 25 22 20 19 19 19 20 20 19 19 18 15 9 4 3 4 6 6 5 5 8 5 5 11 10 5 13 16 16 15 13 13 8 10 14 16 28 26 26 32 33 30
28 26 26 23 20 20 20 20 19 19 19 17 16 15 16 29 9 6 11 11 11 11 12 11 13 7 10 5 8 7 6 7 3 6 5 13 23 10 23 26 31 37 38 40 42
29 26 24 22 19 19 22 22 20 17 15 14 12 9 13 10 8 14 17 16 13 16 17 14 14 14 7 7 9 4 4 3 1 4 7 4 29 10 26 29 32 39 41 40 40
27 23 21 20 18 18 20 21 18 15 11 9 9 9 13 6 7 3 6 7 6 13 17 14 12 7 5 2 4 2 7 9 7 8 7 5 23 5 22 20 22 29 33 29 28
26 21 21 19 19 18 19 17 11 13 7 7 8 5 16 4 2 5 6 5 4 4 3 12 5 1 2 4 6 5 5 6 6 6 3 7 14 11 14 23 22 28 27 29 35
23 22 21 19 17 15 13 8 4 4 15 14 11 9 2 6 12 11 13 12 10 9 4 4 3 8 9 8 5 5 11 14 14 10 6 12 13 17 11 17 18 26 29 34 34
26 21 20 17 13 11 9 5 5 3 9 23 29 28 21 11 9 4 9 9 8 5 4 1 8 11 9 8 8 10 15 17 19 17 9 11 18 18 15 10 23 26 30 34 37
27 22 19 13 11 11 6 4 7 8 3 10 17 22 20 9 7 7 11 11 4 5 7 8 9 7 10 12 11 15 13 15 16 6 4 7 19 15 15 18 23 28 30 33 33
23 18 14 12 11 12 8 10 7 6 2 4 6 5 9 10 5 13 11 5 3 7 8 6 14 13 11 10 12 16 11 15 12 5 12 6 13 26 19 15 14 20 22 9 12
23 19 16 18 11 13 10 10 7 3 3 7 7 7 10 7 7 6 14 9 4 5 1 6 10 9 7 7 6 14 9 11 6 5 5 18 2 26 10 20 20 13 6 12 14
21 17 17 19 14 14 9 8 7 1 6 7 7 7 4 8 6 3 7 5 5 4 4 7 6 4 7 11 6 7 4 3 1 2 9 25 5 21 6 4 7 9 8 11 17
19 20 22 19 13 11 6 10 2 4 8 3 4 4 2 2 3 3 3 3 0 4 4 6 5 5 7 7 6 5 4 4 3 2 13 7 7 16 9 3 7 14 16 17 16
16 20 20 16 14 9 11 2 4 3 4 4 3 2 3 4 2 1 3 3 6 3 1 4 6 6 10 2 4 8 8 6 4 3 4 6 6 4 6 7 7 18 28 26 25
14 14 16 16 11 13 6 3 1 3 3 2 1 2 4 4 5 4 4 3 6 7 3 4 4 16 7 7 5 7 4 4 6 6 6 5 9 1 11 12 13 18 13 17 27
17 12 11 11 10 12 2 2 3 4 1 3 2 4 3 3 4 4 3 5 4 5 2 2 7 2 7 12 3 5 6 3 3 4 7 5 7 1 12 11 14 7 9 16 20
15 6 10 8 12 4 3 2 6 6 3 4 3 3 3 3 2 1 2 2 2 3 5 1 1 4 5 1 5 8 4 5 4 5 5 6 3 3 3 4 2 5 13 17 20
8 3 10 13 3 2 2 2 5 5 6 3 3 3 4 3 3 3 2 3 1 1 1 1 1 4 7 15 15 12 4 0 5 2 3 2 3 6 11 13 13 11 13 16 22
8 5 9 7 3 1 3 4 6 3 6 3 4 5 5 2 2 1 4 3 2 2 1 0 1 4 9 5 8 5 6 2 5 5 8 4 2 9 11 10 16 13 15 19 21
4 3 3 4 2 5 5 3 4 4 3 4 2 3 1 1 2 1 4 4 6 4 3 3 2 5 7 10 9 12 16 13 3 5 7 9 4 8 4 5 10 12 14 18 20
2 2 4 2 1 5 4 3 7 3 4 11 3 7 4 0 4 2 3 5 6 6 3 5 4 4 7 9 14 17 18 18 15 13 8 9 3 6 5 8 12 11 15 17 21
3 3 7 6 8 7 4 1 7 6 3 2 2 3 4 1 3 4 3 2 5 4 5 2 3 2 13 11 13 15 15 15 15 13 12 9 10 10 11 11 16 15 14 17 20
4 6 5 3 3 5 1 3 6 5 1 3 2 2 4 4 6 12 16 14 10 7 5 6 3 1 10 7 14 14 13 15 6 7 5 2 5 10 9 11 12 11 14 16 16

GFSSW_850_spd_099.txt.gz
Wind_Speed
23 23 23 24 24 23 22 21 22 22 22 21 21 20 20 23 23 24 24 17 17 13 16 17 8 5 7 9 11 6 1 3 6 5 6 8 4 4 10 13 21 18 24 21 10
26 25 24 24 25 23 22 22 21 21 21 20 21 21 22 25 27 31 6 5 4 9 8 8 10 7 5 4 8 6 4 9 6 4 6 21 9 25 8 15 20 27 23 17 10
27 27 25 24 26 24 23 21 21 21 20 20 20 21 21 23 27 1 7 5 7 3 5 6 6 6 5 5 6 5 7 4 5 12 15 9 20 23 6 11 23 23 27 23 18
30 29 28 27 26 24 23 23 22 21 20 19 21 21 20 19 7 3 8 7 8 6 6 5 7 5 5 6 11 5 7 9 9 19 21 9 28 17 20 20 30 32 28 26 21
34 31 28 28 25 23 23 22 21 23 22 20 20 20 18 11 26 21 23 27 9 8 7 8 9 6 4 4 5 6 7 20 23 26 26 27 17 17 26 23 15 21 26 25 20
36 32 27 29 24 22 22 22 21 22 24 22 20 19 14 11 7 4 8 8 5 5 6 11 5 4 8 5 4 7 9 14 13 18 20 11 12 9 10 31 28 24 24 27 30
38 31 28 27 25 23 22 20 20 20 21 22 19 15 16 31 9 8 13 12 8 9 9 11 8 5 6 6 11 10 7 5 6 8 7 16 7 8 25 21 25 26 27 29 31
40 35 29 27 25 23 22 22 19 19 18 16 17 10 14 14 14 19 22 21 12 14 15 11 9 10 7 10 7 4 2 3 3 2 5 5 15 6 19 12 22 26 28 31 31
38 39 31 26 23 23 21 19 17 17 15 14 9 8 15 11 11 5 14 18 11 17 15 13 14 9 5 2 4 2 6 5 6 4 6 6 15 4 14 24 20 27 32 34 36
42 40 31 27 24 21 20 17 15 15 11 8 7 6 13 1 4 8 6 7 7 5 4 8 6 2 2 3 6 5 4 4 4 5 2 10 22 9 19 18 24 29 33 37 39
45 37 27 24 20 20 17 10 7 5 18 14 13 9 4 9 7 8 7 11 10 4 3 2 3 9 9 7 4 3 5 10 6 10 4 13 21 17 15 10 15 26 31 37 38
43 31 24 21 20 17 16 9 8 3 9 23 30 24 21 15 8 8 14 11 7 6 3 2 7 9 7 5 6 7 8 10 8 12 5 11 21 18 9 8 21 23 27 33 35
37 32 24 22 19 18 15 11 7 6 4 10 24 27 25 16 10 13 14 13 4 5 6 6 7 2 5 6 6 8 5 8 11 9 6 7 19 10 6 12 25 26 29 27 16
36 29 23 21 16 14 14 9 6 4 2 5 7 9 14 14 6 20 13 10 4 9 7 6 8 8 7 7 7 11 7 14 14 6 7 8 11 25 10 5 9 20 15 16 17
34 28 26 22 8 16 9 11 7 2 2 3 6 7 16 16 1 10 20 12 6 6 6 7 3 4 5 6 6 8 9 10 11 4 4 9 3 12 14 17 8 8 13 14 20
32 28 24 22 15 15 14 12 5 3 7 6 6 7 6 8 2 3 9 6 2 2 2 6 3 3 6 4 6 8 4 4 3 2 4 19 6 16 10 5 4 8 15 18 20
27 24 22 22 16 18 14 12 3 5 3 5 5 8 6 4 2 4 3 4 0 1 2 4 4 2 4 4 5 7 2 2 3 1 8 5 2 7 5 3 1 7 15 20 28
25 20 23 22 21 19 15 2 7 8 2 1 4 6 4 2 2 2 5 3 7 3 2 2 3 4 7 5 4 6 4 4 4 3 4 3 6 4 3 6 10 7 13 24 32
22 19 22 21 21 16 8 4 3 2 2 2 3 4 2 3 4 2 3 3 2 3 2 2 3 3 6 1 0 4 2 2 4 1 3 4 5 1 3 4 2 6 14 21 28
22 17 19 21 15 14 2 4 2 4 2 1 2 3 3 1 3 3 3 3 3 5 2 1 4 2 6 9 5 5 5 4 2 3 6 5 5 5 4 6 5 7 14 19 22
20 8 14 16 16 7 3 3 2 1 3 3 2 3 3 3 3 2 3 2 2 2 5 1 1 1 4 1 4 5 2 3 2 4 4 5 4 2 5 8 7 9 17 16 19
12 3 18 19 5 3 3 4 7 3 7 3 3 4 3 3 3 2 3 2 2 2 3 1 2 3 4 9 7 5 3 2 2 3 3 3 4 4 7 9 11 15 15 15 18
14 9 14 18 3 3 3 3 4 3 4 2 2 3 3 3 4 2 3 3 3 2 3 2 1 3 5 4 5 4 3 2 3 5 5 4 2 6 6 6 7 11 13 15 18
7 3 6 11 5 4 4 2 4 5 4 4 4 5 3 3 3 3 2 3 4 2 5 4 3 5 5 3 2 5 9 11 6 3 4 6 13 5 3 5 10 14 13 17 19
4 2 6 4 3 4 3 2 4 3 4 10 4 6 3 2 2 2 2 4 4 4 3 4 4 4 6 7 7 14 17 17 12 14 7 12 10 0 5 5 11 12 16 18 21
4 4 4 4 6 7 4 1 6 3 3 3 5 4 5 2 1 2 2 3 4 4 4 1 2 4 6 8 13 16 20 19 15 14 15 17 14 5 8 8 16 16 15 17 19
4 6 6 3 3 4 1 4 4 4 5 6 3 2 2 1 3 8 12 12 9 6 6 6 4 2 6 5 10 14 11 18 8 5 12 10 4 7 8 8 15 13 12 14 17

GFSSW_850_spd_102.txt.gz
Wind_Speed
23 23 23 23 24 24 23 24 23 23 23 22 20 19 19 22 24 24 25 17 17 14 15 13 6 4 6 7 7 5 2 4 6 7 5 2 4 3 6 17 13 15 22 23 22
25 23 24 25 24 25 25 24 24 24 24 25 24 22 20 23 26 29 5 4 3 2 6 10 12 9 4 4 7 5 4 10 7 5 3 8 1 15 5 11 18 30 26 24 25
28 27 25 26 26 26 26 25 23 24 25 24 23 24 23 22 24 0 6 4 4 2 4 6 8 9 6 6 7 5 5 4 4 10 7 7 12 10 6 5 17 23 32 27 23
31 29 28 29 27 28 26 25 23 23 23 24 23 22 22 19 7 2 8 8 2 4 5 6 8 5 4 6 11 4 8 9 7 19 19 6 23 8 13 16 24 23 23 24 23
34 32 32 31 31 28 26 25 22 22 23 22 21 23 22 11 22 21 19 17 20 17 10 9 11 7 5 5 3 5 5 15 22 22 23 23 12 15 12 23 18 15 25 25 21
36 36 36 34 35 28 24 24 22 21 22 21 20 20 18 7 9 7 9 11 12 11 9 11 6 8 4 4 5 2 6 10 10 13 13 9 10 7 11 26 22 24 20 19 19
40 39 37 38 34 26 24 22 23 21 21 20 19 17 19 32 19 15 14 11 10 9 8 7 9 4 1 4 5 7 4 6 7 9 7 12 1 7 20 16 15 13 17 19 19
48 39 43 38 30 28 22 21 23 21 19 17 16 12 14 20 15 17 22 16 16 12 12 12 7 9 5 8 5 3 1 2 4 3 4 5 5 4 12 10 14 27 24 25 23
43 43 40 36 31 28 24 22 17 19 17 15 10 9 14 11 13 3 14 19 19 20 18 15 8 8 4 2 4 3 4 3 6 5 4 5 1 4 28 25 20 22 26 27 30
44 43 40 30 34 26 23 16 15 14 13 9 8 8 15 8 3 3 3 9 10 7 5 8 8 3 2 3 5 5 3 3 4 6 5 11 14 10 19 17 22 23 26 28 30
41 39 35 34 35 25 20 11 10 4 16 15 10 7 5 5 6 6 6 11 10 7 5 3 3 6 9 6 3 2 3 5 5 11 3 13 15 9 13 9 15 25 25 27 31
43 43 33 39 30 25 18 10 6 4 10 20 33 29 23 10 5 14 12 11 8 7 4 2 5 9 5 4 5 5 5 6 6 10 6 11 19 13 8 8 13 17 24 24 17
43 41 36 35 25 22 18 22 8 4 6 11 25 26 28 22 13 15 13 15 4 6 7 7 6 3 6 4 5 6 4 5 8 5 4 7 11 5 5 4 10 11 9 11 15
40 41 39 31 21 17 19 10 8 2 3 7 7 10 18 13 9 33 16 12 3 9 7 6 6 9 6 6 8 6 9 11 7 1 3 3 9 6 4 3 2 9 12 15 20
46 43 38 30 12 19 7 14 8 3 1 3 5 2 13 19 4 11 21 9 8 7 6 6 5 5 5 6 7 7 6 7 5 4 2 5 2 6 10 4 3 4 10 15 20
44 43 35 26 14 17 19 18 10 2 9 3 6 6 8 7 1 7 11 9 4 5 1 5 1 2 4 1 2 5 2 3 3 3 5 9 7 12 3 2 3 2 10 16 22
48 38 34 28 25 23 14 17 3 5 4 4 5 5 5 4 2 2 5 4 3 4 2 2 0 1 4 3 4 8 3 2 2 0 6 5 4 11 2 2 3 2 10 16 23
39 34 28 24 26 27 23 2 6 7 7 3 2 7 4 0 1 3 4 4 5 3 3 4 3 2 5 3 2 1 1 3 4 3 4 2 5 5 2 3 7 7 9 17 24
37 27 24 24 25 27 23 4 6 3 3 2 4 4 2 2 3 3 4 3 2 2 4 3 2 1 3 2 1 3 2 3 3 2 3 4 5 2 4 4 1 9 15 18 23
35 27 26 22 23 25 5 7 4 2 3 4 2 4 2 2 3 3 3 1 3 3 1 3 1 3 3 1 5 6 3 3 2 3 5 5 4 3 5 9 11 11 14 18 22
28 11 24 19 21 13 6 4 2 3 2 6 3 3 3 1 1 2 2 1 2 2 4 3 2 2 2 1 0 4 1 1 1 2 3 3 3 4 7 6 7 8 11 15 19
12 4 27 24 4 3 3 3 6 2 12 4 3 3 3 1 2 2 3 3 3 4 3 2 3 2 6 4 3 3 2 2 4 4 3 2 5 3 3 7 12 13 15 16 17
8 10 25 25 3 6 4 0 5 3 4 1 2 1 1 2 3 3 4 3 4 3 5 4 1 1 3 4 4 3 2 2 0 3 6 1 4 3 6 7 12 14 18 17 18
10 3 7 15 6 6 4 4 4 5 3 5 3 4 4 3 5 3 3 3 4 3 4 3 3 4 4 1 2 3 4 2 4 2 5 9 13 12 7 6 9 14 17 17 19
4 5 10 7 4 4 3 4 5 3 3 4 4 4 3 3 2 2 2 3 2 2 3 3 4 4 4 3 3 7 12 11 12 13 10 13 14 8 2 5 8 10 13 16 21
3 5 6 6 10 6 2 2 5 3 3 2 5 2 4 3 1 3 3 2 3 2 2 2 2 2 3 4 7 16 15 14 14 17 14 17 22 4 9 9 10 11 13 15 19
3 7 6 2 3 4 2 4 4 6 9 7 6 3 3 2 1 4 7 6 6 6 4 4 3 2 4 2 9 11 10 7 12 16 16 15 10 10 8 8 11 11 14 14 17

GFSSW_850_spd_105.txt.gz
Wind_Speed
22 21 20 21 22 23 24 25 26 25 25 23 21 22 22 24 25 26 28 15 14 13 12 11 9 8 11 10 8 7 4 7 8 8 5 2 1 2 2 8 7 7 11 19 19
25 23 22 23 23 26 25 26 26 26 26 24 22 20 20 24 26 24 3 1 1 3 10 14 12 10 7 8 7 6 5 10 6 7 8 5 5 7 6 11 14 18 18 20 16
28 26 24 25 24 27 28 28 29 26 26 26 22 21 18 19 22 1 2 2 3 2 3 7 9 11 6 7 9 6 8 6 5 13 9 8 9 7 11 12 15 20 22 17 12
29 29 28 27 26 26 28 29 30 28 25 25 22 21 19 14 7 2 5 7 3 1 3 6 8 7 6 7 8 6 9 10 5 15 10 10 20 15 16 21 21 20 21 16 19
33 34 31 29 27 28 30 31 31 28 25 24 21 20 18 9 18 20 23 20 17 14 10 9 10 6 4 4 5 7 6 9 14 14 16 16 17 18 13 24 22 17 18 21 23
38 37 33 32 30 30 31 34 29 24 24 22 21 19 14 9 10 8 9 11 17 21 16 16 7 11 3 4 5 2 6 9 7 12 9 9 11 7 15 22 19 18 17 14 12
42 41 40 34 37 32 33 33 30 23 21 19 19 18 17 30 18 21 16 14 11 9 11 10 9 6 5 3 5 6 7 6 10 11 8 6 9 10 22 20 12 10 13 16 14
44 39 40 37 38 36 33 31 27 21 19 16 16 15 14 19 19 22 23 19 16 14 12 8 7 7 4 6 2 3 2 5 1 3 3 8 9 8 3 5 17 19 17 16 16
41 41 39 39 32 34 32 27 23 17 17 14 12 11 14 12 12 7 17 21 17 17 14 7 7 7 4 2 3 0 8 5 6 3 1 4 4 4 11 20 14 18 20 18 20
38 42 37 37 33 30 33 27 18 14 13 9 9 7 13 10 4 6 6 12 13 18 14 8 7 5 4 7 8 4 5 4 5 3 9 15 16 16 21 15 19 19 18 20 18
35 34 40 36 31 31 30 18 8 2 16 14 7 8 5 4 11 8 9 11 14 10 8 7 7 13 18 11 9 6 7 13 11 12 5 12 14 14 18 13 18 18 14 10 10
34 40 36 35 33 33 30 11 8 5 10 18 27 34 29 15 6 16 13 12 9 9 6 4 13 13 8 11 9 8 10 11 9 12 5 12 18 17 16 11 13 6 4 5 10
30 28 36 41 33 35 29 20 15 7 3 13 25 25 27 28 17 19 22 15 7 10 11 11 4 10 9 7 8 10 10 8 10 9 7 8 11 4 3 5 10 7 5 7 11
29 36 43 36 34 28 23 14 10 6 3 8 7 11 14 14 12 35 24 18 6 15 8 9 11 7 6 7 9 11 11 14 13 4 5 5 8 7 4 6 4 5 6 8 13
29 37 37 36 31 25 15 21 17 5 2 1 5 2 8 18 2 12 26 15 11 8 7 7 6 9 14 14 10 8 7 11 10 7 3 6 6 2 3 3 3 2 5 9 12
33 42 41 41 24 19 27 28 22 2 6 3 6 7 8 10 3 6 17 6 5 5 3 3 2 4 5 4 7 1 3 3 1 3 6 12 9 5 4 3 0 1 7 11 15
38 37 45 35 28 28 31 23 5 5 5 5 5 8 7 7 3 3 11 9 6 6 4 1 1 1 1 5 3 1 4 3 3 4 4 2 8 10 2 3 1 5 8 12 16
45 50 40 33 38 44 41 3 4 5 6 3 2 8 4 4 1 2 8 7 4 3 3 6 3 1 3 2 2 2 3 4 5 4 1 4 7 1 8 8 10 8 8 14 20
54 44 39 34 38 41 21 3 7 6 3 2 3 4 1 3 4 4 3 3 2 4 4 4 3 1 4 3 1 2 2 2 1 1 4 6 4 3 4 7 9 11 15 19 19
47 37 29 30 33 31 3 4 5 3 2 2 4 1 4 1 3 3 3 1 4 1 1 5 3 2 2 1 7 2 2 2 1 4 6 5 6 4 2 8 10 11 13 16 19
39 13 34 30 33 12 3 5 3 1 2 2 3 3 5 3 3 2 3 2 2 3 2 2 1 2 3 1 2 2 1 1 1 3 4 5 4 4 6 6 8 9 13 16 19
9 3 30 30 4 3 4 4 4 3 4 1 3 6 4 6 6 4 3 2 3 3 4 2 3 2 1 5 3 4 4 3 3 3 3 4 6 8 5 7 8 8 11 13 16
7 8 21 22 3 3 5 3 2 1 3 2 4 3 2 4 4 4 4 3 4 3 6 5 2 3 2 1 1 3 4 4 3 2 7 6 4 5 6 6 8 7 10 12 15
9 4 4 7 3 7 7 7 7 3 2 5 3 2 3 3 2 5 4 2 3 3 6 3 3 4 4 3 3 2 4 5 4 4 8 14 18 16 14 2 5 6 8 11 13
5 3 9 7 4 5 4 6 6 4 3 4 3 2 3 3 3 3 3 2 4 3 3 2 5 5 5 5 4 9 11 13 15 15 12 15 19 15 12 2 6 4 7 9 12
4 7 9 13 7 7 4 4 6 4 2 2 6 4 3 3 2 4 5 2 3 2 2 0 3 2 4 9 10 15 16 17 18 20 19 23 25 16 5 9 8 5 7 8 12
3 10 10 9 5 4 4 4 6 7 7 5 9 4 6 3 3 3 3 5 4 5 4 4 5 3 3 1 8 13 8 8 9 11 14 16 16 7 7 9 6 6 5 7 11

GFSSW_850_spd_108.txt.gz
Wind_Speed
20 19 21 19 19 20 20 22 24 24 25 25 24 23 24 25 24 23 23 15 15 11 11 8 7 8 10 10 9 8 8 12 19 13 11 6 9 4 4 10 10 9 11 15 17
21 21 23 22 23 21 22 24 25 26 26 26 27 24 22 24 26 27 9 3 1 5 9 10 8 10 9 10 8 13 11 15 11 12 13 14 12 12 10 15 16 16 16 13 14
24 25 24 24 25 25 24 25 25 27 26 28 27 24 22 22 22 1 2 1 1 1 7 10 8 9 11 9 13 10 18 15 10 16 15 17 18 16 16 17 18 19 17 14 12
30 29 26 26 27 26 25 26 28 28 27 28 26 23 20 15 10 2 4 4 4 4 5 7 9 9 9 12 15 12 16 17 16 16 18 16 19 21 23 22 21 19 17 14 12
35 32 33 31 28 28 27 28 29 30 29 29 26 22 18 7 14 18 18 14 12 11 9 9 10 10 12 6 11 16 16 16 17 18 20 20 22 24 23 23 20 19 18 16 14
35 33 34 32 31 31 29 33 31 30 30 31 26 20 11 11 12 12 10 13 13 16 18 17 12 14 10 10 12 4 9 12 12 14 17 17 20 20 18 15 16 15 16 15 10
31 32 33 33 32 32 32 32 30 31 30 30 22 18 13 22 19 25 19 16 14 12 14 14 12 12 6 9 13 13 16 16 18 20 16 16 19 22 22 21 14 13 11 10 10
32 31 29 32 31 30 30 29 31 29 27 23 18 12 13 17 21 22 20 20 15 12 10 7 10 12 11 9 10 10 13 13 3 5 8 11 15 4 6 8 11 10 11 11 10
33 33 32 29 31 29 31 28 31 26 24 17 12 8 14 14 13 9 17 16 17 13 11 3 8 13 8 12 12 13 14 14 10 10 11 12 11 3 6 13 15 17 14 11 10
34 33 31 30 26 30 27 28 26 25 13 8 9 8 15 11 7 7 6 12 13 16 12 12 10 11 12 12 15 15 17 14 13 5 11 14 18 16 21 22 23 18 15 12 8
34 32 29 27 32 32 29 24 12 6 14 15 11 11 4 4 8 8 12 12 14 19 19 20 14 20 22 19 21 15 15 17 15 14 14 16 18 16 15 19 19 17 15 7 3
35 29 26 28 34 31 24 18 17 7 8 21 26 28 26 12 13 16 14 16 19 19 19 13 22 22 19 18 17 17 18 18 14 12 9 15 18 17 17 17 16 13 5 3 2
33 27 25 30 34 31 31 27 25 16 3 15 22 26 24 22 23 29 22 24 17 21 23 23 10 9 15 18 19 19 19 16 14 14 16 18 21 17 2 3 7 6 6 4 5
29 25 25 36 32 33 35 27 20 9 1 8 9 11 16 12 12 31 30 24 15 21 20 16 21 11 13 20 16 18 17 15 16 12 10 2 6 6 7 8 9 7 5 6 8
22 26 39 41 32 37 30 20 17 7 5 3 4 2 8 16 8 7 31 32 25 17 12 12 10 16 21 18 14 13 10 14 14 13 13 15 8 7 9 12 9 7 7 8 10
23 33 36 40 32 31 24 27 19 4 8 2 6 8 9 14 6 3 25 24 23 13 15 18 3 7 10 16 18 8 10 11 10 10 12 17 12 10 13 7 9 7 6 8 11
27 32 33 37 36 29 39 29 3 5 5 10 9 8 11 9 11 9 17 21 12 17 19 16 15 4 4 8 8 11 11 8 9 8 10 1 9 10 8 3 6 4 6 10 13
27 28 40 38 33 40 40 3 8 6 13 3 4 8 10 9 6 7 16 17 9 12 9 13 10 10 3 6 8 14 15 10 11 11 5 4 7 4 10 12 11 7 7 10 13
38 50 43 32 42 46 24 5 7 8 7 8 7 11 12 10 6 10 14 19 17 7 11 9 5 3 5 2 2 7 10 4 6 8 9 11 7 9 10 12 8 7 8 9 12
45 33 29 47 50 37 3 5 7 6 5 8 14 11 13 13 12 10 13 3 6 1 4 3 2 2 2 1 1 4 3 3 4 5 12 9 12 5 11 6 6 6 9 11 13
35 14 24 46 42 15 4 4 8 4 5 6 9 7 7 7 9 9 8 5 6 3 4 6 9 5 1 6 9 5 6 5 5 6 7 10 6 6 9 3 4 7 10 12 14
16 4 31 44 4 3 4 8 5 1 1 2 2 2 8 1 6 4 4 3 6 11 8 3 2 8 8 1 6 7 9 10 8 10 8 9 11 5 6 5 6 9 9 11 13
9 9 22 22 5 7 8 7 8 13 10 6 3 5 4 4 1 4 3 3 6 3 7 6 4 5 4 5 4 6 7 6 4 3 12 11 2 9 7 3 4 9 8 9 12
9 5 5 3 1 13 10 7 8 2 3 3 4 4 7 7 7 7 7 2 2 5 7 4 5 8 8 5 2 6 12 10 8 5 12 15 19 12 10 15 6 7 8 9 11
5 5 11 8 6 11 12 12 14 9 5 7 5 8 9 6 9 8 8 8 5 6 3 2 5 8 9 7 6 9 12 15 18 17 17 18 20 17 17 17 4 3 4 7 11
8 6 11 18 15 13 10 15 16 9 9 8 6 8 8 6 7 11 9 8 6 5 4 2 2 3 9 10 11 14 16 19 19 18 21 23 24 20 21 4 1 2 5 7 11
5 14 12 13 13 13 12 14 15 12 5 4 11 9 8 8 8 9 5 6 4 5 6 5 4 4 6 3 6 12 17 16 16 12 13 15 17 17 4 5 2 3 5 7 10

GFSSW_850_spd_111.txt.gz
Wind_Speed
17 18 19 19 19 19 20 19 20 21 23 24 24 24 26 26 26 22 18 13 15 16 10 6 7 8 11 16 15 11 10 14 20 20 17 6 8 11 7 12 12 12 15 14 16
20 20 21 20 21 21 22 22 23 22 23 26 25 24 27 27 28 21 14 5 3 2 4 7 6 8 14 13 12 16 13 20 18 15 15 14 15 15 13 14 16 15 17 15 15
27 25 24 23 24 23 23 22 25 23 23 27 26 27 25 26 21 1 2 1 2 2 4 7 7 9 16 17 18 18 20 21 22 17 15 21 22 21 19 18 18 19 18 16 16
28 26 29 28 26 25 25 25 25 27 25 26 28 26 25 21 8 6 8 9 6 3 6 8 10 13 12 16 19 23 26 24 23 24 20 19 23 23 24 23 21 20 20 19 17
30 31 31 32 30 27 27 27 27 29 26 28 27 27 22 10 20 15 17 17 15 10 11 13 13 13 17 14 15 21 21 24 25 21 24 24 24 24 26 24 22 20 18 18 18
27 27 27 28 28 30 30 28 28 29 28 27 27 26 14 18 11 10 14 10 11 11 14 16 16 15 17 22 20 20 18 21 23 22 22 21 23 24 22 16 16 17 17 18 18
26 26 25 24 25 28 28 26 28 29 27 25 25 23 14 25 14 13 16 14 14 15 17 17 19 20 10 13 20 23 24 22 25 27 26 24 24 23 29 27 23 22 17 18 15
25 26 28 28 25 23 24 26 26 28 26 26 23 14 13 14 18 22 20 18 15 15 17 14 14 18 22 18 22 15 19 21 18 18 14 19 21 15 6 10 15 14 16 13 15
26 26 26 27 28 23 21 25 25 23 24 22 15 6 15 8 14 15 19 20 16 13 13 11 11 20 17 16 16 16 19 24 20 12 11 13 15 7 6 8 14 15 16 15 14
26 26 25 25 26 22 22 24 24 23 21 11 10 7 18 15 10 9 8 15 14 15 14 16 13 15 15 15 18 19 20 21 19 17 15 17 23 17 16 17 19 21 20 16 14
28 26 25 22 19 24 25 24 11 7 13 18 13 13 6 7 6 7 7 10 14 16 18 21 16 22 22 23 25 24 25 26 21 15 13 18 22 21 23 24 20 22 19 17 16
29 27 25 20 22 26 24 30 18 7 12 18 26 33 30 25 23 21 14 14 19 21 20 21 23 24 24 24 23 24 24 26 22 20 18 20 24 21 21 18 21 20 17 12 6
28 28 26 20 20 26 31 22 16 8 6 21 32 33 30 28 39 42 30 30 24 24 25 26 25 24 17 25 25 25 25 23 23 19 15 18 25 25 23 29 25 18 5 10 5
29 30 26 17 27 33 38 31 19 13 2 13 12 12 21 28 28 35 39 41 28 29 26 23 25 25 20 20 22 23 21 22 20 18 16 20 16 11 9 10 7 12 11 10 4
28 28 25 34 32 38 33 30 18 5 6 7 4 4 4 20 8 6 13 32 30 27 21 23 19 22 22 25 20 21 19 16 18 17 20 22 14 16 21 16 16 13 12 5 2
25 20 25 32 38 34 27 26 16 4 10 8 6 8 12 19 21 13 8 23 26 26 25 27 16 15 18 17 22 20 15 16 18 16 16 22 19 16 13 14 19 16 8 2 5
22 24 29 39 39 31 26 28 5 8 4 12 10 11 15 14 14 15 10 16 18 14 22 22 19 19 14 12 11 15 15 13 11 12 15 19 17 15 11 19 14 15 9 4 8
22 24 31 36 32 33 39 4 11 16 23 3 11 13 16 13 15 15 15 16 20 19 11 10 9 19 13 18 14 14 15 9 7 12 11 7 8 3 16 16 14 11 5 6 10
19 31 43 41 33 40 23 5 12 23 11 21 13 14 16 16 10 12 16 17 18 16 9 7 11 8 6 5 4 9 18 13 11 18 11 9 4 8 10 11 10 9 9 12 14
38 41 33 35 42 46 7 10 16 14 10 14 20 15 14 19 15 16 15 10 17 10 16 6 5 13 9 5 7 8 7 6 6 9 17 14 16 8 15 11 8 5 6 8 11
37 17 23 36 39 16 7 9 9 17 13 12 16 15 12 12 16 17 9 1 8 8 6 4 7 7 4 10 11 7 9 6 6 7 6 11 5 10 13 7 5 5 4 8 12
23 4 30 46 6 3 5 5 12 18 13 9 8 13 12 11 9 14 8 4 6 11 6 1 4 6 12 5 3 8 11 13 9 13 13 13 14 11 7 5 3 4 4 9 12
9 8 27 37 7 7 5 6 13 15 15 10 7 7 4 7 6 6 4 1 4 9 12 12 7 7 10 8 8 9 13 13 12 12 16 13 7 9 6 4 4 3 8 11 13
9 5 4 17 5 5 7 10 11 15 14 13 8 10 11 8 5 10 9 4 3 5 3 2 11 11 9 6 6 6 14 13 14 10 15 16 18 10 6 10 16 11 6 10 11
6 6 12 11 11 8 12 11 14 9 8 12 8 12 12 9 11 7 9 7 7 4 3 3 9 11 13 15 7 10 9 13 16 17 16 15 17 17 19 18 10 5 7 8 8
7 6 11 15 24 9 9 10 15 11 12 14 12 17 15 9 12 11 12 11 8 10 8 3 4 5 11 10 12 15 16 17 19 19 21 21 21 18 20 11 3 4 6 5 7
10 9 22 20 15 12 11 15 18 16 9 15 13 9 10 4 4 8 5 5 2 8 9 7 5 4 9 4 8 11 16 19 21 19 17 14 15 9 14 4 3 3 4 5 8

GFSSW_850_spd_117.txt.gz
Wind_Speed
17 17 18 18 18 18 21 20 19 21 23 22 22 23 26 28 27 26 20 6 10 10 13 9 2 3 6 10 10 14 1 6 5 6 10 17 10 10 15 9 6 4 7 11 7
20 20 22 22 22 23 21 20 20 22 22 24 23 23 25 28 28 18 2 2 7 16 9 6 9 10 9 10 6 5 4 7 9 10 12 21 14 17 11 15 11 11 7 10 15
25 26 26 27 26 24 24 23 23 23 23 24 24 24 24 25 24 2 2 5 16 17 10 7 5 11 12 14 20 11 11 12 20 29 28 14 23 27 12 6 16 19 15 12 9
26 26 26 26 26 26 26 26 24 23 24 23 23 26 23 20 6 4 11 20 20 14 13 6 6 9 4 6 15 8 20 21 23 30 29 18 27 12 20 20 26 25 22 16 17
22 23 22 23 22 21 22 22 18 20 21 23 21 24 21 12 25 23 20 18 19 16 13 4 11 14 6 7 13 10 8 20 25 24 24 27 15 18 25 32 28 31 28 24 17
20 20 20 20 20 20 19 19 20 19 18 20 17 22 21 16 18 8 11 16 19 10 8 5 8 13 15 11 8 18 25 26 29 26 27 21 21 22 27 27 29 28 30 30 24
15 16 16 17 18 18 19 19 19 17 15 15 18 22 22 36 25 22 25 20 18 13 14 14 16 15 11 9 17 17 13 18 10 16 15 28 27 20 33 33 39 36 35 26 23
15 16 17 17 17 17 16 17 17 17 14 15 18 19 17 27 17 20 16 23 23 19 17 15 16 18 16 15 17 11 9 11 6 16 24 14 31 8 18 27 32 29 37 28 25
16 17 18 18 17 17 16 16 12 13 11 16 17 12 17 4 13 7 9 20 16 19 21 13 13 19 14 6 6 6 6 11 16 17 19 7 23 19 28 18 18 9 3 11 15
17 17 17 16 15 16 15 11 7 14 13 16 18 7 15 5 7 2 4 4 13 12 15 16 10 2 1 4 7 7 8 9 16 8 18 22 18 9 19 19 18 15 14 14 15
16 16 16 14 14 12 9 3 5 7 13 14 12 15 10 8 7 10 8 9 10 14 8 17 6 7 13 14 15 13 16 18 17 14 11 14 21 14 19 18 17 15 21 21 13
16 14 13 12 11 11 5 4 4 8 15 23 30 38 36 27 14 22 16 11 11 8 8 8 17 12 14 14 16 16 18 19 19 18 15 18 19 14 14 12 19 19 18 26 29
13 12 12 12 11 12 13 13 6 8 8 14 30 26 31 28 26 33 26 26 14 10 11 18 9 12 17 19 18 19 18 17 20 10 10 12 12 12 13 25 29 27 32 17 35
13 11 11 11 10 10 15 8 4 2 4 7 8 8 16 23 10 30 29 28 10 17 16 17 16 17 19 19 14 20 12 17 16 10 6 4 9 15 19 19 22 27 15 32 33
14 11 10 9 3 6 3 12 9 2 4 4 3 7 11 21 3 5 22 25 20 18 7 26 20 18 21 22 17 20 10 13 12 11 9 21 1 10 11 16 12 19 27 28 34
15 11 12 13 11 9 4 16 11 3 10 5 9 7 6 18 8 5 5 18 24 16 13 21 26 15 18 20 7 9 5 5 5 1 5 17 3 18 9 8 13 21 19 26 30
16 14 16 14 11 17 12 22 3 6 6 5 7 8 12 11 11 10 10 8 6 5 7 14 18 20 20 15 3 3 3 4 4 1 10 4 9 9 6 15 8 19 25 27 28
16 19 21 22 18 22 28 4 8 11 16 5 1 8 8 10 11 11 9 10 11 12 6 7 8 2 6 5 7 6 5 5 4 2 5 6 5 2 14 24 29 21 24 26 28
18 20 19 14 22 31 27 9 9 9 7 13 20 18 16 16 7 7 9 11 13 10 10 2 4 4 4 2 1 1 5 7 2 5 6 5 2 5 11 11 19 18 18 16 18
18 18 16 14 29 38 11 17 15 13 15 18 13 8 14 11 9 8 7 3 6 9 5 7 7 3 3 4 3 4 0 3 2 3 4 4 5 2 4 8 11 11 11 16 21
15 6 10 21 32 29 10 12 18 24 23 9 18 18 17 10 7 3 1 7 9 5 8 4 4 0 3 3 4 2 2 2 4 4 3 3 3 2 12 11 7 10 15 21 22
20 5 11 35 12 4 6 11 13 18 19 21 11 16 14 9 7 6 8 8 22 2 4 1 4 3 7 4 4 4 6 9 5 5 3 2 5 4 7 5 11 14 21 23 18
12 14 20 38 7 6 11 15 12 13 10 12 11 15 12 3 3 2 5 5 1 3 5 5 1 1 4 3 2 4 4 5 2 4 3 2 3 3 5 5 19 16 22 21 15
7 4 6 19 11 7 9 17 20 13 15 19 15 10 7 5 3 3 5 2 2 6 10 6 3 5 6 1 1 3 7 8 4 3 4 9 10 6 2 9 11 17 23 18 16
9 6 9 5 13 6 10 6 22 15 16 7 6 9 3 5 7 8 4 3 3 5 3 4 3 3 6 9 8 8 15 8 7 7 6 10 7 8 6 12 14 19 18 16 15
8 5 7 3 20 15 7 8 19 18 12 8 11 10 8 7 10 5 3 4 3 2 5 2 1 3 2 7 10 11 10 11 7 5 7 8 2 13 18 22 20 17 15 14 12
22 12 6 6 9 10 16 16 15 13 13 18 16 6 7 9 6 2 8 14 8 8 7 4 3 3 3 2 5 4 4 3 6 6 3 4 3 10 12 16 13 14 12 14 12

GFSSW_850_spd_120.txt.gz
Wind_Speed
15 16 17 17 19 21 20 22 24 24 21 23 26 23 24 28 26 23 16 1 6 15 12 7 7 5 2 1 1 2 2 2 4 3 6 14 8 11 16 12 14 8 8 2 3
16 17 19 20 22 22 25 28 25 25 25 24 25 24 23 27 28 19 1 4 5 14 8 9 5 7 4 3 2 4 4 7 7 5 9 22 12 17 8 12 14 18 15 12 1
24 25 26 26 25 26 27 26 25 25 27 26 25 24 24 22 23 1 5 2 15 15 10 9 5 6 5 3 7 4 6 5 15 27 30 23 24 19 4 3 13 17 20 20 19
22 22 22 22 22 23 23 22 23 23 25 25 24 21 22 19 5 4 8 13 17 14 11 8 2 2 3 4 6 4 9 12 18 23 19 10 23 18 12 19 24 23 26 26 23
18 19 19 20 20 20 20 19 18 19 22 20 20 17 19 12 20 15 22 17 10 12 12 7 5 2 2 6 11 5 5 10 16 23 24 24 14 13 24 36 30 28 26 27 27
17 17 17 18 18 17 17 18 18 18 18 17 16 14 16 9 9 1 8 11 9 10 11 4 4 10 11 4 3 10 16 17 16 21 21 17 13 13 24 36 41 41 37 32 26
12 13 14 15 15 15 15 17 17 18 16 15 14 16 21 31 16 19 22 20 13 12 15 11 11 9 9 8 10 11 10 11 6 12 8 27 11 12 30 31 35 36 38 36 34
12 13 14 16 16 16 16 16 16 17 15 14 12 15 15 21 11 6 8 23 20 23 18 15 15 13 7 9 10 7 6 2 5 3 11 3 19 11 27 28 33 34 35 32 30
13 14 15 17 16 15 15 14 14 14 11 9 11 11 16 3 7 3 7 10 15 14 14 17 13 12 10 2 4 3 7 5 5 9 5 4 22 4 30 25 25 26 28 13 9
13 14 14 14 14 13 11 11 11 8 10 11 14 8 10 2 2 3 1 1 8 8 7 16 10 2 2 4 5 7 6 4 3 6 9 11 22 17 17 22 26 30 23 13 12
13 14 14 13 14 10 7 5 4 5 11 12 5 13 11 12 10 6 9 7 7 7 5 6 4 7 15 10 8 6 9 15 11 7 10 12 19 18 20 16 17 25 26 8 23
11 12 11 12 11 9 7 5 4 5 13 24 28 36 37 25 11 26 13 11 10 7 2 3 8 11 9 10 12 13 14 15 16 12 13 12 12 7 7 12 20 23 28 14 27
7 8 7 8 8 10 12 13 5 7 7 12 22 17 22 20 17 29 20 11 4 5 9 10 8 7 11 13 14 17 12 13 16 10 3 5 13 7 19 20 26 28 12 19 23
7 7 6 6 6 7 11 4 6 5 4 7 6 7 11 9 7 14 23 19 6 12 9 9 18 18 16 12 10 17 6 11 8 7 8 6 12 12 16 12 6 11 21 30 29
9 6 7 6 6 7 3 13 7 0 4 2 5 5 15 12 2 3 8 17 9 10 4 7 2 5 10 18 8 20 11 7 3 5 3 23 2 9 7 14 6 11 21 27 27
11 8 10 8 11 8 3 14 6 5 7 5 9 9 7 8 3 6 7 13 13 8 9 13 19 6 15 16 13 17 4 7 4 1 4 16 6 6 6 8 12 17 19 20 26
12 11 11 10 8 15 13 14 3 4 3 5 6 7 10 8 4 3 5 8 7 3 6 10 14 6 12 13 3 3 5 2 3 1 6 4 2 3 7 14 15 14 23 20 19
13 15 14 16 11 22 21 3 6 6 9 3 3 6 6 5 7 9 3 5 7 6 4 5 6 5 3 5 6 6 8 5 4 3 4 2 5 3 7 13 17 10 14 21 15
15 15 19 15 18 28 23 6 8 6 2 3 5 4 7 8 10 11 13 12 10 12 9 5 6 2 3 3 6 2 3 6 1 2 2 3 2 4 8 10 12 9 3 9 8
14 14 22 11 20 38 11 16 10 5 6 4 3 5 4 1 4 4 7 1 1 9 8 7 9 1 1 2 1 5 7 3 2 3 5 3 3 4 10 11 9 9 8 7 7
7 6 5 20 33 29 11 11 15 21 10 4 7 7 7 5 4 5 4 0 2 0 7 1 5 3 2 4 7 2 2 2 5 4 3 2 4 5 9 9 11 12 17 16 15
7 3 8 24 14 9 15 15 19 10 21 17 10 17 14 8 5 5 8 5 4 2 3 2 2 4 6 4 4 3 5 6 4 4 4 2 5 4 10 12 16 18 16 12 9
8 14 10 30 9 9 10 17 15 14 8 10 10 9 6 10 4 6 2 2 9 4 7 7 2 1 5 4 3 3 4 3 2 4 12 5 5 5 8 13 24 20 16 12 9
7 3 10 24 12 11 14 15 17 15 21 20 8 7 7 5 6 4 3 1 2 3 6 7 4 6 9 3 4 2 5 2 5 3 3 8 11 6 9 15 18 19 14 11 9
14 5 7 5 17 17 13 7 20 17 20 16 8 19 7 5 5 6 4 3 2 3 2 5 5 4 4 2 3 3 9 14 8 9 10 11 4 7 7 10 13 15 13 11 10
11 7 7 4 26 20 15 19 24 15 16 15 16 8 10 15 7 6 6 5 5 4 4 1 3 2 2 3 4 7 11 9 8 6 5 5 4 6 14 19 15 10 9 9 9
25 21 7 6 7 13 21 28 21 14 17 32 19 8 12 16 7 4 6 7 4 7 7 6 5 2 3 1 1 4 6 11 7 4 1 3 4 5 5 8 7 7 8 7 6

GFSSW_850_spd_123.txt.gz
Wind_Speed
17 17 17 17 18 20 21 21 24 26 27 28 26 27 27 29 25 21 16 3 3 10 10 6 5 5 4 1 1 1 3 2 4 3 3 4 8 13 17 11 19 8 9 10 5
16 17 19 21 23 24 25 26 26 25 26 26 26 26 26 28 27 17 5 7 3 11 9 9 8 6 3 2 2 3 3 8 5 3 5 10 10 15 9 15 19 16 20 12 9
21 22 24 26 26 25 25 23 24 23 24 24 25 24 22 23 21 2 9 7 3 11 8 7 7 4 2 3 4 3 5 4 7 19 24 12 11 9 5 7 14 20 21 23 18
21 22 22 22 23 23 23 22 22 22 22 21 22 21 19 18 3 5 11 11 12 12 7 5 2 1 2 3 2 3 5 5 8 11 12 10 21 6 13 24 21 22 23 22 23
19 19 19 20 20 20 20 20 20 19 20 21 22 21 17 11 13 11 16 20 20 8 5 4 3 1 1 5 10 5 4 9 14 20 19 20 16 18 22 34 27 26 30 34 33
18 18 17 17 17 17 16 16 16 18 18 20 21 19 15 8 4 5 9 10 8 7 4 2 1 7 7 3 2 5 11 12 12 25 22 13 8 3 20 31 26 28 30 36 32
15 14 14 14 13 14 15 14 14 16 18 18 18 15 19 25 12 16 20 22 13 13 11 6 5 6 8 7 6 10 5 5 8 13 6 14 6 6 17 22 29 29 35 33 27
14 14 15 13 13 14 14 15 15 16 17 17 16 12 14 19 16 5 7 10 19 17 14 9 5 9 5 8 9 6 3 2 6 6 6 4 4 8 17 33 28 33 36 36 34
14 15 16 14 13 13 13 14 15 16 15 12 11 9 16 5 3 1 5 6 5 14 16 13 9 10 6 1 4 3 3 4 6 8 5 2 9 5 27 20 26 26 29 31 30
14 15 16 14 13 11 11 12 14 14 9 13 10 8 13 6 3 3 4 2 3 10 7 10 7 2 2 3 5 5 3 3 2 7 13 17 21 14 23 24 21 18 24 29 11
14 15 15 14 13 11 10 9 4 4 8 11 3 10 9 5 6 7 6 5 6 7 5 7 4 7 14 9 4 2 3 5 5 10 8 15 20 14 14 12 20 26 20 7 12
12 13 13 12 12 10 8 5 2 5 12 19 29 35 37 21 13 25 13 9 8 5 3 2 5 11 7 6 6 7 10 10 6 11 7 12 17 10 4 8 17 22 17 14 22
10 9 9 10 9 8 10 7 6 4 6 14 21 17 24 15 14 29 21 12 3 6 7 6 6 7 8 6 8 10 8 11 11 6 5 7 13 10 8 16 13 17 3 14 19
10 8 7 7 6 6 4 2 11 2 4 6 5 6 8 8 7 9 12 15 4 9 5 6 13 12 7 6 7 9 9 11 9 4 9 4 12 17 8 14 15 22 26 26 23
11 10 7 6 5 4 1 6 10 1 4 1 4 2 11 9 3 1 14 14 9 7 6 7 3 3 6 14 7 8 8 11 13 4 5 4 3 5 8 9 10 15 23 25 21
12 12 9 8 10 4 5 10 7 6 7 2 8 6 5 4 3 8 7 5 8 4 4 7 9 4 7 10 10 6 4 0 3 2 6 11 9 4 3 1 8 14 20 20 17
12 13 12 11 5 14 9 11 3 4 4 4 5 5 4 5 3 4 6 5 6 4 5 2 11 7 11 6 5 5 3 2 2 1 5 2 1 1 5 8 8 10 14 14 11
14 14 16 14 10 17 14 2 4 5 7 4 3 3 5 5 5 3 4 5 6 2 3 3 6 6 4 8 8 6 8 5 4 3 4 4 6 4 9 13 14 12 12 7 4
15 16 19 15 17 19 14 6 7 6 4 3 4 3 4 7 7 8 7 7 8 12 8 6 6 1 3 3 7 3 3 3 1 1 1 4 1 4 9 9 12 11 7 7 6
17 17 22 12 19 22 6 13 8 5 4 4 4 3 2 2 1 5 7 6 9 10 6 4 4 2 2 2 2 6 7 3 2 3 5 4 4 4 16 14 13 8 10 6 6
14 5 5 21 21 17 11 11 8 16 5 2 3 3 2 2 2 3 4 4 2 1 6 5 6 2 2 5 8 3 3 3 4 4 4 3 5 5 15 17 14 13 14 13 12
12 2 9 25 14 13 13 12 13 9 16 13 4 4 5 4 4 5 6 4 5 2 3 0 3 3 7 4 3 3 7 7 4 5 4 2 7 4 7 13 20 19 20 17 9
8 9 12 26 8 10 17 20 25 11 5 5 7 9 7 9 7 8 9 3 9 4 8 7 2 1 4 2 2 4 4 4 2 3 8 6 4 2 8 12 20 19 18 13 7
8 3 11 17 18 10 17 21 16 18 20 28 6 3 3 12 6 5 3 3 3 5 4 4 4 6 8 4 3 4 4 2 5 3 5 8 5 0 10 12 14 18 18 12 5
14 5 7 5 16 14 11 8 18 19 21 17 9 20 11 5 4 6 6 3 5 5 4 5 6 4 3 2 3 3 4 6 7 9 7 6 12 1 3 10 15 19 14 10 6
10 6 8 6 10 16 17 14 25 23 11 13 16 10 9 17 18 17 7 5 5 3 5 2 3 2 3 2 3 10 8 8 10 11 12 4 3 5 9 18 14 12 10 8 5
26 18 8 9 4 11 18 27 24 16 15 22 19 7 13 20 16 21 12 5 5 7 6 5 4 3 3 4 2 7 11 16 11 1 1 5 4 12 7 10 10 9 7 7 5

GFSSW_850_spd_126.txt.gz
Wind_Speed
16 15 14 16 18 19 21 22 24 24 24 26 26 26 26 29 26 22 17 5 5 2 7 6 7 6 6 3 2 1 4 2 4 6 4 4 9 11 15 11 17 4 7 13 14
16 17 17 17 20 24 24 23 23 23 24 24 25 25 24 26 25 10 5 9 4 4 8 8 7 6 2 2 2 4 3 7 4 2 2 10 4 11 9 17 11 20 19 17 17
23 22 22 23 23 24 24 22 22 22 23 23 22 23 22 23 20 2 9 10 6 4 10 6 6 4 3 1 1 2 5 4 5 7 7 2 9 3 4 6 8 18 28 28 25
24 24 23 22 22 21 21 21 22 22 21 21 21 21 20 20 4 5 11 12 11 10 12 5 1 2 3 2 2 2 5 5 8 7 12 7 9 3 13 19 18 22 22 25 26
22 22 21 20 21 20 20 20 19 20 19 19 20 22 20 12 11 13 15 16 18 18 7 2 1 2 2 2 6 4 3 10 14 19 19 21 11 9 13 18 16 16 17 23 27
20 20 20 20 19 18 17 15 15 16 18 19 19 21 19 8 7 9 11 10 10 6 5 2 3 3 1 1 1 3 7 13 11 24 20 6 8 3 10 12 22 22 26 26 28
19 18 17 17 16 14 14 13 16 17 18 19 19 21 22 23 14 15 15 17 15 11 10 6 2 2 4 4 2 6 5 8 8 6 4 4 3 4 11 31 24 30 25 26 28
16 16 14 13 13 13 14 15 15 18 18 17 18 18 13 18 15 14 14 10 9 20 14 9 3 2 2 4 6 4 3 3 5 5 2 8 4 7 21 31 31 29 25 26 27
15 15 13 13 13 12 14 15 16 18 18 18 15 11 13 4 2 1 3 4 4 12 16 10 7 3 2 4 4 4 3 2 6 4 4 6 3 10 25 23 24 22 20 25 24
16 15 14 13 12 11 13 14 15 16 15 15 15 7 9 5 4 3 3 2 1 8 6 7 5 2 2 4 4 4 2 4 5 6 12 10 10 6 22 18 21 22 21 15 10
14 14 13 13 12 11 12 12 5 5 7 10 5 7 11 5 7 4 2 3 6 7 4 5 3 7 13 7 3 4 1 4 6 10 5 8 9 9 18 21 18 21 15 14 15
11 11 11 12 12 10 11 5 4 5 11 18 24 30 32 15 9 22 8 5 6 5 4 3 5 10 2 4 4 4 2 6 6 7 6 9 11 9 7 9 17 15 17 18 17
12 10 9 11 10 8 8 4 5 6 5 13 16 15 17 14 14 26 21 10 4 6 6 6 5 4 5 4 6 5 3 4 7 6 4 8 6 4 8 16 19 25 23 20 19
10 10 7 7 6 6 1 4 7 4 4 6 4 4 5 7 4 9 9 13 5 10 7 5 7 4 2 5 6 2 7 6 5 4 4 1 6 4 4 10 11 16 23 21 19
12 11 8 5 3 1 2 4 7 1 4 1 2 2 5 8 2 1 6 10 7 6 6 7 5 5 7 12 6 8 7 7 5 6 0 3 3 3 6 7 6 9 14 16 15
15 12 10 6 7 5 5 8 2 6 6 2 5 5 4 3 2 6 4 3 2 3 2 6 2 5 7 5 7 1 2 1 3 2 4 11 8 3 3 5 7 7 9 11 11
13 12 11 7 3 9 9 7 4 4 4 1 3 3 1 3 2 5 5 5 5 4 5 2 6 4 5 4 2 4 3 3 2 1 5 4 3 10 4 6 9 13 9 7 2
12 13 15 10 8 8 12 1 2 3 6 3 2 3 4 4 4 2 5 2 4 3 2 3 5 6 3 8 7 5 8 4 4 3 4 3 5 5 6 9 12 13 10 5 1
14 16 16 11 11 12 10 3 7 6 3 4 3 2 2 3 4 1 7 5 6 9 7 4 5 1 4 4 9 4 4 3 3 1 1 4 4 4 8 10 12 12 9 7 3
18 17 20 12 13 14 3 9 6 5 3 4 4 0 2 1 2 2 3 2 4 10 5 5 5 4 1 2 3 5 7 3 2 2 4 4 5 6 13 15 12 12 16 10 8
20 7 5 21 16 9 8 9 4 14 11 3 1 3 2 2 3 2 3 5 1 3 5 4 5 4 2 5 8 2 2 4 3 4 4 2 6 6 13 15 14 16 19 15 10
19 3 10 27 8 6 13 7 4 6 4 7 1 3 3 0 1 2 4 4 6 2 3 3 3 3 8 1 2 4 7 9 4 5 4 2 9 4 5 8 18 16 13 15 14
16 7 16 27 7 8 13 10 8 2 2 4 7 8 6 7 4 8 10 16 22 6 5 3 3 2 4 2 2 5 5 5 2 3 8 4 6 4 3 6 10 17 18 17 10
13 4 7 21 17 12 13 15 9 8 18 18 3 4 4 5 5 5 3 3 2 4 6 3 3 6 9 6 3 4 6 6 5 3 4 12 9 3 5 8 10 16 20 16 8
11 5 10 6 14 12 7 6 18 13 16 13 6 18 8 3 2 5 4 4 5 5 5 6 6 6 6 6 4 4 4 4 7 9 9 13 11 5 4 8 11 18 18 12 6
11 6 5 2 10 14 8 17 14 16 7 6 13 1 9 17 16 16 6 4 8 1 5 3 3 2 5 4 5 7 5 7 10 12 11 10 10 4 8 17 16 15 12 9 6
21 12 9 8 5 6 13 21 17 13 19 22 13 7 13 18 13 24 22 20 13 7 5 2 4 3 6 1 2 9 11 16 12 3 4 6 5 7 6 10 14 15 11 9 7